[[{"header":{"parameterUnit":"m.s-1","parameterCategory":1,"la1":31.0,"la2":29.5877,"lo1":-88.7671,"lo2":-86.6584,"dy":0.0162,"dx":0.0185,"nx":115,"ny":88,"refTime":"2023-11-12T06:00:00:Z","depth":0,"parameterNumber":2,"parameterNumberName":"U-component_of_WINDS"},"data":[0.0,0.0,0.0,0.0,0.0,0.0,0.0,0.0,0.0,0.0,0.0,0.0,0.0,0.0,0.0,0.0,0.0,0.0,0.0,0.0,0.0,0.0,0.0,0.0,0.0,0.0,0.0,0.0,0.0,0.0,0.0,0.0,0.0,0.0,0.0,0.0,0.0,0.0,0.0,0.0,0.0,0.0,0.0,0.0,0.0,0.0,0.0,0.0,0.0,0.0,0.0,0.0,0.0,0.0,0.0,0.0,0.0,0.0,0.0,0.0,0.0,0.0,0.0,0.0,0.0,0.0,0.0,0.0,0.0,0.0,0.0,0.0,0.0,0.0,0.0,0.0,0.0,0.0,0.0,0.0,0.0,0.0,0.0,0.0,0.0,0.0,0.0,0.0,0.0,0.0,0.0,0.0,0.0,0.0,0.0,0.0,0.0,0.0,0.0,0.0,0.0,0.0,0.0,0.0,0.0,0.0,0.0,0.0,0.0,0.0,0.0,0.0,0.0,0.0,0.0,0.0,0.0,0.0,0.0,0.0,0.0,0.0,0.0,0.0,0.0,0.0,0.0,0.0,0.0,0.0,0.0,0.0,0.0,0.0,0.0,0.0,0.0,0.0,0.0,0.0,0.0,0.0,0.0,0.0,0.0,0.0,0.0,0.0,0.0,0.0,0.0,0.0,0.0,0.0,0.0,0.0,0.0,0.0,0.0,0.0,0.0,0.0,0.0,0.0,0.0,0.0,0.0,0.0,0.0,0.0,0.0,0.0,0.0,0.0,0.0,0.0,0.0,0.0,0.0,0.0,0.0,0.0,0.0,0.0,0.0,0.0,0.0,0.0,0.0,0.0,0.0,0.0,0.0,0.0,0.0,0.0,0.0,0.0,0.0,0.0,0.0,0.0,0.0,0.0,0.0,0.0,0.0,0.0,0.0,0.0,0.0,0.0,0.0,0.0,0.0,0.0,0.0,0.0,0.0,0.0,0.0,0.0,0.0,0.0,0.0,0.0,0.0,0.0,0.0,0.0,0.0,0.0,0.0,0.0,0.0,0.0,0.0,0.0,0.0,0.0,0.0,0.0,0.0,0.0,0.0,0.0,0.0,0.0,0.0,0.0,0.0,0.0,0.0,0.0,0.0,0.0,0.0,0.0,0.0,0.0,0.0,0.0,0.0,0.0,0.0,0.0,0.0,0.0,0.0,0.0,0.0,0.0,0.0,0.0,0.0,0.0,0.0,0.0,0.0,0.0,0.0,0.0,0.0,0.0,0.0,0.0,0.0,0.0,0.0,0.0,0.0,0.0,0.0,0.0,0.0,0.0,0.0,0.0,0.0,0.0,0.0,0.0,0.0,0.0,0.0,0.0,0.0,0.0,0.0,0.0,0.0,0.0,0.0,0.0,0.0,0.0,0.0,0.0,0.0,0.0,0.0,0.0,0.0,0.0,0.0,0.0,0.0,0.0,0.0,0.0,0.0,0.0,0.0,0.0,0.0,0.0,0.0,0.0,0.0,0.0,0.0,0.0,0.0,0.0,0.0,0.0,0.0,0.0,0.0,0.0,0.0,0.0,0.0,0.0,0.0,0.0,0.0,0.0,0.0,0.0,0.0,0.0,0.0,0.0,0.0,0.0,0.0,0.0,0.0,0.0,0.0,0.0,0.0,0.0,0.0,0.0,0.0,0.0,0.0,0.0,0.0,0.0,0.0,0.0,0.0,0.0,0.0,0.0,0.0,0.0,0.0,0.0,0.0,0.0,0.0,0.0,0.0,0.0,0.0,0.0,0.0,0.0,0.0,0.0,0.0,0.0,0.0,0.0,0.0,0.0,0.0,0.0,0.0,0.0,0.0,0.0,0.0,0.0,0.0,0.0,0.0,0.0,0.0,0.0,0.0,0.0,0.0,0.0,0.0,0.0,0.0,0.0,0.0,0.0,0.0,0.0,0.0,0.0,0.0,0.0,0.0,0.0,0.0,0.0,0.0,0.0,0.0,0.0,0.0,0.0,0.0,0.0,0.0,0.0,0.0,0.0,0.0,0.0,0.0,0.0,0.0,0.0,0.0,0.0,0.0,0.0,0.0,0.0,0.0,0.0,0.0,0.0,0.0,0.0,0.0,0.0,0.0,0.0,0.0,0.0,0.0,0.0,0.0,0.0,0.0,0.0,0.0,0.0,0.0,0.0,0.0,0.0,0.0,0.0,0.0,0.0,0.0,0.0,0.0,0.0,0.0,0.0,0.0,0.0,0.0,0.0,0.0,0.0,0.0,0.0,0.0,0.0,0.0,0.0,0.0,0.0,0.0,0.0,0.0,0.0,0.0,0.0,0.0,0.0,0.0,0.0,0.0,0.0,0.0,0.0,0.0,0.0,0.0,0.0,0.0,0.0,0.0,0.0,0.0,0.0,0.0,0.0,0.0,0.0,0.0,0.0,0.0,0.0,0.0,0.0,0.0,0.0,0.0,0.0,0.0,0.0,0.0,0.0,0.0,0.0,0.0,0.0,0.0,0.0,0.0,0.0,0.0,0.0,0.0,0.0,0.0,0.0,0.0,0.0,0.0,0.0,0.0,0.0,0.0,0.0,0.0,0.0,0.0,0.0,0.0,0.0,0.0,0.0,0.0,0.0,0.0,0.0,0.0,0.0,0.0,0.0,0.0,0.0,0.0,0.0,0.0,0.0,0.0,0.0,0.0,0.0,0.0,0.0,0.0,0.0,0.0,0.0,0.0,0.0,0.0,0.0,0.0,0.0,0.0,0.0,0.0,0.0,0.0,0.0,0.0,0.0,0.0,0.0,0.0,0.0,0.0,0.0,0.0,0.0,0.0,0.0,0.0,0.0,0.0,0.0,0.0,0.0,0.0,0.0,0.0,0.0,0.0,0.0,0.0,0.0,0.0,0.0,0.0,0.0,0.0,0.0,0.0,0.0,0.0,0.0,0.0,0.0,0.0,0.0,0.0,0.0,0.0,0.0,0.0,0.0,0.0,0.0,0.0,0.0,0.0,0.0,0.0,0.0,0.0,0.0,0.0,0.0,0.0,0.0,0.0,0.0,0.0,0.0,0.0,0.0,0.0,0.0,0.0,0.0,0.0,0.0,0.0,0.0,0.0,0.0,0.0,0.0,0.0,0.0,0.0,0.0,0.0,0.0,0.0,0.0,0.0,0.0,0.0,0.0,0.0,0.0,0.0,0.0,0.0,0.0,0.0,0.0,0.0,0.0,0.0,0.0,0.0,0.0,0.0,0.0,0.0,0.0,0.0,0.0,0.0,0.0,0.0,0.0,0.0,0.0,0.0,0.0,0.0,0.0,0.0,0.0,0.0,0.0,0.0,0.0,0.0,0.0,0.0,0.0,0.0,0.0,0.0,0.0,0.0,0.0,0.0,0.0,0.0,0.0,0.0,0.0,0.0,0.0,0.0,0.0,0.0,0.0,0.0,0.0,0.0,0.0,0.0,0.0,0.0,0.0,0.0,0.0,0.0,0.0,0.0,0.0,0.0,0.0,0.0,0.0,0.0,0.0,0.0,0.0,0.0,0.0,0.0,0.0,0.0,0.0,0.0,0.0,0.0,0.0,0.0,0.0,0.0,0.0,0.0,0.0,0.0,0.0,0.0,0.0,0.0,0.0,0.0,0.0,0.0,0.0,0.0,0.0,0.0,0.0,0.0,0.0,0.0,0.0,0.0,0.0,0.0,0.0,0.0,0.0,0.0,0.0,0.0,0.0,0.0,0.0,0.0,0.0,0.0,0.0,0.0,0.0,0.0,0.0,0.0,0.0,0.0,0.0,0.0,0.0,0.0,0.0,0.0,0.0,0.0,0.0,0.0,0.0,0.0,0.0,0.0,0.0,0.0,0.0,0.0,0.0,0.0,0.0,0.0,0.0,0.0,0.0,0.0,0.0,0.0,0.0,0.0,0.0,0.0,0.0,0.0,0.0,0.0,0.0,0.0,0.0,0.0,0.0,0.0,0.0,0.0,0.0,0.0,0.0,0.0,0.0,0.0,0.0,0.0,0.0,0.0,0.0,0.0,0.0,0.0,0.0,0.0,0.0,0.0,0.0,0.0,0.0,0.0,0.0,0.0,0.0,0.0,0.0,0.0,0.0,0.0,0.0,0.0,0.0,0.0,0.0,0.0,0.0,0.0,0.0,0.0,0.0,0.0,0.0,0.0,0.0,0.0,0.0,0.0,0.0,0.0,0.0,0.0,0.0,0.0,0.0,0.0,0.0,0.0,0.0,0.0,0.0,0.0,0.0,0.0,0.0,0.0,0.0,0.0,0.0,0.0,0.0,3.5645,0.0,0.0,0.0,0.0,0.0,0.0,0.0,0.0,0.0,0.0,0.0,0.0,0.0,0.0,0.0,0.0,0.0,0.0,0.0,0.0,0.0,0.0,0.0,0.0,0.0,0.0,0.0,0.0,0.0,0.0,0.0,0.0,0.0,0.0,0.0,0.0,0.0,0.0,0.0,0.0,0.0,0.0,0.0,0.0,0.0,0.0,0.0,0.0,0.0,0.0,0.0,0.0,0.0,0.0,0.0,0.0,0.0,0.0,0.0,0.0,0.0,0.0,0.0,0.0,0.0,0.0,0.0,0.0,0.0,0.0,0.0,0.0,0.0,0.0,0.0,0.0,0.0,0.0,0.0,0.0,0.0,0.0,0.0,0.0,0.0,0.0,0.0,0.0,0.0,0.0,0.0,0.0,0.0,0.0,0.0,0.0,0.0,0.0,0.0,0.0,0.0,0.0,0.0,0.0,0.0,0.0,0.0,0.0,0.0,0.0,3.755,3.6829,3.6784,3.6411,3.5633,0.0,0.0,0.0,0.0,0.0,0.0,0.0,0.0,0.0,0.0,0.0,0.0,0.0,0.0,0.0,0.0,0.0,0.0,0.0,0.0,0.0,0.0,0.0,0.0,0.0,0.0,0.0,0.0,0.0,0.0,0.0,0.0,0.0,0.0,0.0,0.0,0.0,0.0,0.0,0.0,0.0,0.0,0.0,0.0,0.0,0.0,0.0,0.0,0.0,0.0,0.0,0.0,0.0,0.0,0.0,0.0,0.0,0.0,0.0,0.0,0.0,0.0,0.0,0.0,0.0,0.0,0.0,0.0,0.0,0.0,0.0,0.0,0.0,0.0,0.0,0.0,0.0,0.0,0.0,0.0,0.0,0.0,0.0,0.0,0.0,0.0,0.0,0.0,0.0,0.0,0.0,0.0,0.0,0.0,0.0,0.0,0.0,0.0,0.0,0.0,0.0,0.0,0.0,0.0,0.0,0.0,0.0,0.0,0.0,0.0,0.0,0.0,3.7202,3.6941,3.6174,0.0,0.0,0.0,0.0,0.0,0.0,0.0,0.0,0.0,0.0,0.0,0.0,0.0,0.0,0.0,0.0,0.0,0.0,0.0,0.0,0.0,0.0,0.0,0.0,0.0,0.0,0.0,0.0,0.0,0.0,0.0,0.0,0.0,0.0,0.0,0.0,0.0,0.0,0.0,0.0,0.0,0.0,0.0,0.0,0.0,0.0,0.0,0.0,0.0,0.0,0.0,0.0,0.0,0.0,0.0,0.0,0.0,0.0,0.0,0.0,0.0,0.0,0.0,0.0,0.0,0.0,0.0,0.0,0.0,0.0,0.0,0.0,0.0,0.0,0.0,0.0,0.0,0.0,0.0,0.0,0.0,0.0,0.0,0.0,0.0,0.0,0.0,0.0,0.0,0.0,0.0,0.0,0.0,0.0,0.0,0.0,0.0,0.0,0.0,0.0,0.0,0.0,0.0,0.0,0.0,0.0,0.0,0.0,0.0,0.0,3.719,3.7787,3.843,0.0,3.7741,0.0,0.0,0.0,0.0,0.0,0.0,0.0,0.0,0.0,0.0,0.0,0.0,0.0,0.0,0.0,0.0,0.0,0.0,0.0,0.0,0.0,0.0,0.0,0.0,0.0,0.0,0.0,0.0,0.0,0.0,0.0,0.0,0.0,0.0,0.0,0.0,0.0,0.0,0.0,0.0,0.0,0.0,0.0,0.0,0.0,0.0,0.0,0.0,0.0,0.0,0.0,0.0,0.0,0.0,0.0,0.0,0.0,0.0,0.0,0.0,0.0,0.0,0.0,0.0,0.0,0.0,0.0,0.0,0.0,0.0,0.0,0.0,0.0,0.0,0.0,0.0,0.0,0.0,0.0,0.0,0.0,0.0,0.0,0.0,0.0,0.0,0.0,0.0,0.0,0.0,0.0,0.0,0.0,0.0,0.0,0.0,0.0,0.0,0.0,0.0,0.0,0.0,0.0,0.0,0.0,0.0,0.0,0.0,0.0,0.0,3.7584,3.791,3.8193,3.8227,0.0,0.0,0.0,0.0,0.0,0.0,0.0,0.0,0.0,0.0,0.0,0.0,0.0,0.0,0.0,0.0,0.0,0.0,0.0,0.0,0.0,0.0,0.0,0.0,0.0,0.0,0.0,0.0,0.0,0.0,0.0,0.0,0.0,0.0,0.0,0.0,0.0,0.0,0.0,0.0,0.0,0.0,0.0,0.0,0.0,0.0,0.0,0.0,0.0,0.0,0.0,0.0,0.0,0.0,0.0,0.0,0.0,0.0,0.0,0.0,0.0,0.0,0.0,0.0,0.0,0.0,0.0,0.0,0.0,0.0,0.0,0.0,0.0,0.0,0.0,0.0,0.0,0.0,0.0,0.0,0.0,0.0,0.0,0.0,0.0,0.0,0.0,0.0,0.0,0.0,0.0,0.0,0.0,0.0,0.0,0.0,0.0,0.0,0.0,0.0,0.0,0.0,0.0,0.0,0.0,0.0,0.0,0.0,0.0,0.0,3.7843,3.8355,3.8632,3.8558,3.8287,3.7772,0.0,0.0,0.0,0.0,0.0,0.0,0.0,0.0,0.0,0.0,0.0,0.0,0.0,0.0,0.0,0.0,0.0,0.0,0.0,0.0,0.0,0.0,0.0,0.0,0.0,0.0,0.0,0.0,0.0,0.0,0.0,0.0,0.0,0.0,0.0,0.0,0.0,0.0,0.0,0.0,0.0,0.0,0.0,0.0,0.0,0.0,0.0,0.0,0.0,0.0,0.0,0.0,0.0,0.0,0.0,0.0,0.0,0.0,0.0,0.0,0.0,0.0,0.0,0.0,0.0,0.0,0.0,0.0,0.0,0.0,0.0,0.0,0.0,0.0,0.0,0.0,0.0,0.0,0.0,0.0,0.0,0.0,0.0,0.0,0.0,0.0,0.0,0.0,0.0,0.0,0.0,0.0,0.0,0.0,0.0,0.0,0.0,0.0,0.0,0.0,0.0,0.0,0.0,0.0,0.0,0.0,0.0,0.0,4.0696,3.9614,3.9484,4.052,4.0211,3.9212,0.0,0.0,0.0,0.0,0.0,0.0,0.0,0.0,0.0,0.0,0.0,0.0,0.0,0.0,0.0,0.0,0.0,0.0,0.0,0.0,0.0,0.0,0.0,0.0,0.0,0.0,0.0,0.0,0.0,0.0,0.0,0.0,0.0,0.0,0.0,0.0,0.0,0.0,0.0,0.0,0.0,0.0,0.0,0.0,0.0,0.0,0.0,0.0,0.0,0.0,0.0,0.0,0.0,0.0,0.0,0.0,0.0,0.0,0.0,0.0,0.0,0.0,0.0,0.0,0.0,0.0,0.0,0.0,0.0,0.0,0.0,0.0,0.0,0.0,0.0,0.0,0.0,0.0,0.0,0.0,0.0,0.0,0.0,0.0,0.0,0.0,0.0,0.0,0.0,0.0,0.0,0.0,0.0,0.0,0.0,0.0,0.0,0.0,0.0,0.0,0.0,0.0,0.0,0.0,0.0,0.0,0.0,0.0,0.0,3.9039,3.9005,3.9858,4.1571,3.9756,3.8604,0.0,0.0,0.0,0.0,0.0,0.0,0.0,0.0,0.0,0.0,0.0,0.0,0.0,0.0,0.0,0.0,0.0,0.0,0.0,0.0,0.0,0.0,0.0,0.0,0.0,0.0,0.0,0.0,0.0,0.0,0.0,0.0,0.0,0.0,0.0,0.0,0.0,0.0,0.0,0.0,0.0,0.0,0.0,0.0,0.0,0.0,0.0,0.0,0.0,0.0,0.0,0.0,0.0,0.0,0.0,0.0,0.0,0.0,0.0,0.0,0.0,0.0,0.0,0.0,0.0,0.0,0.0,0.0,0.0,0.0,0.0,0.0,0.0,0.0,0.0,0.0,0.0,0.0,0.0,0.0,0.0,0.0,0.0,0.0,0.0,0.0,0.0,0.0,0.0,0.0,0.0,0.0,0.0,0.0,0.0,0.0,0.0,0.0,0.0,0.0,0.0,0.0,0.0,0.0,0.0,0.0,0.0,0.0,0.0,3.9309,0.0,4.0739,4.1967,3.987,3.8367,0.0,0.0,0.0,0.0,0.0,0.0,0.0,0.0,0.0,0.0,0.0,0.0,0.0,0.0,0.0,0.0,0.0,0.0,0.0,0.0,0.0,0.0,0.0,0.0,0.0,0.0,0.0,0.0,0.0,0.0,0.0,0.0,0.0,0.0,0.0,0.0,0.0,0.0,0.0,0.0,0.0,0.0,0.0,0.0,0.0,0.0,0.0,0.0,0.0,0.0,0.0,0.0,0.0,0.0,0.0,0.0,0.0,0.0,0.0,0.0,0.0,0.0,0.0,0.0,0.0,0.0,0.0,0.0,0.0,0.0,0.0,0.0,0.0,0.0,0.0,0.0,0.0,0.0,0.0,0.0,0.0,0.0,0.0,0.0,0.0,0.0,0.0,0.0,0.0,0.0,0.0,0.0,0.0,0.0,0.0,0.0,0.0,0.0,0.0,0.0,0.0,0.0,0.0,0.0,0.0,0.0,0.0,0.0,4.0032,4.2076,4.213,4.2014,4.1793,4.0622,3.8533,0.0,0.0,0.0,0.0,0.0,0.0,0.0,0.0,0.0,0.0,0.0,0.0,0.0,0.0,0.0,0.0,0.0,0.0,0.0,0.0,0.0,0.0,0.0,0.0,0.0,0.0,0.0,0.0,0.0,0.0,0.0,0.0,0.0,0.0,0.0,0.0,0.0,0.0,0.0,0.0,0.0,0.0,0.0,0.0,0.0,0.0,0.0,0.0,0.0,0.0,0.0,0.0,0.0,0.0,0.0,0.0,0.0,0.0,0.0,0.0,0.0,0.0,0.0,0.0,0.0,0.0,0.0,0.0,0.0,0.0,0.0,0.0,0.0,0.0,0.0,0.0,0.0,0.0,0.0,0.0,0.0,0.0,0.0,0.0,0.0,0.0,0.0,0.0,0.0,0.0,0.0,0.0,0.0,0.0,0.0,0.0,0.0,0.0,0.0,0.0,0.0,0.0,0.0,0.0,0.0,0.0,0.0,0.0,0.0,4.0627,4.0724,4.1456,4.2681,4.0061,3.8321,0.0,0.0,0.0,0.0,0.0,0.0,0.0,0.0,0.0,0.0,0.0,0.0,0.0,0.0,0.0,0.0,0.0,0.0,0.0,0.0,0.0,0.0,0.0,0.0,0.0,0.0,0.0,0.0,0.0,0.0,0.0,0.0,0.0,0.0,0.0,0.0,0.0,0.0,0.0,0.0,0.0,0.0,0.0,0.0,0.0,0.0,0.0,0.0,0.0,0.0,0.0,0.0,0.0,0.0,0.0,0.0,0.0,0.0,0.0,0.0,0.0,0.0,0.0,0.0,0.0,0.0,0.0,0.0,0.0,0.0,0.0,0.0,0.0,0.0,0.0,0.0,0.0,0.0,0.0,0.0,0.0,0.0,0.0,0.0,0.0,0.0,0.0,0.0,0.0,0.0,0.0,0.0,0.0,0.0,0.0,0.0,0.0,0.0,0.0,0.0,0.0,0.0,0.0,0.0,0.0,0.0,0.0,0.0,0.0,4.0599,4.1084,4.1831,4.2893,4.0189,3.8396,3.7719,0.0,0.0,0.0,0.0,0.0,0.0,0.0,0.0,0.0,0.0,0.0,0.0,0.0,0.0,0.0,0.0,0.0,0.0,0.0,0.0,0.0,0.0,0.0,0.0,0.0,0.0,0.0,0.0,0.0,0.0,0.0,0.0,0.0,0.0,0.0,0.0,0.0,0.0,0.0,0.0,0.0,0.0,0.0,0.0,0.0,0.0,0.0,0.0,0.0,0.0,0.0,0.0,0.0,0.0,0.0,0.0,0.0,0.0,0.0,0.0,0.0,0.0,0.0,0.0,0.0,0.0,0.0,0.0,0.0,0.0,0.0,0.0,0.0,0.0,0.0,0.0,0.0,0.0,0.0,0.0,0.0,0.0,0.0,0.0,0.0,0.0,0.0,0.0,0.0,0.0,0.0,0.0,0.0,0.0,0.0,0.0,0.0,0.0,0.0,0.0,0.0,0.0,0.0,0.0,0.0,0.0,0.0,0.0,4.1693,4.2774,4.3037,4.2513,4.0942,3.87,0.0,0.0,0.0,0.0,0.0,0.0,0.0,0.0,0.0,0.0,0.0,0.0,0.0,0.0,0.0,0.0,0.0,0.0,0.0,0.0,0.0,0.0,0.0,0.0,0.0,0.0,0.0,0.0,0.0,0.0,0.0,0.0,0.0,0.0,0.0,0.0,0.0,0.0,0.0,0.0,0.0,0.0,0.0,0.0,0.0,0.0,0.0,0.0,0.0,0.0,0.0,0.0,0.0,0.0,0.0,0.0,0.0,0.0,0.0,0.0,0.0,0.0,0.0,0.0,0.0,0.0,0.0,0.0,0.0,0.0,0.0,0.0,0.0,0.0,0.0,0.0,0.0,0.0,0.0,0.0,0.0,0.0,0.0,0.0,0.0,0.0,0.0,0.0,0.0,0.0,0.0,0.0,0.0,0.0,0.0,0.0,0.0,0.0,0.0,0.0,0.0,0.0,0.0,0.0,0.0,0.0,0.0,0.0,0.0,4.0549,4.186,4.3202,4.4289,4.1635,3.922,0.0,0.0,0.0,0.0,0.0,0.0,0.0,0.0,0.0,0.0,0.0,0.0,0.0,0.0,0.0,0.0,0.0,0.0,0.0,0.0,0.0,0.0,0.0,0.0,0.0,0.0,0.0,0.0,0.0,0.0,0.0,0.0,0.0,0.0,0.0,0.0,0.0,0.0,0.0,0.0,0.0,0.0,0.0,0.0,0.0,0.0,0.0,0.0,0.0,0.0,0.0,0.0,0.0,0.0,0.0,0.0,0.0,0.0,0.0,0.0,0.0,0.0,0.0,0.0,0.0,0.0,0.0,0.0,0.0,0.0,0.0,0.0,0.0,0.0,0.0,0.0,0.0,0.0,0.0,0.0,0.0,0.0,0.0,0.0,0.0,0.0,0.0,0.0,0.0,0.0,0.0,0.0,0.0,0.0,0.0,0.0,0.0,0.0,0.0,0.0,0.0,0.0,0.0,0.0,0.0,0.0,0.0,0.0,3.9479,4.0439,4.1651,4.277,4.3838,4.1395,3.9276,0.0,0.0,0.0,0.0,0.0,0.0,0.0,0.0,0.0,0.0,0.0,0.0,0.0,0.0,0.0,0.0,0.0,0.0,0.0,0.0,0.0,0.0,0.0,0.0,0.0,0.0,0.0,0.0,0.0,0.0,0.0,0.0,0.0,0.0,0.0,0.0,0.0,0.0,0.0,0.0,0.0,0.0,0.0,0.0,0.0,0.0,0.0,0.0,0.0,0.0,0.0,0.0,0.0,0.0,0.0,0.0,0.0,0.0,0.0,0.0,0.0,0.0,0.0,0.0,0.0,0.0,0.0,0.0,0.0,0.0,0.0,0.0,0.0,0.0,0.0,0.0,0.0,0.0,0.0,0.0,0.0,0.0,0.0,0.0,0.0,0.0,0.0,0.0,0.0,0.0,0.0,0.0,0.0,0.0,0.0,0.0,0.0,0.0,0.0,0.0,0.0,0.0,0.0,0.0,0.0,0.0,0.0,0.0,3.9647,4.079,4.1725,4.2095,4.1901,4.0724,3.9073,0.0,0.0,0.0,0.0,0.0,0.0,0.0,0.0,0.0,0.0,0.0,0.0,0.0,0.0,0.0,0.0,0.0,0.0,0.0,0.0,0.0,0.0,0.0,0.0,0.0,0.0,0.0,0.0,0.0,0.0,0.0,0.0,0.0,0.0,0.0,0.0,0.0,0.0,0.0,0.0,0.0,0.0,0.0,0.0,0.0,0.0,0.0,0.0,0.0,0.0,0.0,0.0,0.0,0.0,0.0,0.0,0.0,0.0,0.0,0.0,0.0,0.0,0.0,0.0,0.0,0.0,0.0,0.0,0.0,0.0,0.0,0.0,0.0,0.0,0.0,0.0,0.0,0.0,0.0,0.0,0.0,0.0,0.0,0.0,0.0,0.0,0.0,0.0,0.0,0.0,0.0,0.0,0.0,0.0,0.0,0.0,0.0,0.0,0.0,0.0,0.0,0.0,0.0,0.0,0.0,0.0,0.0,0.0,3.9993,4.0254,4.1044,4.1438,4.1384,4.0536,3.9051,0.0,0.0,0.0,0.0,0.0,0.0,0.0,0.0,0.0,0.0,0.0,0.0,0.0,0.0,0.0,0.0,0.0,0.0,0.0,0.0,0.0,0.0,0.0,0.0,0.0,0.0,0.0,0.0,0.0,0.0,0.0,0.0,0.0,0.0,0.0,0.0,0.0,0.0,0.0,0.0,0.0,0.0,0.0,0.0,0.0,0.0,0.0,0.0,3.1817,0.0,0.0,0.0,0.0,0.0,0.0,0.0,0.0,0.0,0.0,0.0,0.0,0.0,0.0,0.0,0.0,0.0,0.0,0.0,0.0,0.0,0.0,0.0,0.0,0.0,0.0,0.0,0.0,0.0,0.0,0.0,0.0,0.0,0.0,0.0,0.0,0.0,0.0,0.0,0.0,0.0,0.0,0.0,0.0,0.0,0.0,0.0,0.0,0.0,0.0,0.0,0.0,0.0,0.0,0.0,0.0,0.0,0.0,0.0,3.9774,4.0079,4.0472,4.0696,4.0675,4.0303,3.922,0.0,0.0,0.0,0.0,0.0,0.0,0.0,0.0,0.0,0.0,0.0,0.0,0.0,0.0,0.0,0.0,0.0,0.0,0.0,0.0,0.0,0.0,0.0,0.0,0.0,0.0,0.0,0.0,0.0,0.0,0.0,0.0,0.0,0.0,0.0,0.0,0.0,0.0,0.0,0.0,0.0,0.0,0.0,0.0,0.0,0.0,0.0,0.0,0.0,0.0,0.0,0.0,0.0,0.0,0.0,0.0,0.0,0.0,0.0,0.0,0.0,0.0,0.0,0.0,0.0,0.0,0.0,0.0,0.0,0.0,0.0,0.0,0.0,0.0,0.0,0.0,0.0,0.0,0.0,0.0,0.0,0.0,0.0,0.0,0.0,0.0,0.0,0.0,0.0,0.0,0.0,0.0,0.0,0.0,0.0,0.0,0.0,0.0,0.0,0.0,0.0,0.0,0.0,0.0,0.0,0.0,0.0,3.8565,3.9254,4.0045,4.0113,4.0113,4.0113,4.0113,3.9389,3.7956,0.0,0.0,0.0,0.0,0.0,0.0,0.0,0.0,0.0,0.0,0.0,0.0,0.0,0.0,0.0,0.0,0.0,0.0,0.0,0.0,0.0,0.0,0.0,0.0,0.0,0.0,0.0,0.0,0.0,0.0,0.0,0.0,0.0,0.0,0.0,0.0,0.0,0.0,2.9239,3.0658,0.0,0.0,0.0,0.0,0.0,0.0,0.0,0.0,3.3269,0.0,0.0,0.0,0.0,0.0,0.0,0.0,0.0,0.0,0.0,0.0,0.0,0.0,0.0,0.0,0.0,0.0,0.0,0.0,0.0,0.0,0.0,0.0,0.0,0.0,0.0,0.0,0.0,0.0,0.0,0.0,0.0,0.0,0.0,0.0,0.0,0.0,0.0,0.0,0.0,0.0,0.0,0.0,0.0,0.0,0.0,0.0,0.0,0.0,0.0,0.0,0.0,0.0,0.0,0.0,0.0,3.8768,3.8328,3.8734,4.0079,4.0113,4.0113,4.0113,4.0113,3.9389,3.7978,0.0,0.0,0.0,0.0,0.0,0.0,0.0,0.0,0.0,0.0,0.0,0.0,0.0,0.0,0.0,0.0,0.0,0.0,0.0,0.0,0.0,0.0,0.0,0.0,0.0,0.0,0.0,0.0,0.0,0.0,0.0,0.0,0.0,0.0,0.0,0.0,0.0,0.0,0.0,3.2039,3.3065,0.0,0.0,0.0,0.0,0.0,0.0,0.0,0.0,3.3872,0.0,0.0,0.0,0.0,0.0,0.0,0.0,0.0,0.0,0.0,0.0,0.0,0.0,0.0,0.0,0.0,0.0,0.0,0.0,0.0,0.0,0.0,0.0,0.0,0.0,0.0,0.0,0.0,0.0,0.0,0.0,0.0,0.0,0.0,0.0,0.0,0.0,0.0,0.0,0.0,0.0,0.0,0.0,0.0,0.0,0.0,0.0,0.0,0.0,0.0,0.0,0.0,0.0,0.0,0.0,3.728,3.8442,3.9389,4.0079,4.0113,4.0113,4.0079,3.9356,3.8476,0.0,0.0,0.0,0.0,0.0,0.0,0.0,0.0,0.0,0.0,0.0,0.0,0.0,0.0,0.0,0.0,0.0,0.0,0.0,0.0,0.0,0.0,0.0,0.0,0.0,0.0,0.0,0.0,0.0,0.0,0.0,0.0,0.0,0.0,0.0,0.0,0.0,0.0,0.0,0.0,3.221,3.3291,3.3822,0.0,0.0,0.0,0.0,0.0,0.0,3.3897,3.3997,0.0,0.0,0.0,0.0,0.0,0.0,0.0,0.0,0.0,0.0,0.0,0.0,0.0,0.0,0.0,0.0,0.0,0.0,0.0,0.0,0.0,0.0,0.0,0.0,0.0,0.0,0.0,0.0,0.0,0.0,0.0,0.0,0.0,0.0,0.0,0.0,0.0,0.0,0.0,0.0,0.0,0.0,0.0,0.0,0.0,0.0,0.0,0.0,0.0,0.0,0.0,0.0,0.0,0.0,0.0,3.5949,3.851,4.0011,4.0303,4.0337,4.0248,4.0079,3.8937,3.7855,0.0,0.0,0.0,0.0,0.0,0.0,0.0,0.0,0.0,0.0,0.0,0.0,0.0,0.0,0.0,0.0,0.0,0.0,0.0,0.0,0.0,0.0,0.0,0.0,0.0,0.0,0.0,0.0,0.0,0.0,0.0,0.0,0.0,0.0,0.0,0.0,0.0,0.0,0.0,0.0,0.0,3.3696,3.4022,3.4151,0.0,0.0,0.0,0.0,3.4151,3.4424,0.0,0.0,0.0,0.0,0.0,0.0,0.0,0.0,0.0,0.0,0.0,0.0,0.0,0.0,0.0,0.0,0.0,0.0,0.0,0.0,0.0,0.0,0.0,0.0,0.0,0.0,0.0,0.0,0.0,0.0,0.0,0.0,0.0,0.0,0.0,0.0,0.0,0.0,0.0,0.0,0.0,0.0,0.0,0.0,0.0,0.0,0.0,0.0,0.0,0.0,0.0,0.0,0.0,0.0,0.0,0.0,3.6648,3.8307,3.9749,4.1001,4.1068,4.0777,4.0113,3.9943,3.8894,0.0,0.0,0.0,0.0,0.0,0.0,0.0,0.0,0.0,0.0,0.0,0.0,0.0,0.0,0.0,0.0,0.0,0.0,0.0,0.0,0.0,0.0,0.0,0.0,0.0,0.0,0.0,0.0,0.0,0.0,0.0,0.0,0.0,0.0,0.0,0.0,0.0,0.0,0.0,0.0,0.0,3.5079,3.4653,3.5029,3.5481,0.0,0.0,3.5232,3.5307,3.6157,0.0,0.0,0.0,0.0,0.0,0.0,0.0,0.0,0.0,0.0,0.0,0.0,0.0,0.0,0.0,0.0,0.0,0.0,0.0,0.0,0.0,0.0,0.0,0.0,0.0,0.0,0.0,0.0,0.0,0.0,0.0,0.0,0.0,0.0,0.0,0.0,0.0,0.0,0.0,0.0,0.0,0.0,0.0,0.0,0.0,0.0,0.0,0.0,0.0,0.0,0.0,0.0,0.0,0.0,0.0,3.6344,3.7449,3.9694,4.1183,4.1779,4.1813,4.1474,4.073,3.9572,3.7945,0.0,0.0,0.0,0.0,0.0,0.0,0.0,0.0,0.0,0.0,0.0,0.0,0.0,0.0,0.0,0.0,0.0,0.0,0.0,0.0,0.0,0.0,0.0,0.0,0.0,0.0,0.0,0.0,0.0,0.0,0.0,0.0,0.0,0.0,0.0,0.0,0.0,0.0,0.0,0.0,0.0,0.0,3.5629,3.6359,0.0,0.0,0.0,3.6107,3.6433,0.0,0.0,0.0,0.0,0.0,0.0,0.0,0.0,0.0,0.0,0.0,0.0,0.0,0.0,0.0,0.0,0.0,0.0,0.0,0.0,0.0,0.0,0.0,0.0,0.0,0.0,0.0,0.0,0.0,0.0,0.0,0.0,0.0,0.0,0.0,0.0,0.0,0.0,0.0,0.0,0.0,0.0,0.0,0.0,0.0,0.0,0.0,0.0,0.0,0.0,0.0,0.0,0.0,0.0,0.0,0.0,0.0,3.8193,4.1068,4.2591,4.2557,4.2591,4.2139,4.1204,3.9521,0.0,0.0,0.0,0.0,0.0,0.0,0.0,0.0,0.0,0.0,0.0,0.0,0.0,0.0,0.0,0.0,0.0,0.0,0.0,0.0,0.0,0.0,0.0,0.0,0.0,0.0,0.0,2.5852,0.0,0.0,0.0,0.0,0.0,0.0,0.0,0.0,0.0,0.0,0.0,0.0,0.0,0.0,3.6133,3.6733,3.7613,3.8165,0.0,0.0,3.6934,3.7336,3.7185,3.6632,0.0,0.0,0.0,0.0,0.0,0.0,0.0,0.0,0.0,0.0,0.0,0.0,0.0,0.0,0.0,0.0,0.0,0.0,0.0,0.0,0.0,0.0,0.0,0.0,0.0,0.0,0.0,0.0,0.0,0.0,0.0,0.0,0.0,0.0,0.0,0.0,0.0,0.0,0.0,0.0,0.0,0.0,0.0,0.0,0.0,0.0,0.0,0.0,0.0,0.0,0.0,0.0,0.0,0.0,0.0,3.8971,4.1833,4.3308,4.3308,4.3321,4.2676,4.1318,4.0417,3.8398,0.0,0.0,0.0,0.0,0.0,0.0,0.0,0.0,0.0,0.0,0.0,0.0,0.0,0.0,0.0,0.0,0.0,0.0,0.0,0.0,0.0,0.0,0.0,0.0,0.0,0.0,0.0,0.0,0.0,0.0,0.0,0.0,0.0,0.0,0.0,0.0,0.0,0.0,0.0,0.0,0.0,3.7311,3.7839,3.8417,3.9195,0.0,0.0,3.7914,3.7965,3.8391,3.7838,3.518,0.0,0.0,0.0,0.0,0.0,0.0,0.0,0.0,0.0,0.0,0.0,0.0,0.0,0.0,0.0,0.0,0.0,0.0,0.0,0.0,0.0,0.0,0.0,0.0,0.0,0.0,0.0,0.0,0.0,0.0,0.0,0.0,0.0,0.0,0.0,0.0,0.0,0.0,0.0,0.0,0.0,0.0,0.0,0.0,0.0,0.0,0.0,0.0,0.0,0.0,0.0,0.0,0.0,3.7308,3.9054,4.1536,4.2846,4.2813,4.2772,4.2231,4.1196,4.0439,3.8414,0.0,0.0,0.0,0.0,0.0,0.0,0.0,0.0,0.0,0.0,0.0,0.0,0.0,0.0,0.0,0.0,0.0,0.0,0.0,0.0,0.0,0.0,0.0,0.0,0.0,0.0,0.0,0.0,2.7367,2.7822,2.8069,0.0,0.0,0.0,0.0,0.0,0.0,0.0,0.0,0.0,0.0,3.8266,3.9164,3.9763,0.0,0.0,4.0148,3.9546,3.9546,3.9195,3.8416,3.696,3.6182,0.0,0.0,0.0,0.0,0.0,0.0,0.0,0.0,0.0,0.0,0.0,0.0,0.0,0.0,0.0,0.0,0.0,0.0,0.0,0.0,0.0,0.0,0.0,0.0,0.0,0.0,0.0,0.0,0.0,0.0,0.0,0.0,0.0,0.0,0.0,0.0,0.0,0.0,0.0,0.0,0.0,0.0,0.0,0.0,0.0,0.0,0.0,0.0,0.0,0.0,0.0,0.0,3.7218,3.9009,4.1223,4.2363,4.2348,4.2269,4.1837,4.1087,4.0335,3.8525,0.0,0.0,0.0,0.0,0.0,0.0,0.0,0.0,0.0,0.0,0.0,0.0,0.0,0.0,0.0,0.0,0.0,0.0,0.0,0.0,0.0,0.0,0.0,0.0,0.0,0.0,0.0,0.0,2.8069,2.8376,2.8229,0.0,0.0,0.0,0.0,0.0,0.0,0.0,0.0,0.0,0.0,3.9127,4.0096,4.069,4.1092,4.128,4.0889,4.0592,4.0619,4.0047,3.932,3.8417,0.0,0.0,0.0,0.0,0.0,0.0,0.0,0.0,0.0,0.0,0.0,0.0,0.0,0.0,0.0,0.0,0.0,0.0,0.0,0.0,0.0,0.0,0.0,0.0,0.0,0.0,0.0,0.0,0.0,0.0,3.7746,0.0,0.0,0.0,0.0,0.0,0.0,0.0,0.0,0.0,0.0,0.0,0.0,0.0,0.0,0.0,0.0,0.0,0.0,0.0,0.0,0.0,0.0,3.738,3.8801,4.0894,4.1965,4.1965,4.1981,4.1657,4.098,4.0156,3.8818,3.6821,0.0,0.0,0.0,0.0,0.0,0.0,0.0,0.0,0.0,0.0,0.0,0.0,0.0,0.0,0.0,0.0,0.0,0.0,0.0,0.0,0.0,0.0,0.0,0.0,0.0,0.0,2.7729,2.8358,2.8592,0.0,0.0,0.0,0.0,0.0,0.0,0.0,0.0,0.0,0.0,3.8543,3.9797,4.0414,4.0958,4.1302,4.1302,4.1082,4.0925,4.0925,4.1091,4.07,0.0,0.0,0.0,0.0,0.0,0.0,0.0,0.0,0.0,0.0,0.0,0.0,0.0,0.0,0.0,0.0,0.0,0.0,0.0,0.0,0.0,0.0,0.0,0.0,0.0,0.0,0.0,4.2646,4.0567,0.0,0.0,0.0,0.0,0.0,0.0,0.0,0.0,0.0,0.0,0.0,4.0775,4.1643,0.0,0.0,0.0,0.0,0.0,0.0,0.0,0.0,0.0,0.0,0.0,0.0,3.6816,3.8137,3.9798,4.0667,4.0667,4.0547,4.0374,4.0113,3.9738,3.8129,3.5246,0.0,0.0,0.0,0.0,0.0,0.0,0.0,0.0,0.0,0.0,0.0,0.0,0.0,0.0,0.0,0.0,0.0,0.0,0.0,0.0,0.0,0.0,0.0,0.0,0.0,2.8787,0.0,0.0,0.0,0.0,0.0,0.0,0.0,0.0,0.0,0.0,0.0,3.6671,3.8069,3.9491,4.0602,4.1139,4.1383,4.1646,0.0,0.0,0.0,0.0,0.0,0.0,0.0,0.0,0.0,0.0,0.0,0.0,0.0,0.0,4.3937,4.0124,3.9546,3.9446,3.8743,0.0,0.0,0.0,0.0,0.0,0.0,0.0,0.0,0.0,0.0,0.0,0.0,0.0,0.0,4.3831,0.0,4.1407,0.0,0.0,0.0,0.0,0.0,0.0,0.0,0.0,4.1821,4.2525,4.2574,4.3438,4.3527,0.0,4.2295,4.0763,0.0,0.0,0.0,0.0,0.0,0.0,0.0,0.0,3.6746,3.799,3.9174,3.9798,3.9768,3.9661,3.9607,3.9589,3.9108,3.7585,3.4935,3.3157,3.1187,0.0,0.0,0.0,0.0,0.0,0.0,0.0,0.0,0.0,0.0,0.0,0.0,0.0,0.0,0.0,0.0,0.0,0.0,0.0,0.0,0.0,0.0,0.0,2.9938,0.0,0.0,0.0,0.0,0.0,0.0,0.0,0.0,0.0,3.4727,3.6542,3.8265,3.9228,4.0282,4.0975,4.1144,0.0,0.0,0.0,0.0,0.0,0.0,0.0,4.2174,4.3244,4.3053,4.3034,4.394,4.5443,4.6351,4.5598,0.0,0.0,4.2158,4.1706,4.1781,4.1306,4.1731,4.2231,4.2406,4.1854,4.148,0.0,0.0,0.0,0.0,0.0,0.0,0.0,0.0,4.4499,4.3808,0.0,4.287,0.0,0.0,0.0,0.0,0.0,4.1665,0.0,0.0,4.483,4.5756,4.4654,4.5844,4.616,4.5542,4.5069,4.387,4.1882,3.899,0.0,0.0,0.0,0.0,0.0,0.0,3.7182,3.8367,3.9038,3.9361,3.9361,3.9331,3.9284,3.9229,3.8291,3.7125,3.5819,3.4752,3.2986,3.0364,2.9679,0.0,0.0,0.0,0.0,0.0,0.0,0.0,0.0,0.0,0.0,0.0,0.0,0.0,0.0,0.0,0.0,0.0,0.0,0.0,0.0,3.0882,0.0,0.0,0.0,0.0,0.0,0.0,0.0,0.0,0.0,0.0,3.6121,3.8258,4.0127,4.0435,0.0,0.0,0.0,0.0,4.1273,4.1302,4.1914,4.2628,4.3187,4.4161,4.4695,4.4302,0.0,0.0,4.4844,4.607,4.6823,4.5748,4.6451,4.6923,4.6301,4.5192,4.474,4.5221,4.4468,4.4066,4.4389,4.3689,4.3014,4.8807,0.0,0.0,0.0,0.0,4.7577,4.8189,4.9584,4.9172,4.7951,4.6121,4.5773,0.0,0.0,0.0,0.0,0.0,0.0,4.1574,4.2675,4.2877,4.3262,4.3865,4.4944,4.5146,4.4511,4.4383,4.3658,4.2443,4.0817,3.9069,3.7161,0.0,0.0,0.0,0.0,3.805,3.8409,3.8571,3.8691,3.8691,3.8195,3.7676,3.6996,3.704,3.6155,3.4112,3.3992,3.2955,3.0817,3.042,0.0,0.0,0.0,0.0,0.0,0.0,0.0,0.0,0.0,0.0,0.0,0.0,0.0,0.0,0.0,0.0,0.0,0.0,0.0,3.0161,3.0738,3.1619,0.0,0.0,0.0,0.0,0.0,0.0,0.0,0.0,0.0,3.9633,4.0319,4.1017,0.0,0.0,4.173,4.1562,4.1995,4.2391,4.2597,4.2684,0.0,0.0,4.3782,4.3914,4.5112,4.639,4.7154,4.7004,4.7707,4.7958,4.6823,4.6873,4.6923,4.6396,4.6075,4.5869,4.5999,4.5497,4.507,4.5146,4.4644,4.4041,5.0453,5.0193,4.9268,4.9118,4.9396,4.879,4.9357,5.0647,5.0262,4.9376,4.8105,4.7466,4.5543,4.275,4.1697,0.0,0.0,0.0,4.1647,4.296,4.2334,4.2434,4.3242,4.3862,4.3948,4.3584,4.3355,4.2879,4.211,4.1078,3.9751,3.8212,0.0,0.0,3.8063,3.8542,3.8931,3.917,3.8931,3.8661,3.8392,3.7403,3.6582,3.6021,3.5544,3.4742,3.3554,3.3509,3.288,3.1488,3.1215,3.0728,0.0,0.0,0.0,0.0,0.0,0.0,0.0,0.0,0.0,0.0,0.0,2.706,0.0,0.0,0.0,0.0,2.6884,2.8621,3.12,3.2192,0.0,0.0,0.0,0.0,0.0,0.0,0.0,4.0066,4.1052,4.1749,4.2062,4.211,4.2158,4.2308,4.2308,4.2308,4.2308,0.0,4.2921,4.3264,4.3361,4.3699,4.4573,4.4487,4.4779,4.6198,4.7439,4.8134,4.7958,4.795,4.7619,4.6815,4.6568,4.647,4.618,4.6381,4.6552,4.6351,4.605,4.5773,4.5547,4.5016,4.4439,5.1011,5.068,4.9775,4.9411,4.9359,4.9138,4.9433,4.9944,4.9119,4.9009,4.9322,4.8129,4.6776,4.5325,4.3155,0.0,4.1345,4.182,4.2246,4.2671,4.2598,4.255,4.255,4.2622,4.2644,4.259,4.2188,4.1704,4.1137,4.0111,3.9504,3.9337,3.9809,4.0135,4.0293,3.9567,3.9616,4.0401,3.9526,3.8757,3.8056,3.6644,3.5813,3.5705,3.3979,3.3252,3.3652,3.3313,3.2864,3.2294,3.2055,3.1435,3.0316,0.0,0.0,0.0,0.0,0.0,0.0,0.0,0.0,0.0,0.0,0.0,0.0,0.0,0.0,0.0,3.0288,0.0,3.3142,3.4413,0.0,0.0,0.0,3.7968,3.8039,3.987,4.1124,4.122,0.0,0.0,4.3595,4.3571,4.3433,4.303,4.291,4.2837,4.2862,4.291,4.3078,4.3529,4.3979,4.446,4.4859,4.552,4.6204,4.6953,4.8058,4.8378,4.7845,4.7393,4.6658,4.6101,4.5949,4.5942,4.5838,4.6406,4.6845,4.6309,4.626,4.6125,4.5598,4.5095,4.4568,5.0751,5.0567,5.0289,5.0218,5.0195,5.0147,5.0508,5.1093,5.0873,5.0096,4.8935,4.8428,4.666,4.4021,4.3062,4.2555,4.2382,4.1719,4.1459,4.1518,4.0794,4.044,4.0465,4.1246,4.1331,4.0909,4.0824,4.0621,4.0277,3.9341,3.9056,3.9443,3.9576,3.969,3.9799,3.8408,3.8637,4.0583,3.7758,3.5958,3.5283,3.492,3.4322,3.358,3.3555,3.3231,3.2606,3.2937,3.304,3.2867,3.2254,3.1374,3.0191,2.9563,0.0,0.0,0.0,0.0,0.0,0.0,0.0,0.0,0.0,2.7702,2.5879,0.0,2.8853,0.0,2.942,3.0911,3.3072,3.3591,0.0,0.0,3.7273,3.7569,3.8371,3.9505,4.0532,4.1351,4.2658,4.3811,4.4628,4.4364,4.4244,4.4515,4.3842,4.3337,4.3337,4.3691,4.3979,4.41,4.422,4.4364,4.4556,4.4853,4.5464,4.6093,4.7072,4.7558,4.6792,4.7608,4.7961,4.706,4.7134,4.6981,4.5902,4.5997,4.6059,4.5959,4.6118,4.6125,4.5598,4.5372,4.4995,5.1198,5.072,5.072,5.0228,4.9424,5.0062,5.0562,5.0808,5.0191,4.9366,4.8396,4.7458,4.5529,4.2941,4.2646,4.2105,4.1395,4.0794,4.0542,4.0516,3.9955,3.9697,3.9723,4.0262,4.0362,4.0029,3.9848,3.95,3.9097,3.834,3.8254,3.8742,3.8334,3.858,3.9414,3.8421,3.844,3.9496,3.6766,3.5113,3.4744,3.4031,3.3261,3.2481,3.2604,3.2306,3.1537,3.2516,3.2821,3.2239,3.2379,3.1709,2.9985,2.9807,2.8977,0.0,0.0,0.0,0.0,0.0,0.0,0.0,0.0,0.0,0.0,0.0,2.957,2.9726,3.0508,3.1821,3.3728,3.4677,3.5831,3.7414,3.8087,3.8463,3.8666,4.0006,4.1206,4.1827,4.3254,4.4532,4.5325,4.5205,4.5013,4.5109,4.458,4.4124,4.3931,4.4124,4.4316,4.4316,4.4508,4.4869,4.5277,4.544,4.5556,4.5767,4.6185,4.6175,4.5085,4.527,4.5361,4.4562,4.4775,4.4881,4.4132,4.4459,4.4816,4.4819,4.4809,4.5048,4.568,4.5648,4.5196,5.187,5.107,5.0892,4.9821,4.8322,4.9322,4.9707,4.9547,4.8299,4.7717,4.7483,4.5667,4.3802,4.2034,4.1852,4.1004,3.9723,3.9697,3.9697,3.9697,3.9697,3.9697,3.9697,3.9697,3.9697,3.9672,3.9145,3.8617,3.8115,3.7563,3.744,3.7699,3.6881,3.7273,3.876,3.8662,3.8279,3.7666,3.625,3.5417,3.5197,3.3801,3.2797,3.2247,3.1924,3.1441,3.0924,3.2323,3.2639,3.1609,3.2684,3.2271,2.9983,3.0125,2.9493,0.0,2.7693,0.0,0.0,0.0,0.0,0.0,0.0,0.0,0.0,3.0234,3.0957,3.1777,3.2578,3.3516,3.4687,3.6272,3.7205,3.7201,3.865,3.9336,3.8635,4.045,4.1897,4.2006,4.3699,4.5143,4.558,4.5774,4.5614,4.4992,4.4887,4.4575,4.4163,4.4137,4.4316,4.4316,4.4772,4.5325,4.6022,4.6086,4.5765,4.5426,4.5172,4.454,4.3225,4.2597,4.1949,4.1551,4.206,4.2147,4.1777,4.2761,4.3539,4.3628,4.348,4.3927,4.5441,4.5615,4.5219,5.1829,5.1414,5.0463,4.9806,4.9404,4.8249,4.7491,4.6995,4.6764,4.6137,4.5182,4.3041,4.1836,4.1396,4.0537,3.9979,3.9697,3.9697,3.9697,3.9697,3.9697,3.9697,3.9697,3.9697,3.9697,3.9672,3.9145,3.8843,3.8718,3.814,3.766,3.7324,3.7156,3.6999,3.6945,0.0,0.0,0.0,3.6227,3.6092,3.4864,3.4498,3.4107,3.3549,3.3478,0.0,3.239,3.3037,3.3427,3.3475,3.3912,0.0,0.0,0.0,0.0,0.0,0.0,0.0,0.0,0.0,0.0,0.0,2.9928,2.9977,3.0108,3.1758,3.3027,3.3586,3.4043,3.459,3.5195,3.5565,3.5929,3.6245,3.6581,3.6869,3.7083,3.8476,3.9513,3.9981,4.2282,4.416,4.4764,4.5042,4.4984,4.4313,4.427,4.3937,4.2917,4.3639,4.4254,4.4364,4.4553,4.5094,4.5373,4.473,4.4193,4.3929,4.3513,4.2925,4.2201,4.2808,4.3195,4.2655,4.341,4.3489,4.2428,4.2792,4.3127,4.3193,4.3635,4.4318,4.5029,4.4832,4.4689,5.2788,0.0,5.0802,4.9784,0.0,4.7378,4.6106,4.5089,4.5394,4.4729,4.3388,4.2229,4.143,4.0876,4.0324,3.9948,3.9697,3.9697,3.9697,3.9697,3.9697,3.9697,3.9697,3.9697,3.9697,3.9672,3.917,3.8894,3.8869,3.8291,3.7864,3.7588,3.7588,3.7437,3.721,3.7185,3.6508,3.513,3.5627,3.5474,3.4751,3.4703,3.4382,3.3745,0.0,0.0,0.0,0.0,0.0,0.0,0.0,0.0,0.0,0.0,0.0,2.8716,2.8985,2.9337,2.9567,2.9653,3.0189,3.1387,3.1774,3.1802,3.1523,3.2871,3.3926,3.4336,3.4785,3.5215,3.5644,3.5703,3.5781,3.5962,3.6211,3.6367,3.6524,3.7954,3.9137,3.9605,4.1559,4.3444,4.4718,4.4797,4.4886,4.4839,4.4761,4.4299,4.3467,4.3263,4.3153,4.2687,4.2789,4.3179,4.3582,4.3266,4.2749,4.2449,4.2115,4.1571,4.0746,4.1239,4.1635,4.1405,4.193,4.2136,4.1558,4.1713,4.2032,4.2025,4.2185,4.2654,4.3433,4.4682,4.568,5.3598,5.2327,5.1133,4.9665,4.7997,4.6636,4.5141,4.3679,0.0,0.0,0.0,4.2126,4.152,4.0643,4.0442,4.0117,3.9692,3.9645,3.9645,3.962,3.9671,3.9697,3.9697,3.9697,3.9697,3.9672,3.9245,3.9044,3.9019,3.8542,3.8241,3.8165,3.8165,3.8115,3.8015,3.799,3.7313,3.6008,3.5506,3.5257,3.5211,3.5211,3.4821,3.4024,3.4445,3.4283,3.3516,3.4399,3.4672,3.4121,3.3874,3.3164,3.1905,3.1173,3.062,3.025,3.0332,3.0742,3.1465,3.166,3.207,3.2851,3.3269,3.3418,3.3144,3.3789,3.4394,3.4883,3.5273,3.5644,3.5996,3.6035,3.6035,3.6035,3.6348,3.6445,3.6377,3.782,3.8997,3.9439,4.0903,4.2629,4.4083,4.4075,4.4112,4.4529,4.4074,4.3993,4.3411,4.274,4.2335,4.1723,4.1661,4.1548,4.2049,4.2034,4.1665,4.1366,4.1002,4.0412,3.9696,3.9468,3.9502,3.9702,3.9875,4.0249,4.0296,4.0678,4.0897,4.0918,4.084,4.0962,4.2052,4.4496,4.6247,5.2945,5.1725,5.0519,4.9287,4.7951,4.6023,4.436,4.3045,4.2874,4.2659,4.2417,4.1719,4.1364,4.1167,4.0151,3.9683,3.9584,3.9455,3.9336,3.9387,3.962,3.9697,3.9697,3.9697,3.9697,3.9697,3.9622,3.9597,3.9572,3.9496,3.922,3.8818,3.8768,3.8517,3.804,3.799,3.7889,3.7663,3.7563,3.7441,3.7195,3.7195,3.68,3.6062,3.6038,3.5745,3.4943,3.5478,3.5866,3.5979,3.5429,3.4604,3.3528,3.2726,3.1734,3.0416,3.0918,3.1387,3.1523,3.2207,3.2832,3.3269,3.373,3.4134,3.4394,3.4531,3.4961,3.5689,3.5825,3.5957,3.5982,3.6035,3.6035,3.6035,3.6094,3.6367,3.6973,3.7437,3.8023,3.8691,4.0034,4.1051,4.158,4.1899,4.1753,4.0918,4.1452,4.0781,4.0573,4.1428,4.2613,4.26,4.2304,4.2182,4.1865,4.148,4.0927,4.0808,4.0026,3.9511,3.9294,3.9467,3.9585,3.9523,3.9916,4.0185,4.0206,4.0593,4.082,4.0933,4.1552,4.2219,4.1832,4.3386,4.4809,5.3586,5.2014,5.0515,4.9379,4.8339,4.6007,4.4373,4.3315,4.2692,4.2212,4.1811,4.1453,4.1127,4.0755,3.9942,3.9599,3.9574,3.9192,3.9024,3.9024,3.9154,3.9206,3.9206,3.9231,3.9284,3.9465,3.9465,3.9568,3.9697,3.9697,3.9572,3.9346,3.932,3.9119,3.8716,3.8716,3.8589,3.8411,3.8016,3.7742,3.7593,3.7468,3.712,3.665,3.6626,3.6525,3.6298,3.5882,3.585,3.6262,3.4803,3.3704,3.3225,3.2268,3.1489,3.0976,3.1259,3.1689,3.2187,3.2793,3.3203,3.3418,3.3828,3.429,3.4668,3.4941,3.5254,3.5644,3.5845,3.6035,3.6035,3.6035,3.6035,3.6035,3.6406,3.6855,3.7266,3.7754,3.8144,3.8569,3.9172,3.989,4.0693,4.078,4.0946,4.0848,4.1003,4.0666,4.0155,4.0727,4.0961,4.0066,3.9876,3.99,3.9947,3.9759,3.9622,3.9792,3.9616,3.9484,3.9637,3.9949,4.0102,3.9957,4.0261,4.0427,4.0268,4.0572,4.082,4.0912,4.1115,4.1347,4.1393,4.2317,4.3151,5.3946,5.2155,5.047,4.9141,4.7987,4.575,4.4363,4.3619,4.2822,4.2146,4.1638,4.1398,4.1003,4.0535,4.0022,3.9778,3.9731,3.9296,3.9077,3.9077,3.913,3.9083,3.8985,3.896,3.9069,3.9179,3.918,3.9309,3.949,3.9516,3.949,3.949,3.9516,3.9388,3.918,3.918,3.905,3.8765,3.8132,3.7789,3.7789,3.7562,3.7333,3.7104,3.7079,3.7041,3.6932,3.6088,3.5634,3.5667,3.3825,3.2685,3.2628,3.1576,3.1074,3.1435,3.1591,3.2031,3.2851,3.3242,3.3425,3.3555,3.3867,3.4258,3.4668,3.5137,3.543,3.5547,3.5806,3.6035,3.6035,3.6035,3.6035,3.604,3.6601,3.7031,3.7324,3.7891,3.8415,3.8552,3.8611,3.91,3.9901,3.9861,3.9865,4.0617,4.0797,4.0593,4.0562,3.9965,3.892,3.8133,3.7864,3.821,3.8066,3.8501,3.8859,3.9176,3.9587,3.9926,4.0265,4.0593,4.0572,4.0247,4.0344,4.0406,4.0282,4.0468,4.0752,4.0835,4.0796,4.0616,4.0951,4.12,4.1886,5.2934,5.1584,4.9943,4.7953,4.5926,4.4658,4.3929,4.3506,4.2994,4.2729,4.2474,4.1649,4.1191,4.1066,4.0564,4.0298,4.0302,4.0016,3.9858,3.9861,4.0128,3.9991,3.9523,3.9525,3.9281,3.8939,3.8916,3.8965,3.9018,3.8944,3.8893,3.8893,3.8893,3.8867,3.8841,3.8841,3.8815,3.8788,3.8507,3.8327,3.8327,3.8301,3.8146,3.7882,3.7882,3.7376,3.6464,3.619,3.5617,3.4614,3.3374,3.2657,3.2563,3.1547,3.1094,3.1523,3.1894,3.248,3.323,3.3398,3.3594,3.3965,3.4075,3.431,3.4687,3.5137,3.5566,3.5859,3.5962,3.6035,3.6035,3.6001,3.6021,3.6001,3.6177,3.6391,3.7148,3.7363,3.7695,3.8552,3.8591,3.8683,3.8879,3.8599,3.8205,3.8407,3.8452,3.8437,3.8627,3.8588,3.8434,3.8363,3.8495,3.853,3.8546,3.8843,3.9141,3.9522,3.9921,4.0254,4.0492,4.0468,4.0226,4.0102,3.9937,3.9916,4.0061,4.0282,4.0448,4.0814,4.0835,4.0835,4.0814,4.0493,4.0707,5.2561,5.0658,4.9412,4.7624,4.5688,4.5101,4.4383,4.3505,4.3289,4.291,4.2308,4.1851,4.1682,4.1634,4.0787,4.0403,4.0383,3.9964,3.9751,3.9751,3.9861,3.9819,3.9625,3.9601,3.9536,3.9504,3.9506,3.9587,3.9697,3.9427,3.9108,3.8813,3.8788,3.871,3.8579,3.8579,3.85,3.8342,3.8236,3.8159,3.8159,3.8183,3.813,3.8,3.8,3.7788,3.7173,3.5936,3.4891,3.4336,3.2636,3.1734,3.1994,3.1515,3.1562,3.2207,3.2676,3.3047,3.3367,3.3386,3.3613,3.4075,3.4329,3.4629,3.5078,3.5508,3.5825,3.5976,3.6035,3.6035,3.6035,3.625,3.6309,3.6157,3.6625,3.7109,3.6914,3.7617,3.8144,3.8223,3.8418,3.8611,3.8555,3.8418,3.8242,3.8066,3.8047,3.8105,3.8281,3.8301,3.8393,3.8557,3.8787,3.88,3.8662,3.8635,3.8978,3.9281,3.9475,3.978,4.0312,4.0386,4.0123,3.9875,3.9792,3.9751,3.9751,4.0323,4.0675,4.0862,4.0877,4.0773,4.0199,4.022,4.0716,5.2234,5.0338,4.8892,4.7358,4.5898,4.5753,4.5015,4.401,4.3962,4.3457,4.2663,4.2501,4.2399,4.226,4.1148,4.0619,4.0571,4.021,4.0042,4.0042,4.0042,3.997,3.985,3.9826,3.984,3.9885,3.9864,3.9974,4.0114,3.9824,3.9409,3.9067,3.9018,3.8912,3.8728,3.8604,3.8427,3.8217,3.807,3.8,3.8,3.8,3.8,3.8,3.8,3.7708,3.6989,3.5306,3.4056,3.3431,3.1888,3.1191,3.1474,3.1621,3.2031,3.2734,3.3152,3.3386,3.3386,3.3503,3.3789,3.4231,3.4551,3.4902,3.5332,3.5684,3.584,3.5806,3.5903,3.6035,3.6074,3.6406,3.6538,3.6309,3.7168,3.748,3.7187,3.791,3.8301,3.8164,3.8418,3.8611,3.8611,3.8591,3.8571,3.8552,3.8571,3.8611,3.8611,3.8591,3.8627,3.872,3.903,3.902,3.8759,3.8867,3.9002,3.9287,3.9561,3.9815,4.0189,4.0274,4.0164,3.9999,3.9957,3.9833,3.9668,4.0179,4.0696,4.082,4.0856,4.0675,4.0282,4.0551,4.0655,5.1633,5.0844,4.84,4.7053,4.6583,4.6135,4.5549,4.4917,4.4965,4.4676,4.4027,4.3571,4.3409,4.3241,4.1822,4.1177,4.1172,4.1153,4.11,4.1105,4.1105,4.0836,4.0379,4.0355,4.0114,3.9881,3.9881,3.9809,3.9737,3.9664,3.9589,3.9568,3.9523,3.9544,3.942,3.9038,3.8767,3.8743,3.8286,3.8024,3.8024,3.8024,3.8022,3.7942,3.7971,3.6955,3.5019,3.4497,3.3452,3.1219,3.1407,3.1494,3.1582,3.1934,3.2413,3.2793,3.3172,3.3386,3.3464,3.3809,3.4231,3.459,3.4726,3.4922,3.5391,3.5508,3.5547,3.5469,3.5859,3.6074,3.6113,3.6484,3.6734,3.6699,3.707,3.7519,3.7773,3.7855,3.8144,3.8379,3.8552,3.8611,3.8611,3.8611,3.8611,3.8611,3.8611,3.8611,3.8611,3.8611,3.872,3.8994,3.9139,3.9156,3.9172,3.927,3.965,3.9901,3.9912,4.03,4.0483,4.0572,4.0288,3.9978,3.9564,3.9378,3.9482,3.9751,4.022,4.0468,4.0717,4.0593,4.0199,4.0669,4.0773,5.0776,4.9322,4.8324,4.7452,4.6704,4.6511,4.5902,4.5133,4.5109,4.4604,4.3835,4.3601,4.3337,4.303,4.2477,4.2212,4.2212,4.2212,4.2043,4.1755,4.1706,4.161,4.1418,4.1076,4.1004,4.1153,4.1124,4.096,4.0595,4.0282,3.9922,3.9633,3.9609,3.9609,3.9561,3.9417,3.932,3.9272,3.8791,3.8527,3.8527,3.8527,3.8152,3.7368,3.7313,3.663,3.5279,3.4502,3.368,3.2849,3.2286,3.207,3.2344,3.2734,3.3027,3.3152,3.334,3.3555,3.3809,3.4016,3.4427,3.5059,3.5137,3.5312,3.565,3.5801,3.5801,3.5859,3.6191,3.6426,3.6538,3.6816,3.707,3.7168,3.7711,3.793,3.7734,3.7988,3.8301,3.8242,3.8415,3.8611,3.8611,3.8611,3.8611,3.8611,3.8611,3.8611,3.8611,3.8611,3.8683,3.8812,3.903,3.9176,3.9176,3.9482,3.9786,3.993,4.0074,4.0397,4.0636,4.0495,4.0282,4.0206,3.9626,3.9461,3.9771,3.9999,4.0323,4.0282,4.051,4.0344,4.0054,4.0303,4.0427,5.0084,4.8657,4.8397,4.7882,4.7233,4.704,4.6463,4.5662,4.5614,4.5085,4.4371,4.4106,4.3842,4.3529,4.3361,4.3265,4.3247,4.2958,4.2597,4.2284,4.226,4.226,4.2164,4.1706,4.173,4.2164,4.226,4.2067,4.1706,4.1148,4.0715,4.0403,4.021,4.0114,4.009,3.9946,3.985,3.9753,3.9317,3.9053,3.908,3.908,3.8331,3.7025,3.6765,3.6239,3.5168,3.4336,3.3683,3.3335,3.2722,3.2559,3.2969,3.3262,3.3464,3.3594,3.3464,3.3672,3.418,3.431,3.4609,3.5312,3.5527,3.5742,3.5996,3.6035,3.6035,3.6094,3.6269,3.6523,3.689,3.7129,3.7344,3.7539,3.8144,3.8376,3.7832,3.8259,3.8379,3.8281,3.8418,3.8555,3.8611,3.8611,3.8611,3.8611,3.8611,3.8611,3.8611,3.8611,3.8611,3.8611,3.8829,3.8958,3.9067,3.9353,3.9822,4.0002,4.0166,4.0489,4.0678,4.0495,4.0386,4.0288,4.0185,4.004,4.0081,4.0309,4.0288,4.0185,4.004,3.9875,3.9792,3.9792,3.9916,4.9611,4.9022,4.8531,4.8267,4.8026,4.7593,4.7161,4.6623,4.6607,4.6199,4.5565,4.5229,4.4893,4.4869,4.434,4.4244,4.4027,4.3313,4.291,4.2789,4.2789,4.2789,4.2765,4.226,4.2284,4.2765,4.2765,4.2765,4.2693,4.2188,4.1899,4.1827,4.1317,4.1052,4.1153,4.0619,4.0403,4.0282,3.9874,3.9554,3.9581,3.9443,3.8408,3.6663,3.6434,3.569,3.4054,3.3914,3.3427,3.2559,3.2659,3.2988,3.3269,3.3386,3.3613,3.3919,3.3672,3.3887,3.457,3.4707,3.4922,3.541,3.5781,3.5976,3.6016,3.6035,3.6035,3.6035,3.6113,3.6387,3.709,3.7324,3.7519,3.7855,3.834,3.8552,3.8552,3.8591,3.8611,3.8571,3.8611,3.8611,3.8611,3.8611,3.8611,3.8611,3.8611,3.8611,3.8611,3.8611,3.8611,3.8611,3.8756,3.8921,3.9047,3.9208,3.9714,4.0166,4.031,4.0525,4.0775,4.0696,4.0675,4.0613,4.0489,4.0323,3.9895,4.0061,3.9957,3.9833,3.9668,3.944,3.9316,3.9275,3.944,4.9902,4.9143,4.895,4.8387,4.7762,4.7569,4.7209,4.6695,4.6704,4.6383,4.5854,4.5325,4.5109,4.4989,4.4556,4.4316,4.4292,4.3955,4.3649,4.3313,4.3289,4.3289,4.3192,4.2789,4.2784,4.3144,4.2958,4.2982,4.3174,4.2789,4.238,4.2019,4.1851,4.1562,4.122,4.1033,4.0932,4.0912,4.0427,3.9745,3.8904,3.8767,3.7627,3.5537,3.5531,3.5056,3.366,3.3567,3.3381,3.3008,3.3164,3.3281,3.3367,3.3386,3.3613,3.4016,3.3997,3.4258,3.5019,3.5176,3.5351,3.5742,3.5923,3.5982,3.6035,3.6035,3.6035,3.6074,3.6289,3.6753,3.7207,3.7578,3.7891,3.832,3.8532,3.8611,3.8611,3.8611,3.8611,3.8611,3.8611,3.8611,3.8611,3.8611,3.8611,3.8611,3.8611,3.8611,3.8611,3.865,3.8611,3.8611,3.8776,3.8977,3.9119,3.9409,3.9878,4.0274,4.0453,4.0596,4.0811,4.0918,4.0918,4.0841,4.0696,4.0448,4.0019,3.9771,3.973,3.944,3.9192,3.8965,3.8696,3.8799,3.9068,5.0311,4.9662,4.9263,4.8724,4.805,4.769,4.7329,4.7016,4.6992,4.6824,4.6431,4.5926,4.5686,4.5565,4.5133,4.4796,4.4628,4.4604,4.4316,4.3859,4.3787,4.3787,4.3763,4.3499,4.3337,4.3481,4.3409,4.3505,4.3739,4.3289,4.2856,4.2597,4.2212,4.1851,4.149,4.1268,4.1196,4.1095,4.0378,3.9533,3.8786,3.8238,3.6999,3.5257,3.5231,3.4694,3.3544,3.3386,3.3386,3.3425,3.3574,3.373,3.3867,3.3926,3.4101,3.4434,3.4486,3.4687,3.5469,3.5469,3.5566,3.5937,3.6172,3.6172,3.6113,3.6099,3.625,3.6309,3.6538,3.6894,3.7441,3.7754,3.8105,3.8571,3.8611,3.8611,3.8611,3.8611,3.8611,3.8611,3.8611,3.8611,3.8611,3.8611,3.8611,3.8611,3.8611,3.8611,3.865,3.8767,3.8747,3.8747,3.8935,3.9079,3.9195,3.9574,4.0058,4.0346,4.0596,4.074,4.0882,4.0918,4.0918,4.0918,4.0779,4.0551,4.0143,3.9854,3.9668,3.9254,3.8923,3.8923,3.8882,3.8778,3.8944,5.0672,5.0479,4.9517,4.8998,4.8724,4.7882,4.7473,4.7473,4.7473,4.7425,4.7305,4.68,4.6607,4.6535,4.595,4.5493,4.5229,4.5133,4.4917,4.4556,4.446,4.4436,4.4309,4.4196,4.3931,4.3715,4.4003,4.422,4.4196,4.3763,4.3499,4.3313,4.2591,4.2067,4.1971,4.1509,4.1235,4.0864,3.9849,3.92,3.8728,3.7812,3.6563,3.5294,3.518,3.4671,3.3705,3.3425,3.3386,3.3425,3.3789,3.4192,3.4531,3.4668,3.4805,3.5215,3.498,3.5293,3.5762,3.5801,3.5723,3.6094,3.6348,3.6519,3.6113,3.6289,3.6504,3.6616,3.6695,3.7012,3.7621,3.7874,3.8125,3.8513,3.8611,3.8611,3.8611,3.8611,3.8611,3.8611,3.8611,3.8611,3.8611,3.8611,3.8611,3.8611,3.8611,3.8611,3.8669,3.8767,3.8867,3.896,3.8975,3.9099,3.9232,3.9518,3.995,4.0351,4.0663,4.093,4.1069,4.1084,4.1084,4.1042,4.082,4.0593,4.0226,3.9854,3.9544,3.9213,3.9089,3.913,3.8985,3.8758,3.8696,5.0239,4.9493,4.9205,4.8661,4.7954,4.7593,4.7497,4.7497,4.7497,4.7497,4.7377,4.6944,4.6728,4.6655,4.6166,4.5806,4.571,4.5686,4.5638,4.5493,4.5469,4.5229,4.4869,4.4484,4.4244,4.4148,4.4244,4.4316,4.4285,4.4148,4.3859,4.3475,4.3216,4.291,4.2573,4.2067,4.1252,4.0368,3.9636,3.8261,3.6798,3.6524,3.5748,3.4588,3.4473,3.4282,3.3899,3.3594,3.3386,3.3425,3.3848,3.4153,3.4349,3.459,3.498,3.5332,3.5625,3.5879,3.6309,3.6401,3.6387,3.6445,3.6348,3.6133,3.6055,3.6133,3.6348,3.6597,3.6734,3.7031,3.7734,3.7913,3.8144,3.8476,3.8611,3.8611,3.8611,3.8611,3.8611,3.8611,3.8591,3.8571,3.8532,3.8571,3.8571,3.8571,3.8591,3.8611,3.8669,3.8747,3.8848,3.8821,3.8908,3.909,3.9268,3.9518,3.9863,4.0284,4.0683,4.1193,4.1333,4.1477,4.1457,4.1436,4.0924,4.0634,4.0102,3.9626,3.9378,3.9358,3.9027,3.8978,3.8647,3.8398,3.846,5.0335,4.9734,4.9552,4.8974,4.8171,4.793,4.7714,4.7521,4.7497,4.7497,4.7425,4.7185,4.704,4.6992,4.6695,4.6463,4.6271,4.6214,4.6094,4.5878,4.5854,4.5686,4.5349,4.4893,4.4652,4.4604,4.4436,4.4316,4.4316,4.4316,4.4124,4.3859,4.3595,4.3361,4.3102,4.2597,4.1983,4.1174,4.0326,3.8776,3.677,3.6206,3.5324,3.4384,3.4114,3.4173,3.4271,3.3926,3.3691,3.3789,3.4134,3.4446,3.4648,3.5019,3.5391,3.5664,3.6055,3.6348,3.6387,3.6543,3.6616,3.6445,3.6269,3.6328,3.6309,3.6289,3.6499,3.6875,3.6949,3.7266,3.7773,3.8086,3.8301,3.8571,3.8611,3.8611,3.8611,3.8611,3.8513,3.8379,3.8301,3.8223,3.8105,3.8203,3.8281,3.834,3.8476,3.8571,3.863,3.8711,3.8826,3.884,3.9079,3.9357,3.9589,3.9799,4.0266,4.0652,4.1202,4.1599,4.1771,4.1912,4.1705,4.156,4.1069,4.0613,4.0143,3.9854,3.9951,3.9744,3.9226,3.9081,3.904,3.8564,3.8564,5.0672,5.0576,5.0105,4.9576,4.895,4.8517,4.7954,4.7545,4.7497,4.7497,4.7473,4.7497,4.7425,4.7497,4.7329,4.7176,4.68,4.68,4.6503,4.631,4.619,4.6166,4.6094,4.5469,4.5229,4.5133,4.47,4.4532,4.4508,4.446,4.4364,4.4172,4.3787,4.3619,4.3505,4.3096,4.2826,4.2154,4.0823,3.9229,3.7508,3.6436,3.5392,3.4477,3.4355,3.4466,3.4512,3.4336,3.4173,3.4173,3.4551,3.4922,3.5351,3.5762,3.5923,3.6074,3.6387,3.6582,3.6269,3.6562,3.6582,3.6328,3.6504,3.6695,3.6675,3.6714,3.6894,3.7324,3.7363,3.7598,3.7969,3.8359,3.8552,3.8611,3.8611,3.8611,3.8611,3.8611,3.8418,3.8086,3.7991,3.7812,3.7676,3.7715,3.8027,3.834,3.8457,3.8571,3.865,3.8691,3.8828,3.8943,3.9296,3.9761,3.9951,4.0117,4.0686,4.1218,4.1858,4.2299,4.2361,4.2368,4.2016,4.1643,4.1007,4.0675,4.0448,4.0344,4.0303,4.0179,3.9682,4.0013,4.0303,3.944,3.9089,5.0455,5.0057,4.9961,4.9359,4.8531,4.8315,4.8002,4.7545,4.7521,4.7569,4.7497,4.7497,4.7497,4.7497,4.7497,4.7425,4.7305,4.7281,4.7257,4.7209,4.7161,4.7161,4.6944,4.619,4.5758,4.5686,4.5614,4.5325,4.5013,4.4845,4.47,4.4316,4.4196,4.4124,4.4027,4.3564,4.2821,4.1754,4.0197,3.8669,3.7191,3.6216,3.5369,3.4681,3.4883,3.4922,3.4726,3.4609,3.457,3.4668,3.498,3.5312,3.5449,3.5801,3.5962,3.6191,3.6719,3.6953,3.6699,3.6816,3.6953,3.6543,3.6558,3.6714,3.6734,3.6934,3.7285,3.7676,3.7757,3.791,3.832,3.8496,3.8611,3.8611,3.8611,3.8611,3.8611,3.8611,3.8532,3.8418,3.8359,3.8415,3.8262,3.8203,3.8359,3.8418,3.8476,3.8591,3.8669,3.8691,3.8828,3.8945,3.9197,3.9622,4.0011,4.0274,4.0893,4.1476,4.2159,4.258,4.27,4.27,4.2285,4.1607,4.0882,4.0675,4.0675,4.0185,4.0075,4.0075,4.0158,4.022,4.0199,3.973,3.9399,5.0527,5.0263,5.0263,4.9782,4.9143,4.9047,4.8758,4.8349,4.8276,4.8098,4.7906,4.7882,4.7738,4.7521,4.7497,4.7497,4.7497,4.7497,4.7497,4.7473,4.7473,4.7473,4.7449,4.6968,4.6527,4.6319,4.5974,4.5614,4.5229,4.5085,4.482,4.4364,4.4316,4.4292,4.4316,4.4003,4.3576,4.2856,4.126,3.9535,3.7944,3.6811,3.5825,3.5211,3.5273,3.5312,3.5351,3.5117,3.5156,3.5312,3.5527,3.5586,3.5488,3.5781,3.5996,3.6152,3.6816,3.6934,3.666,3.6875,3.7012,3.6426,3.6367,3.6504,3.6577,3.6738,3.6875,3.7266,3.7519,3.7851,3.8513,3.8611,3.8611,3.8611,3.8611,3.8611,3.8611,3.8611,3.8513,3.834,3.8203,3.8086,3.8086,3.8301,3.8301,3.8203,3.8496,3.8611,3.8611,3.8689,3.8809,3.8977,3.9112,3.9423,3.9894,4.0432,4.1063,4.1652,4.2237,4.2497,4.2575,4.2575,4.2456,4.1793,4.1193,4.1027,4.0944,4.0427,4.022,4.0634,4.0737,4.0365,4.0116,4.0061,3.9626,5.0696,5.0696,5.0696,5.0383,4.9937,4.9865,4.9528,4.9119,4.9119,4.8782,4.8435,4.8339,4.8002,4.769,4.7521,4.7497,4.7497,4.7497,4.7497,4.7497,4.7497,4.7497,4.7449,4.7353,4.7161,4.6767,4.6455,4.595,4.5565,4.5253,4.5133,4.4628,4.434,4.4436,4.4405,4.434,4.4182,4.3824,4.2628,4.1312,3.9812,3.8572,3.7341,3.6237,3.5575,3.5664,3.5781,3.5664,3.5625,3.5996,3.6035,3.582,3.5684,3.5781,3.6035,3.6055,3.6816,3.6836,3.6445,3.6738,3.6953,3.6133,3.6133,3.6309,3.6523,3.6562,3.668,3.6894,3.7285,3.7793,3.8493,3.8611,3.8611,3.8611,3.8611,3.8611,3.8611,3.8611,3.8418,3.8223,3.8242,3.8184,3.8047,3.8105,3.8047,3.8066,3.8379,3.863,3.863,3.8728,3.8887,3.9095,3.9253,3.94,3.981,4.0254,4.0904,4.162,4.2241,4.2518,4.2638,4.2849,4.2807,4.2265,4.1767,4.154,4.1172,4.0758,4.08,4.1353,4.1208,4.0655,4.051,4.053,3.9957,5.0696,5.0696,5.0696,5.0383,4.9961,4.9913,4.9648,4.9167,4.9191,4.9071,4.895,4.8541,4.8315,4.805,4.7666,4.7521,4.7521,4.7497,4.7497,4.7497,4.7497,4.7497,4.7497,4.7497,4.7425,4.7401,4.7161,4.6824,4.6343,4.603,4.5662,4.5421,4.4772,4.4556,4.47,4.458,4.4316,4.4154,4.3066,4.1928,4.1104,4.0014,3.8943,3.7578,3.6663,3.6135,3.6044,3.5991,3.5923,3.5982,3.6035,3.5976,3.5918,3.5942,3.5982,3.6191,3.6758,3.6855,3.6255,3.6758,3.6777,3.6348,3.6289,3.6519,3.6695,3.6855,3.6875,3.7148,3.75,3.7988,3.8532,3.8611,3.8611,3.8611,3.8611,3.8611,3.8611,3.8611,3.8591,3.8398,3.8398,3.8398,3.8262,3.8203,3.8262,3.8301,3.8474,3.8689,3.8747,3.8867,3.9082,3.9288,3.9493,3.9583,3.9726,4.0128,4.0668,4.1448,4.2089,4.2704,4.2948,4.3325,4.3201,4.2555,4.2016,4.1607,4.1296,4.1042,4.098,4.1167,4.1042,4.0918,4.0779,4.0675,4.051,5.0696,5.0696,5.0696,5.0551,5.0346,5.0311,5.0167,4.995,4.9926,4.9758,4.9504,4.9215,4.8806,4.8373,4.805,4.7786,4.7545,4.7497,4.7497,4.7497,4.7497,4.7497,4.7497,4.7497,4.7497,4.7473,4.7473,4.7257,4.6752,4.6463,4.6166,4.5734,4.5085,4.4869,4.4917,4.458,4.4364,4.4053,4.3293,4.2503,4.1917,4.0879,3.9779,3.9047,3.7875,3.7159,3.6924,3.6253,3.6016,3.5982,3.6035,3.6035,3.6035,3.6035,3.6035,3.6138,3.6621,3.6738,3.623,3.6601,3.6621,3.6138,3.625,3.6328,3.6367,3.6504,3.6855,3.7226,3.7422,3.7871,3.8496,3.8591,3.8611,3.8611,3.8611,3.8611,3.8611,3.8611,3.863,3.863,3.8552,3.8513,3.8571,3.8532,3.8591,3.8611,3.8611,3.8708,3.8789,3.9062,3.9297,3.9428,3.9576,3.9634,3.9798,4.0197,4.0702,4.142,4.2035,4.265,4.3056,4.3408,4.3221,4.2683,4.2207,4.1979,4.156,4.1332,4.1167,4.098,4.0939,4.0918,4.0918,4.08,4.0613,5.0696,5.0696,5.0696,5.0696,5.0696,5.0696,5.0696,5.0696,5.0672,5.0442,5.0105,4.9889,4.9335,4.8579,4.8171,4.7882,4.7497,4.7497,4.7497,4.7497,4.7497,4.7497,4.7497,4.7593,4.7642,4.7497,4.769,4.7377,4.6992,4.6728,4.6511,4.6214,4.5662,4.5253,4.5181,4.482,4.4556,4.4213,4.3742,4.3107,4.248,4.1409,4.0613,4.0387,3.9014,3.8009,3.7809,3.6674,3.6084,3.6035,3.6035,3.6021,3.6113,3.6074,3.6113,3.6289,3.6543,3.6387,3.6269,3.646,3.6523,3.604,3.6035,3.6035,3.6055,3.6191,3.6387,3.6992,3.7305,3.7617,3.8262,3.8552,3.8611,3.8611,3.8611,3.8611,3.8611,3.863,3.8672,3.8652,3.8591,3.8571,3.8591,3.8611,3.8611,3.8611,3.8611,3.8669,3.8826,3.9258,3.9492,3.9586,3.9659,3.9665,3.9895,4.0334,4.0906,4.1653,4.222,4.277,4.3118,4.3408,4.3139,4.2973,4.2973,4.2704,4.2145,4.156,4.1291,4.1084,4.098,4.0918,4.0918,4.082,4.0675,5.0696,5.0696,5.0696,5.0696,5.0696,5.0696,5.0696,5.0696,5.0696,5.0696,5.0503,5.0129,4.96,4.8868,4.7954,4.7617,4.7497,4.7497,4.7497,4.7497,4.7497,4.7497,4.7569,4.8036,4.7858,4.7714,4.7978,4.7858,4.7425,4.6992,4.6968,4.6944,4.6262,4.5782,4.5758,4.5181,4.5037,4.4909,4.441,4.407,4.3811,4.2696,4.2134,4.128,3.9703,3.8175,3.7942,3.6809,3.605,3.6035,3.6035,3.6211,3.6445,3.6211,3.6504,3.6777,3.6855,3.6484,3.6211,3.6367,3.6445,3.606,3.6035,3.6035,3.6035,3.6055,3.623,3.6714,3.707,3.75,3.8027,3.8379,3.8552,3.8611,3.8611,3.8611,3.8611,3.8611,3.8689,3.8711,3.8633,3.8591,3.8552,3.8591,3.8611,3.8611,3.863,3.8708,3.8962,3.9453,3.9824,3.994,3.9991,3.9998,4.0156,4.0563,4.1194,4.1922,4.2385,4.289,4.3221,4.3491,4.3532,4.3428,4.3449,4.3118,4.2311,4.1767,4.1436,4.1146,4.0959,4.0918,4.0918,4.08,4.0717,5.0696,5.0696,5.0696,5.0696,5.0696,5.0696,5.0696,5.0696,5.0696,5.0696,5.0672,5.0455,4.9878,4.8988,4.7978,4.7497,4.7497,4.7497,4.7497,4.7497,4.7497,4.7497,4.7617,4.8002,4.8098,4.805,4.8147,4.8171,4.781,4.7473,4.7329,4.7305,4.68,4.6367,4.619,4.5493,4.5181,4.4941,4.4621,4.4477,4.4448,4.3891,4.3043,4.2293,4.0279,3.9035,3.7909,3.6775,3.605,3.6035,3.6035,3.623,3.6445,3.6328,3.6309,3.6777,3.6523,3.6328,3.6367,3.6348,3.6191,3.6113,3.6035,3.6035,3.6035,3.6001,3.6191,3.6675,3.7051,3.748,3.7855,3.832,3.8496,3.8611,3.8611,3.8611,3.8611,3.8611,3.865,3.8672,3.873,3.8672,3.8552,3.8281,3.8457,3.8769,3.8848,3.8945,3.9336,3.9922,4.0215,4.0371,4.0384,4.0391,4.0609,4.0921,4.1536,4.2143,4.2467,4.2939,4.3387,4.3594,4.3573,4.3594,4.3553,4.3077,4.2373,4.2021,4.1747,4.1332,4.0918,4.0918,4.0918,4.0897,4.0779,5.0908,5.0837,5.0731,5.0696,5.0696,5.0696,5.0696,5.0696,5.0696,5.0696,5.0624,5.0383,4.9758,4.8988,4.805,4.7497,4.7497,4.7497,4.7497,4.7497,4.7497,4.7497,4.7714,4.8074,4.8435,4.8315,4.87,4.8555,4.8195,4.7906,4.7642,4.7497,4.7136,4.6824,4.6455,4.583,4.5277,4.482,4.4645,4.4645,4.4717,4.4621,4.3593,4.2394,4.0993,3.9668,3.8163,3.6742,3.6069,3.6035,3.6035,3.623,3.6523,3.6445,3.6562,3.6875,3.668,3.6504,3.6523,3.6445,3.6113,3.6035,3.6035,3.6035,3.6035,3.6001,3.6191,3.6656,3.7051,3.748,3.7891,3.832,3.8552,3.8611,3.8611,3.8611,3.8611,3.8611,3.8689,3.8789,3.8848,3.8887,3.8613,3.8105,3.8242,3.8828,3.9062,3.9219,3.9707,4.0312,4.0527,4.0684,4.076,4.0829,4.1111,4.1449,4.1988,4.2327,4.2614,4.2967,4.3356,4.3473,4.3408,4.347,4.3556,4.3118,4.2456,4.2306,4.2078,4.156,4.1125,4.0959,4.0918,4.0897,4.0862,5.1516,5.1141,5.0837,5.0696,5.0696,5.0696,5.0696,5.0696,5.0696,5.0696,5.0576,4.9758,4.9311,4.882,4.8074,4.7497,4.7497,4.7497,4.7497,4.7497,4.7497,4.7497,4.7786,4.8291,4.8748,4.8565,4.9047,4.9047,4.8541,4.8243,4.7906,4.7545,4.7401,4.7112,4.6704,4.6094,4.5301,4.4869,4.4724,4.4621,4.4645,4.4527,4.3978,4.239,4.1282,4.0079,3.8183,3.6708,3.6035,3.6035,3.6035,3.623,3.6577,3.6597,3.6855,3.7187,3.6929,3.6792,3.6816,3.6445,3.6094,3.6035,3.6035,3.6035,3.6035,3.6035,3.625,3.6656,3.7051,3.7461,3.7891,3.8281,3.8571,3.8611,3.8611,3.8611,3.8611,3.8611,3.8672,3.8867,3.8945,3.8945,3.8984,3.8516,3.8555,3.9121,3.9492,3.9648,4.0039,4.0508,4.0781,4.0937,4.1132,4.1286,4.1595,4.196,4.2165,4.233,4.2558,4.2908,4.3304,4.3297,4.3235,4.3394,4.3459,4.3018,4.27,4.2555,4.2265,4.1726,4.1332,4.1146,4.0882,4.0758,4.082,5.1352,5.1176,5.0873,5.0696,5.0696,5.0696,5.0696,5.0696,5.0696,5.0696,5.0624,4.9648,4.9119,4.8772,4.8026,4.7497,4.7497,4.7497,4.7497,4.7497,4.7497,4.7497,4.7882,4.8339,4.8854,4.8628,4.9311,4.9576,4.8902,4.8483,4.8243,4.7954,4.7666,4.7449,4.7016,4.6335,4.5517,4.4965,4.4676,4.4453,4.446,4.4312,4.3482,4.1154,4.0843,3.916,3.7146,3.6389,3.6084,3.6035,3.6035,3.6269,3.6597,3.6675,3.6973,3.7402,3.6968,3.689,3.6871,3.6406,3.6055,3.6035,3.6035,3.6035,3.6035,3.6001,3.625,3.6621,3.707,3.7519,3.7891,3.8301,3.8611,3.8611,3.8611,3.8611,3.8611,3.8611,3.863,3.8769,3.8887,3.8965,3.9023,3.9023,3.918,3.9434,3.9785,4.0117,4.0469,4.0723,4.0937,4.1093,4.1249,4.1405,4.1657,4.1966,4.2216,4.2328,4.2439,4.267,4.2961,4.3116,4.3096,4.3272,4.3404,4.3191,4.296,4.2828,4.2373,4.1726,4.1436,4.1291,4.1007,4.0758,4.0779,5.1656,5.1516,5.119,5.0908,5.0696,5.0696,5.0696,5.0696,5.0696,5.0576,5.0383,4.9528,4.8964,4.8628,4.7954,4.7497,4.7497,4.7497,4.7497,4.7497,4.7497,4.7497,4.781,4.8243,4.8758,4.87,4.9143,4.9408,4.9335,4.8628,4.8339,4.8098,4.7786,4.7521,4.7281,4.6623,4.5806,4.5157,4.4765,4.4405,4.4388,4.4415,4.3105,4.0886,4.0454,3.8973,3.7038,3.605,3.605,3.6035,3.6055,3.6172,3.6406,3.6656,3.6871,3.6929,3.691,3.6753,3.6734,3.6348,3.6055,3.6035,3.6035,3.6035,3.6001,3.6099,3.6519,3.6855,3.7266,3.7656,3.8011,3.8418,3.8611,3.8611,3.8611,3.8611,3.8611,3.8611,3.8611,3.8669,3.8767,3.8828,3.9043,3.918,3.9668,3.9844,4.0078,4.041,4.0742,4.0957,4.1055,4.121,4.1308,4.1483,4.1638,4.1695,4.1792,4.1982,4.2056,4.2191,4.2423,4.2616,4.2792,4.2851,4.3001,4.3228,4.3156,4.2926,4.2319,4.1664,4.1477,4.1353,4.1338,4.111,4.0903,5.2619,5.2342,5.1925,5.1365,5.0767,5.0696,5.0696,5.0696,5.0696,5.0431,4.9985,4.9335,4.883,4.8339,4.7762,4.7521,4.7497,4.7497,4.7497,4.7497,4.7497,4.7497,4.769,4.8098,4.8541,4.8974,4.9215,4.9456,4.972,4.8868,4.8459,4.8325,4.8002,4.7569,4.7473,4.6935,4.6142,4.5301,4.5181,4.4845,4.4604,4.4765,4.3171,4.1049,4.0509,3.9124,3.6787,3.6035,3.6035,3.6035,3.6035,3.6074,3.6133,3.6538,3.6734,3.6753,3.6753,3.689,3.7129,3.6445,3.6133,3.6035,3.6035,3.6035,3.6113,3.6367,3.6773,3.709,3.7559,3.8027,3.834,3.8591,3.8611,3.8611,3.8611,3.8611,3.8611,3.8611,3.8611,3.8611,3.8611,3.8689,3.8982,3.9297,3.9961,4.0293,4.0449,4.0703,4.0996,4.1132,4.1191,4.125,4.1288,4.1327,4.1405,4.1288,4.1366,4.1558,4.1711,4.1808,4.1902,4.2074,4.2249,4.2388,4.2657,4.2943,4.3011,4.2998,4.2592,4.2186,4.1622,4.1436,4.1498,4.1415,4.1104,5.2515,5.2377,5.1995,5.1681,5.1365,5.0908,5.0696,5.0696,5.0672,5.0383,4.9865,4.9335,4.883,4.8267,4.7786,4.7497,4.7497,4.7497,4.7497,4.7497,4.7497,4.7497,4.7642,4.793,4.8219,4.8291,4.8603,4.906,4.9335,4.882,4.9119,4.9095,4.8373,4.7858,4.7449,4.7016,4.6407,4.6175,4.583,4.5397,4.4941,4.48,4.3548,4.0442,4.0432,3.8928,3.6307,3.6035,3.6035,3.6035,3.6035,3.6035,3.6094,3.6406,3.6675,3.6695,3.6695,3.6753,3.6836,3.6523,3.6328,3.6172,3.6035,3.6035,3.6074,3.6426,3.6871,3.7285,3.7734,3.8144,3.8493,3.8591,3.8611,3.8611,3.8611,3.8611,3.8611,3.8611,3.8611,3.8611,3.8611,3.9002,3.9297,3.9375,3.9922,4.0508,4.0684,4.084,4.1094,4.1172,4.1211,4.1211,4.125,4.1211,4.1211,4.1211,4.1211,4.1346,4.1385,4.1404,4.1519,4.1651,4.1788,4.2005,4.2331,4.2598,4.2764,4.2891,4.3112,4.287,4.189,4.1348,4.1415,4.1291,4.1022,5.2585,5.2525,5.2169,5.1871,5.1619,5.1038,5.0723,5.0559,5.0285,4.9926,4.9552,4.9071,4.8507,4.8026,4.769,4.7497,4.7497,4.7497,4.7497,4.7497,4.7497,4.7497,4.7642,4.7834,4.7978,4.793,4.8171,4.8628,4.9119,4.8892,4.9036,4.9143,4.8782,4.8171,4.7714,4.7353,4.6872,4.6631,4.6271,4.5902,4.5382,4.4625,4.3267,4.1153,3.9786,3.8462,3.6734,3.6035,3.6035,3.6035,3.6035,3.6035,3.6133,3.625,3.6465,3.6445,3.6758,3.6792,3.6773,3.6929,3.6738,3.6582,3.625,3.6113,3.6269,3.6734,3.6973,3.7363,3.7793,3.8164,3.8493,3.8571,3.8611,3.8611,3.8611,3.8611,3.8611,3.8611,3.8611,3.8611,3.8669,3.9101,3.9512,3.9648,3.9824,4.0391,4.0898,4.1035,4.1191,4.1191,4.1211,4.1211,4.1211,4.1211,4.1211,4.1211,4.1211,4.1211,4.1211,4.1211,4.123,4.1423,4.1521,4.1618,4.1946,4.2273,4.2538,4.2741,4.2672,4.2239,4.1465,4.1182,4.1322,4.1234,4.1053,5.287,5.2836,5.25,5.2039,5.1489,5.1048,5.0671,5.0302,4.9497,4.9167,4.9047,4.8531,4.8098,4.7617,4.7497,4.7497,4.7497,4.7497,4.7497,4.7497,4.7497,4.7497,4.7497,4.7569,4.7762,4.7882,4.8026,4.8243,4.8926,4.8854,4.8844,4.8868,4.8555,4.8195,4.7906,4.7593,4.7185,4.692,4.6383,4.596,4.5352,4.4235,4.2601,4.0855,3.9513,3.8112,3.6748,3.6118,3.604,3.6021,3.6035,3.6035,3.6035,3.6035,3.6035,3.6269,3.6875,3.6855,3.6929,3.709,3.7246,3.709,3.6562,3.6465,3.6582,3.6949,3.7109,3.7441,3.7851,3.8164,3.8493,3.8496,3.8535,3.8555,3.8591,3.8591,3.8611,3.8611,3.8611,3.8611,3.8611,3.8904,3.9238,3.9453,3.9766,4.0351,4.084,4.1016,4.1152,4.1211,4.1211,4.1211,4.1211,4.1211,4.1211,4.1211,4.1211,4.1211,4.1211,4.1211,4.1211,4.125,4.1327,4.1483,4.1657,4.1907,4.2194,4.2165,4.19,4.1453,4.1319,4.0939,4.099,4.1363,4.1317,5.2669,5.2318,5.2225,5.1831,5.1297,5.0538,5.006,4.9801,4.9543,4.9165,4.8507,4.8363,4.7954,4.7521,4.7497,4.7497,4.7497,4.7497,4.7497,4.7497,4.7497,4.7497,4.7497,4.7497,4.7642,4.7642,4.769,4.7834,4.8469,4.8589,4.8579,4.8507,4.8411,4.8147,4.7858,4.7593,4.7401,4.7059,4.6433,4.5884,4.495,4.3746,4.2033,4.0499,3.9507,3.8081,3.6927,3.6484,3.6367,3.606,3.6021,3.6035,3.6035,3.6035,3.6094,3.6465,3.6758,3.6875,3.707,3.7226,3.7441,3.7598,3.7168,3.6836,3.691,3.7031,3.7207,3.7461,3.7907,3.8203,3.8203,3.8184,3.8203,3.8203,3.8301,3.8516,3.8535,3.8591,3.8591,3.8611,3.8611,3.8769,3.9101,3.9375,3.9726,4.0312,4.0723,4.0879,4.1074,4.1152,4.1211,4.1211,4.1211,4.1211,4.1211,4.1211,4.1211,4.1211,4.1211,4.1211,4.1211,4.1211,4.1211,4.1327,4.1502,4.1695,4.1927,4.1804,4.168,4.1851,4.1741,4.113,4.0752,4.1167,4.1382,5.2076,5.18,5.1774,5.1448,5.0863,5.0114,4.9636,4.941,4.9099,4.8676,4.8325,4.805,4.781,4.7545,4.7497,4.7497,4.7497,4.7497,4.7497,4.7497,4.7497,4.7497,4.7497,4.7497,4.7521,4.7497,4.7521,4.7666,4.8074,4.8507,4.8628,4.9047,4.8661,4.8122,4.7882,4.7666,4.7497,4.7184,4.6736,4.607,4.4967,4.3588,4.1899,4.0498,3.9674,3.8127,3.7182,3.6949,3.668,3.6348,3.6289,3.6172,3.6113,3.6001,3.623,3.6582,3.6894,3.7187,3.7461,3.7539,3.7793,3.7891,3.7637,3.7344,3.7305,3.7461,3.7305,3.7305,3.7793,3.8144,3.7949,3.7793,3.7773,3.7734,3.8086,3.8457,3.8496,3.8496,3.8535,3.8611,3.8708,3.8828,3.9062,3.9316,3.9609,4.0039,4.0351,4.0527,4.0801,4.1055,4.1172,4.1211,4.1211,4.1211,4.1211,4.1211,4.1211,4.1211,4.1211,4.1211,4.1211,4.1191,4.1191,4.1269,4.1405,4.1502,4.1618,4.1695,4.1672,4.1767,4.1626,4.0972,4.0738,4.1221,4.1301,5.1306,5.1197,5.1205,5.082,5.0318,4.9809,4.9414,4.904,4.8452,4.8128,4.8184,4.778,4.7578,4.753,4.7497,4.7497,4.7497,4.7497,4.7497,4.7497,4.7497,4.7497,4.7497,4.7497,4.7497,4.7497,4.7521,4.7569,4.7642,4.8002,4.8628,4.9624,4.8686,4.805,4.793,4.7666,4.7497,4.7398,4.7198,4.677,4.5773,4.4323,4.2557,4.1428,3.9646,3.7773,3.7441,3.7246,3.7109,3.6816,3.6577,3.6362,3.6152,3.6035,3.6289,3.6582,3.6914,3.7246,3.7519,3.7656,3.7969,3.8008,3.7812,3.7715,3.7773,3.7718,3.7539,3.7402,3.7812,3.7871,3.7734,3.7949,3.8027,3.7969,3.8144,3.8379,3.8437,3.8476,3.8591,3.865,3.8769,3.8926,3.9141,3.9414,3.9863,4.0019,4.0273,4.0488,4.0625,4.0976,4.1055,4.1172,4.1211,4.1211,4.1211,4.1211,4.1211,4.1211,4.1211,4.1035,4.0957,4.1016,4.1152,4.121,4.1327,4.125,4.1327,4.1424,4.1404,4.1188,4.0992,4.0603,4.0711,4.1256,4.1059,5.1021,5.0594,5.0167,4.9891,4.9791,4.964,4.9396,4.9072,4.8641,4.8321,4.8073,4.7934,4.7729,4.7563,4.7497,4.7497,4.7497,4.7497,4.7497,4.7497,4.7497,4.7497,4.7497,4.7497,4.7497,4.7497,4.7497,4.7521,4.7642,4.7762,4.7786,4.8074,4.7762,4.7762,4.7762,4.7497,4.7497,4.7497,4.7174,4.6248,4.4607,4.2718,4.0823,3.9958,3.8485,3.8164,3.7812,3.7461,3.7129,3.6738,3.6328,3.6133,3.6035,3.6035,3.6269,3.6601,3.689,3.7148,3.7383,3.7578,3.7812,3.7988,3.7949,3.8125,3.8164,3.7991,3.7835,3.7734,3.7676,3.7656,3.7598,3.793,3.822,3.8144,3.8184,3.8262,3.8379,3.8513,3.8611,3.873,3.8887,3.9082,3.9297,3.9609,4.0059,4.043,4.0781,4.0957,4.0859,4.1016,4.0996,4.1074,4.1191,4.1211,4.1172,4.1172,4.1172,4.1172,4.1172,4.0957,4.0762,4.0703,4.0723,4.1074,4.1211,4.1132,4.1113,4.125,4.1152,4.0937,4.0898,4.0762,4.0877,4.1298,4.0875,5.0343,5.0017,4.9741,4.959,4.959,4.959,4.9493,4.9299,4.8967,4.8608,4.8248,4.796,4.7729,4.763,4.7563,4.7497,4.7497,4.7497,4.7497,4.7497,4.7497,4.7497,4.7497,4.7497,4.7497,4.7497,4.7521,4.7569,4.7714,4.7617,4.7593,4.769,4.7666,4.7497,4.7497,4.7497,4.7497,4.7464,4.7008,4.5685,4.3828,4.2473,4.158,4.0586,3.9382,3.8757,3.8203,3.7812,3.7383,3.6973,3.6582,3.6406,3.6426,3.6562,3.6719,3.6894,3.7012,3.7051,3.7246,3.7422,3.7598,3.7832,3.8125,3.834,3.834,3.8184,3.7754,3.7656,3.8105,3.8144,3.7226,3.7207,3.7383,3.7402,3.7832,3.8164,3.8359,3.8571,3.873,3.8965,3.918,3.9434,3.9609,3.9766,4.0156,4.041,4.082,4.0742,4.0762,4.0976,4.0957,4.0976,4.1093,4.0976,4.082,4.0918,4.1093,4.1055,4.1016,4.0879,4.0644,4.0391,4.0332,4.0586,4.0781,4.084,4.0859,4.1074,4.1191,4.1113,4.1132,4.1152,4.1249,4.1248,4.0813,4.964,4.959,4.959,4.959,4.959,4.9515,4.9464,4.94,4.9035,4.8769,4.8526,4.7847,4.7755,4.7729,4.7729,4.7597,4.7497,4.7497,4.7497,4.7497,4.7497,4.7497,4.7497,4.7497,4.7497,4.7497,4.7497,4.7738,4.7978,4.7738,4.7666,4.8002,4.7834,4.7497,4.7497,4.7497,4.7497,4.7265,4.6774,4.5955,4.4846,4.3725,4.2613,4.1453,4.0284,3.8793,3.8437,3.8144,3.7715,3.7226,3.6738,3.6484,3.6543,3.6719,3.6816,3.6934,3.7109,3.7129,3.7226,3.7383,3.7656,3.7949,3.8262,3.834,3.8281,3.8125,3.7695,3.7637,3.8122,3.8008,3.709,3.6797,3.6953,3.7262,3.7793,3.8147,3.8398,3.8669,3.8906,3.916,3.9414,3.9687,3.9902,4.0039,4.0195,4.043,4.0449,4.0254,4.0254,4.0644,4.0859,4.0859,4.0918,4.0781,4.0605,4.0605,4.0762,4.0762,4.0703,4.0644,4.0527,4.0234,4.0059,4.0059,4.0234,4.0508,4.0742,4.0976,4.1074,4.1191,4.1211,4.1211,4.1172,4.1093,4.08,4.959,4.959,4.959,4.959,4.9515,4.9113,4.8969,4.8805,4.8081,4.8074,4.8441,4.8026,4.7686,4.763,4.7861,4.7747,4.7476,4.7467,4.7473,4.7497,4.7563,4.753,4.753,4.7597,4.7497,4.7497,4.7497,4.7569,4.7786,4.7642,4.7545,4.7666,4.7642,4.7497,4.7497,4.7497,4.7464,4.7232,4.7132,4.6607,4.5731,4.4114,4.1594,4.0463,3.955,3.8865,3.8457,3.8144,3.7734,3.7207,3.666,3.6348,3.6426,3.666,3.6738,3.6758,3.6953,3.6973,3.7012,3.7031,3.7226,3.7676,3.7812,3.7617,3.7695,3.793,3.748,3.7066,3.7359,3.748,3.6992,3.7308,3.7559,3.7988,3.8496,3.8516,3.8613,3.8828,3.9043,3.9277,3.9492,3.9844,4.0195,4.0273,4.0273,4.0469,4.0586,4.041,4.0273,4.0508,4.0723,4.0625,4.0605,4.0723,4.0605,4.0293,4.0332,4.0351,4.0332,4.0234,4.0137,4.0039,3.9902,3.9687,4.0,4.0391,4.0625,4.0742,4.1054,4.1172,4.1191,4.1191,4.1172,4.1055,4.082]},{"header":{"parameterUnit":"m.s-1","parameterCategory":1,"la1":31.0,"la2":29.5877,"lo1":-88.7671,"lo2":-86.6584,"dy":0.0162,"dx":0.0185,"nx":115,"ny":88,"refTime":"2023-11-12T06:00:00:Z","depth":0,"parameterNumber":3,"parameterNumberName":"V-component_of_WINDS"},"data":[0.0,0.0,0.0,0.0,0.0,0.0,0.0,0.0,0.0,0.0,0.0,0.0,0.0,0.0,0.0,0.0,0.0,0.0,0.0,0.0,0.0,0.0,0.0,0.0,0.0,0.0,0.0,0.0,0.0,0.0,0.0,0.0,0.0,0.0,0.0,0.0,0.0,0.0,0.0,0.0,0.0,0.0,0.0,0.0,0.0,0.0,0.0,0.0,0.0,0.0,0.0,0.0,0.0,0.0,0.0,0.0,0.0,0.0,0.0,0.0,0.0,0.0,0.0,0.0,0.0,0.0,0.0,0.0,0.0,0.0,0.0,0.0,0.0,0.0,0.0,0.0,0.0,0.0,0.0,0.0,0.0,0.0,0.0,0.0,0.0,0.0,0.0,0.0,0.0,0.0,0.0,0.0,0.0,0.0,0.0,0.0,0.0,0.0,0.0,0.0,0.0,0.0,0.0,0.0,0.0,0.0,0.0,0.0,0.0,0.0,0.0,0.0,0.0,0.0,0.0,0.0,0.0,0.0,0.0,0.0,0.0,0.0,0.0,0.0,0.0,0.0,0.0,0.0,0.0,0.0,0.0,0.0,0.0,0.0,0.0,0.0,0.0,0.0,0.0,0.0,0.0,0.0,0.0,0.0,0.0,0.0,0.0,0.0,0.0,0.0,0.0,0.0,0.0,0.0,0.0,0.0,0.0,0.0,0.0,0.0,0.0,0.0,0.0,0.0,0.0,0.0,0.0,0.0,0.0,0.0,0.0,0.0,0.0,0.0,0.0,0.0,0.0,0.0,0.0,0.0,0.0,0.0,0.0,0.0,0.0,0.0,0.0,0.0,0.0,0.0,0.0,0.0,0.0,0.0,0.0,0.0,0.0,0.0,0.0,0.0,0.0,0.0,0.0,0.0,0.0,0.0,0.0,0.0,0.0,0.0,0.0,0.0,0.0,0.0,0.0,0.0,0.0,0.0,0.0,0.0,0.0,0.0,0.0,0.0,0.0,0.0,0.0,0.0,0.0,0.0,0.0,0.0,0.0,0.0,0.0,0.0,0.0,0.0,0.0,0.0,0.0,0.0,0.0,0.0,0.0,0.0,0.0,0.0,0.0,0.0,0.0,0.0,0.0,0.0,0.0,0.0,0.0,0.0,0.0,0.0,0.0,0.0,0.0,0.0,0.0,0.0,0.0,0.0,0.0,0.0,0.0,0.0,0.0,0.0,0.0,0.0,0.0,0.0,0.0,0.0,0.0,0.0,0.0,0.0,0.0,0.0,0.0,0.0,0.0,0.0,0.0,0.0,0.0,0.0,0.0,0.0,0.0,0.0,0.0,0.0,0.0,0.0,0.0,0.0,0.0,0.0,0.0,0.0,0.0,0.0,0.0,0.0,0.0,0.0,0.0,0.0,0.0,0.0,0.0,0.0,0.0,0.0,0.0,0.0,0.0,0.0,0.0,0.0,0.0,0.0,0.0,0.0,0.0,0.0,0.0,0.0,0.0,0.0,0.0,0.0,0.0,0.0,0.0,0.0,0.0,0.0,0.0,0.0,0.0,0.0,0.0,0.0,0.0,0.0,0.0,0.0,0.0,0.0,0.0,0.0,0.0,0.0,0.0,0.0,0.0,0.0,0.0,0.0,0.0,0.0,0.0,0.0,0.0,0.0,0.0,0.0,0.0,0.0,0.0,0.0,0.0,0.0,0.0,0.0,0.0,0.0,0.0,0.0,0.0,0.0,0.0,0.0,0.0,0.0,0.0,0.0,0.0,0.0,0.0,0.0,0.0,0.0,0.0,0.0,0.0,0.0,0.0,0.0,0.0,0.0,0.0,0.0,0.0,0.0,0.0,0.0,0.0,0.0,0.0,0.0,0.0,0.0,0.0,0.0,0.0,0.0,0.0,0.0,0.0,0.0,0.0,0.0,0.0,0.0,0.0,0.0,0.0,0.0,0.0,0.0,0.0,0.0,0.0,0.0,0.0,0.0,0.0,0.0,0.0,0.0,0.0,0.0,0.0,0.0,0.0,0.0,0.0,0.0,0.0,0.0,0.0,0.0,0.0,0.0,0.0,0.0,0.0,0.0,0.0,0.0,0.0,0.0,0.0,0.0,0.0,0.0,0.0,0.0,0.0,0.0,0.0,0.0,0.0,0.0,0.0,0.0,0.0,0.0,0.0,0.0,0.0,0.0,0.0,0.0,0.0,0.0,0.0,0.0,0.0,0.0,0.0,0.0,0.0,0.0,0.0,0.0,0.0,0.0,0.0,0.0,0.0,0.0,0.0,0.0,0.0,0.0,0.0,0.0,0.0,0.0,0.0,0.0,0.0,0.0,0.0,0.0,0.0,0.0,0.0,0.0,0.0,0.0,0.0,0.0,0.0,0.0,0.0,0.0,0.0,0.0,0.0,0.0,0.0,0.0,0.0,0.0,0.0,0.0,0.0,0.0,0.0,0.0,0.0,0.0,0.0,0.0,0.0,0.0,0.0,0.0,0.0,0.0,0.0,0.0,0.0,0.0,0.0,0.0,0.0,0.0,0.0,0.0,0.0,0.0,0.0,0.0,0.0,0.0,0.0,0.0,0.0,0.0,0.0,0.0,0.0,0.0,0.0,0.0,0.0,0.0,0.0,0.0,0.0,0.0,0.0,0.0,0.0,0.0,0.0,0.0,0.0,0.0,0.0,0.0,0.0,0.0,0.0,0.0,0.0,0.0,0.0,0.0,0.0,0.0,0.0,0.0,0.0,0.0,0.0,0.0,0.0,0.0,0.0,0.0,0.0,0.0,0.0,0.0,0.0,0.0,0.0,0.0,0.0,0.0,0.0,0.0,0.0,0.0,0.0,0.0,0.0,0.0,0.0,0.0,0.0,0.0,0.0,0.0,0.0,0.0,0.0,0.0,0.0,0.0,0.0,0.0,0.0,0.0,0.0,0.0,0.0,0.0,0.0,0.0,0.0,0.0,0.0,0.0,0.0,0.0,0.0,0.0,0.0,0.0,0.0,0.0,0.0,0.0,0.0,0.0,0.0,0.0,0.0,0.0,0.0,0.0,0.0,0.0,0.0,0.0,0.0,0.0,0.0,0.0,0.0,0.0,0.0,0.0,0.0,0.0,0.0,0.0,0.0,0.0,0.0,0.0,0.0,0.0,0.0,0.0,0.0,0.0,0.0,0.0,0.0,0.0,0.0,0.0,0.0,0.0,0.0,0.0,0.0,0.0,0.0,0.0,0.0,0.0,0.0,0.0,0.0,0.0,0.0,0.0,0.0,0.0,0.0,0.0,0.0,0.0,0.0,0.0,0.0,0.0,0.0,0.0,0.0,0.0,0.0,0.0,0.0,0.0,0.0,0.0,0.0,0.0,0.0,0.0,0.0,0.0,0.0,0.0,0.0,0.0,0.0,0.0,0.0,0.0,0.0,0.0,0.0,0.0,0.0,0.0,0.0,0.0,0.0,0.0,0.0,0.0,0.0,0.0,0.0,0.0,0.0,0.0,0.0,0.0,0.0,0.0,0.0,0.0,0.0,0.0,0.0,0.0,0.0,0.0,0.0,0.0,0.0,0.0,0.0,0.0,0.0,0.0,0.0,0.0,0.0,0.0,0.0,0.0,0.0,0.0,0.0,0.0,0.0,0.0,0.0,0.0,0.0,0.0,0.0,0.0,0.0,0.0,0.0,0.0,0.0,0.0,0.0,0.0,0.0,0.0,0.0,0.0,0.0,0.0,0.0,0.0,0.0,0.0,0.0,0.0,0.0,0.0,0.0,0.0,0.0,0.0,0.0,0.0,0.0,0.0,0.0,0.0,0.0,0.0,0.0,0.0,0.0,0.0,0.0,0.0,0.0,0.0,0.0,0.0,0.0,0.0,0.0,0.0,0.0,0.0,0.0,0.0,0.0,0.0,0.0,0.0,0.0,0.0,0.0,0.0,0.0,0.0,0.0,0.0,0.0,0.0,0.0,0.0,0.0,0.0,0.0,0.0,0.0,0.0,0.0,0.0,0.0,0.0,0.0,0.0,0.0,0.0,0.0,0.0,0.0,0.0,0.0,0.0,0.0,0.0,0.0,0.0,0.0,0.0,0.0,0.0,0.0,0.0,0.0,0.0,0.0,0.0,0.0,0.0,0.0,0.0,0.0,0.0,0.0,0.0,0.0,0.0,0.0,0.0,0.0,0.0,0.0,0.0,0.0,0.0,0.0,0.0,0.0,0.0,0.0,0.0,0.0,0.0,0.0,0.0,0.0,0.0,0.0,0.0,0.0,0.0,0.0,0.0,0.0,0.0,0.0,0.0,2.0605,0.0,0.0,0.0,0.0,0.0,0.0,0.0,0.0,0.0,0.0,0.0,0.0,0.0,0.0,0.0,0.0,0.0,0.0,0.0,0.0,0.0,0.0,0.0,0.0,0.0,0.0,0.0,0.0,0.0,0.0,0.0,0.0,0.0,0.0,0.0,0.0,0.0,0.0,0.0,0.0,0.0,0.0,0.0,0.0,0.0,0.0,0.0,0.0,0.0,0.0,0.0,0.0,0.0,0.0,0.0,0.0,0.0,0.0,0.0,0.0,0.0,0.0,0.0,0.0,0.0,0.0,0.0,0.0,0.0,0.0,0.0,0.0,0.0,0.0,0.0,0.0,0.0,0.0,0.0,0.0,0.0,0.0,0.0,0.0,0.0,0.0,0.0,0.0,0.0,0.0,0.0,0.0,0.0,0.0,0.0,0.0,0.0,0.0,0.0,0.0,0.0,0.0,0.0,0.0,0.0,0.0,0.0,0.0,0.0,0.0,2.168,2.121,2.121,2.0996,2.0625,0.0,0.0,0.0,0.0,0.0,0.0,0.0,0.0,0.0,0.0,0.0,0.0,0.0,0.0,0.0,0.0,0.0,0.0,0.0,0.0,0.0,0.0,0.0,0.0,0.0,0.0,0.0,0.0,0.0,0.0,0.0,0.0,0.0,0.0,0.0,0.0,0.0,0.0,0.0,0.0,0.0,0.0,0.0,0.0,0.0,0.0,0.0,0.0,0.0,0.0,0.0,0.0,0.0,0.0,0.0,0.0,0.0,0.0,0.0,0.0,0.0,0.0,0.0,0.0,0.0,0.0,0.0,0.0,0.0,0.0,0.0,0.0,0.0,0.0,0.0,0.0,0.0,0.0,0.0,0.0,0.0,0.0,0.0,0.0,0.0,0.0,0.0,0.0,0.0,0.0,0.0,0.0,0.0,0.0,0.0,0.0,0.0,0.0,0.0,0.0,0.0,0.0,0.0,0.0,0.0,0.0,0.0,0.0,0.0,0.0,0.0,0.0,2.1424,2.1328,2.0938,0.0,0.0,0.0,0.0,0.0,0.0,0.0,0.0,0.0,0.0,0.0,0.0,0.0,0.0,0.0,0.0,0.0,0.0,0.0,0.0,0.0,0.0,0.0,0.0,0.0,0.0,0.0,0.0,0.0,0.0,0.0,0.0,0.0,0.0,0.0,0.0,0.0,0.0,0.0,0.0,0.0,0.0,0.0,0.0,0.0,0.0,0.0,0.0,0.0,0.0,0.0,0.0,0.0,0.0,0.0,0.0,0.0,0.0,0.0,0.0,0.0,0.0,0.0,0.0,0.0,0.0,0.0,0.0,0.0,0.0,0.0,0.0,0.0,0.0,0.0,0.0,0.0,0.0,0.0,0.0,0.0,0.0,0.0,0.0,0.0,0.0,0.0,0.0,0.0,0.0,0.0,0.0,0.0,0.0,0.0,0.0,0.0,0.0,0.0,0.0,0.0,0.0,0.0,0.0,0.0,0.0,0.0,0.0,0.0,0.0,2.1445,2.1816,2.2187,0.0,2.1817,0.0,0.0,0.0,0.0,0.0,0.0,0.0,0.0,0.0,0.0,0.0,0.0,0.0,0.0,0.0,0.0,0.0,0.0,0.0,0.0,0.0,0.0,0.0,0.0,0.0,0.0,0.0,0.0,0.0,0.0,0.0,0.0,0.0,0.0,0.0,0.0,0.0,0.0,0.0,0.0,0.0,0.0,0.0,0.0,0.0,0.0,0.0,0.0,0.0,0.0,0.0,0.0,0.0,0.0,0.0,0.0,0.0,0.0,0.0,0.0,0.0,0.0,0.0,0.0,0.0,0.0,0.0,0.0,0.0,0.0,0.0,0.0,0.0,0.0,0.0,0.0,0.0,0.0,0.0,0.0,0.0,0.0,0.0,0.0,0.0,0.0,0.0,0.0,0.0,0.0,0.0,0.0,0.0,0.0,0.0,0.0,0.0,0.0,0.0,0.0,0.0,0.0,0.0,0.0,0.0,0.0,0.0,0.0,0.0,0.0,2.1699,2.1915,2.2051,2.207,0.0,0.0,0.0,0.0,0.0,0.0,0.0,0.0,0.0,0.0,0.0,0.0,0.0,0.0,0.0,0.0,0.0,0.0,0.0,0.0,0.0,0.0,0.0,0.0,0.0,0.0,0.0,0.0,0.0,0.0,0.0,0.0,0.0,0.0,0.0,0.0,0.0,0.0,0.0,0.0,0.0,0.0,0.0,0.0,0.0,0.0,0.0,0.0,0.0,0.0,0.0,0.0,0.0,0.0,0.0,0.0,0.0,0.0,0.0,0.0,0.0,0.0,0.0,0.0,0.0,0.0,0.0,0.0,0.0,0.0,0.0,0.0,0.0,0.0,0.0,0.0,0.0,0.0,0.0,0.0,0.0,0.0,0.0,0.0,0.0,0.0,0.0,0.0,0.0,0.0,0.0,0.0,0.0,0.0,0.0,0.0,0.0,0.0,0.0,0.0,0.0,0.0,0.0,0.0,0.0,0.0,0.0,0.0,0.0,0.0,2.1876,2.2005,2.1913,2.2121,2.1966,2.137,0.0,0.0,0.0,0.0,0.0,0.0,0.0,0.0,0.0,0.0,0.0,0.0,0.0,0.0,0.0,0.0,0.0,0.0,0.0,0.0,0.0,0.0,0.0,0.0,0.0,0.0,0.0,0.0,0.0,0.0,0.0,0.0,0.0,0.0,0.0,0.0,0.0,0.0,0.0,0.0,0.0,0.0,0.0,0.0,0.0,0.0,0.0,0.0,0.0,0.0,0.0,0.0,0.0,0.0,0.0,0.0,0.0,0.0,0.0,0.0,0.0,0.0,0.0,0.0,0.0,0.0,0.0,0.0,0.0,0.0,0.0,0.0,0.0,0.0,0.0,0.0,0.0,0.0,0.0,0.0,0.0,0.0,0.0,0.0,0.0,0.0,0.0,0.0,0.0,0.0,0.0,0.0,0.0,0.0,0.0,0.0,0.0,0.0,0.0,0.0,0.0,0.0,0.0,0.0,0.0,0.0,0.0,0.0,2.3496,2.2871,2.2311,2.1972,2.2692,2.2157,0.0,0.0,0.0,0.0,0.0,0.0,0.0,0.0,0.0,0.0,0.0,0.0,0.0,0.0,0.0,0.0,0.0,0.0,0.0,0.0,0.0,0.0,0.0,0.0,0.0,0.0,0.0,0.0,0.0,0.0,0.0,0.0,0.0,0.0,0.0,0.0,0.0,0.0,0.0,0.0,0.0,0.0,0.0,0.0,0.0,0.0,0.0,0.0,0.0,0.0,0.0,0.0,0.0,0.0,0.0,0.0,0.0,0.0,0.0,0.0,0.0,0.0,0.0,0.0,0.0,0.0,0.0,0.0,0.0,0.0,0.0,0.0,0.0,0.0,0.0,0.0,0.0,0.0,0.0,0.0,0.0,0.0,0.0,0.0,0.0,0.0,0.0,0.0,0.0,0.0,0.0,0.0,0.0,0.0,0.0,0.0,0.0,0.0,0.0,0.0,0.0,0.0,0.0,0.0,0.0,0.0,0.0,0.0,0.0,2.2539,2.2519,2.2838,2.346,2.278,2.212,0.0,0.0,0.0,0.0,0.0,0.0,0.0,0.0,0.0,0.0,0.0,0.0,0.0,0.0,0.0,0.0,0.0,0.0,0.0,0.0,0.0,0.0,0.0,0.0,0.0,0.0,0.0,0.0,0.0,0.0,0.0,0.0,0.0,0.0,0.0,0.0,0.0,0.0,0.0,0.0,0.0,0.0,0.0,0.0,0.0,0.0,0.0,0.0,0.0,0.0,0.0,0.0,0.0,0.0,0.0,0.0,0.0,0.0,0.0,0.0,0.0,0.0,0.0,0.0,0.0,0.0,0.0,0.0,0.0,0.0,0.0,0.0,0.0,0.0,0.0,0.0,0.0,0.0,0.0,0.0,0.0,0.0,0.0,0.0,0.0,0.0,0.0,0.0,0.0,0.0,0.0,0.0,0.0,0.0,0.0,0.0,0.0,0.0,0.0,0.0,0.0,0.0,0.0,0.0,0.0,0.0,0.0,0.0,0.0,2.2695,0.0,2.3343,2.3713,2.2817,2.1984,0.0,0.0,0.0,0.0,0.0,0.0,0.0,0.0,0.0,0.0,0.0,0.0,0.0,0.0,0.0,0.0,0.0,0.0,0.0,0.0,0.0,0.0,0.0,0.0,0.0,0.0,0.0,0.0,0.0,0.0,0.0,0.0,0.0,0.0,0.0,0.0,0.0,0.0,0.0,0.0,0.0,0.0,0.0,0.0,0.0,0.0,0.0,0.0,0.0,0.0,0.0,0.0,0.0,0.0,0.0,0.0,0.0,0.0,0.0,0.0,0.0,0.0,0.0,0.0,0.0,0.0,0.0,0.0,0.0,0.0,0.0,0.0,0.0,0.0,0.0,0.0,0.0,0.0,0.0,0.0,0.0,0.0,0.0,0.0,0.0,0.0,0.0,0.0,0.0,0.0,0.0,0.0,0.0,0.0,0.0,0.0,0.0,0.0,0.0,0.0,0.0,0.0,0.0,0.0,0.0,0.0,0.0,0.0,2.3084,2.4231,2.4293,2.371,2.2574,2.2837,2.169,0.0,0.0,0.0,0.0,0.0,0.0,0.0,0.0,0.0,0.0,0.0,0.0,0.0,0.0,0.0,0.0,0.0,0.0,0.0,0.0,0.0,0.0,0.0,0.0,0.0,0.0,0.0,0.0,0.0,0.0,0.0,0.0,0.0,0.0,0.0,0.0,0.0,0.0,0.0,0.0,0.0,0.0,0.0,0.0,0.0,0.0,0.0,0.0,0.0,0.0,0.0,0.0,0.0,0.0,0.0,0.0,0.0,0.0,0.0,0.0,0.0,0.0,0.0,0.0,0.0,0.0,0.0,0.0,0.0,0.0,0.0,0.0,0.0,0.0,0.0,0.0,0.0,0.0,0.0,0.0,0.0,0.0,0.0,0.0,0.0,0.0,0.0,0.0,0.0,0.0,0.0,0.0,0.0,0.0,0.0,0.0,0.0,0.0,0.0,0.0,0.0,0.0,0.0,0.0,0.0,0.0,0.0,0.0,0.0,2.1773,2.2894,2.3187,2.2485,2.232,2.1985,0.0,0.0,0.0,0.0,0.0,0.0,0.0,0.0,0.0,0.0,0.0,0.0,0.0,0.0,0.0,0.0,0.0,0.0,0.0,0.0,0.0,0.0,0.0,0.0,0.0,0.0,0.0,0.0,0.0,0.0,0.0,0.0,0.0,0.0,0.0,0.0,0.0,0.0,0.0,0.0,0.0,0.0,0.0,0.0,0.0,0.0,0.0,0.0,0.0,0.0,0.0,0.0,0.0,0.0,0.0,0.0,0.0,0.0,0.0,0.0,0.0,0.0,0.0,0.0,0.0,0.0,0.0,0.0,0.0,0.0,0.0,0.0,0.0,0.0,0.0,0.0,0.0,0.0,0.0,0.0,0.0,0.0,0.0,0.0,0.0,0.0,0.0,0.0,0.0,0.0,0.0,0.0,0.0,0.0,0.0,0.0,0.0,0.0,0.0,0.0,0.0,0.0,0.0,0.0,0.0,0.0,0.0,0.0,0.0,2.0297,2.2569,2.3637,2.3168,2.2651,2.2168,2.1777,0.0,0.0,0.0,0.0,0.0,0.0,0.0,0.0,0.0,0.0,0.0,0.0,0.0,0.0,0.0,0.0,0.0,0.0,0.0,0.0,0.0,0.0,0.0,0.0,0.0,0.0,0.0,0.0,0.0,0.0,0.0,0.0,0.0,0.0,0.0,0.0,0.0,0.0,0.0,0.0,0.0,0.0,0.0,0.0,0.0,0.0,0.0,0.0,0.0,0.0,0.0,0.0,0.0,0.0,0.0,0.0,0.0,0.0,0.0,0.0,0.0,0.0,0.0,0.0,0.0,0.0,0.0,0.0,0.0,0.0,0.0,0.0,0.0,0.0,0.0,0.0,0.0,0.0,0.0,0.0,0.0,0.0,0.0,0.0,0.0,0.0,0.0,0.0,0.0,0.0,0.0,0.0,0.0,0.0,0.0,0.0,0.0,0.0,0.0,0.0,0.0,0.0,0.0,0.0,0.0,0.0,0.0,0.0,1.9747,2.3224,2.4754,2.4175,2.346,2.2344,0.0,0.0,0.0,0.0,0.0,0.0,0.0,0.0,0.0,0.0,0.0,0.0,0.0,0.0,0.0,0.0,0.0,0.0,0.0,0.0,0.0,0.0,0.0,0.0,0.0,0.0,0.0,0.0,0.0,0.0,0.0,0.0,0.0,0.0,0.0,0.0,0.0,0.0,0.0,0.0,0.0,0.0,0.0,0.0,0.0,0.0,0.0,0.0,0.0,0.0,0.0,0.0,0.0,0.0,0.0,0.0,0.0,0.0,0.0,0.0,0.0,0.0,0.0,0.0,0.0,0.0,0.0,0.0,0.0,0.0,0.0,0.0,0.0,0.0,0.0,0.0,0.0,0.0,0.0,0.0,0.0,0.0,0.0,0.0,0.0,0.0,0.0,0.0,0.0,0.0,0.0,0.0,0.0,0.0,0.0,0.0,0.0,0.0,0.0,0.0,0.0,0.0,0.0,0.0,0.0,0.0,0.0,0.0,0.0,2.2246,2.3744,2.3824,2.2263,2.2783,2.2615,0.0,0.0,0.0,0.0,0.0,0.0,0.0,0.0,0.0,0.0,0.0,0.0,0.0,0.0,0.0,0.0,0.0,0.0,0.0,0.0,0.0,0.0,0.0,0.0,0.0,0.0,0.0,0.0,0.0,0.0,0.0,0.0,0.0,0.0,0.0,0.0,0.0,0.0,0.0,0.0,0.0,0.0,0.0,0.0,0.0,0.0,0.0,0.0,0.0,0.0,0.0,0.0,0.0,0.0,0.0,0.0,0.0,0.0,0.0,0.0,0.0,0.0,0.0,0.0,0.0,0.0,0.0,0.0,0.0,0.0,0.0,0.0,0.0,0.0,0.0,0.0,0.0,0.0,0.0,0.0,0.0,0.0,0.0,0.0,0.0,0.0,0.0,0.0,0.0,0.0,0.0,0.0,0.0,0.0,0.0,0.0,0.0,0.0,0.0,0.0,0.0,0.0,0.0,0.0,0.0,0.0,0.0,0.0,2.2478,2.2444,2.3715,2.3556,2.1768,2.2651,2.2676,0.0,0.0,0.0,0.0,0.0,0.0,0.0,0.0,0.0,0.0,0.0,0.0,0.0,0.0,0.0,0.0,0.0,0.0,0.0,0.0,0.0,0.0,0.0,0.0,0.0,0.0,0.0,0.0,0.0,0.0,0.0,0.0,0.0,0.0,0.0,0.0,0.0,0.0,0.0,0.0,0.0,0.0,0.0,0.0,0.0,0.0,0.0,0.0,0.0,0.0,0.0,0.0,0.0,0.0,0.0,0.0,0.0,0.0,0.0,0.0,0.0,0.0,0.0,0.0,0.0,0.0,0.0,0.0,0.0,0.0,0.0,0.0,0.0,0.0,0.0,0.0,0.0,0.0,0.0,0.0,0.0,0.0,0.0,0.0,0.0,0.0,0.0,0.0,0.0,0.0,0.0,0.0,0.0,0.0,0.0,0.0,0.0,0.0,0.0,0.0,0.0,0.0,0.0,0.0,0.0,0.0,0.0,0.0,2.226,2.1717,2.3427,2.3725,2.2455,2.2894,2.2559,0.0,0.0,0.0,0.0,0.0,0.0,0.0,0.0,0.0,0.0,0.0,0.0,0.0,0.0,0.0,0.0,0.0,0.0,0.0,0.0,0.0,0.0,0.0,0.0,0.0,0.0,0.0,0.0,0.0,0.0,0.0,0.0,0.0,0.0,0.0,0.0,0.0,0.0,0.0,0.0,0.0,0.0,0.0,0.0,0.0,0.0,0.0,0.0,0.0,0.0,0.0,0.0,0.0,0.0,0.0,0.0,0.0,0.0,0.0,0.0,0.0,0.0,0.0,0.0,0.0,0.0,0.0,0.0,0.0,0.0,0.0,0.0,0.0,0.0,0.0,0.0,0.0,0.0,0.0,0.0,0.0,0.0,0.0,0.0,0.0,0.0,0.0,0.0,0.0,0.0,0.0,0.0,0.0,0.0,0.0,0.0,0.0,0.0,0.0,0.0,0.0,0.0,0.0,0.0,0.0,0.0,0.0,0.0,2.2916,2.2775,2.3518,2.3774,2.3474,2.3227,2.2518,0.0,0.0,0.0,0.0,0.0,0.0,0.0,0.0,0.0,0.0,0.0,0.0,0.0,0.0,0.0,0.0,0.0,0.0,0.0,0.0,0.0,0.0,0.0,0.0,0.0,0.0,0.0,0.0,0.0,0.0,0.0,0.0,0.0,0.0,0.0,0.0,0.0,0.0,0.0,0.0,0.0,0.0,0.0,0.0,0.0,0.0,0.0,0.0,3.796,0.0,0.0,0.0,0.0,0.0,0.0,0.0,0.0,0.0,0.0,0.0,0.0,0.0,0.0,0.0,0.0,0.0,0.0,0.0,0.0,0.0,0.0,0.0,0.0,0.0,0.0,0.0,0.0,0.0,0.0,0.0,0.0,0.0,0.0,0.0,0.0,0.0,0.0,0.0,0.0,0.0,0.0,0.0,0.0,0.0,0.0,0.0,0.0,0.0,0.0,0.0,0.0,0.0,0.0,0.0,0.0,0.0,0.0,0.0,2.2906,2.3081,2.3337,2.3496,2.3454,2.324,2.2615,0.0,0.0,0.0,0.0,0.0,0.0,0.0,0.0,0.0,0.0,0.0,0.0,0.0,0.0,0.0,0.0,0.0,0.0,0.0,0.0,0.0,0.0,0.0,0.0,0.0,0.0,0.0,0.0,0.0,0.0,0.0,0.0,0.0,0.0,0.0,0.0,0.0,0.0,0.0,0.0,0.0,0.0,0.0,0.0,0.0,0.0,0.0,0.0,0.0,0.0,0.0,0.0,0.0,0.0,0.0,0.0,0.0,0.0,0.0,0.0,0.0,0.0,0.0,0.0,0.0,0.0,0.0,0.0,0.0,0.0,0.0,0.0,0.0,0.0,0.0,0.0,0.0,0.0,0.0,0.0,0.0,0.0,0.0,0.0,0.0,0.0,0.0,0.0,0.0,0.0,0.0,0.0,0.0,0.0,0.0,0.0,0.0,0.0,0.0,0.0,0.0,0.0,0.0,0.0,0.0,0.0,0.0,2.2266,2.2635,2.3062,2.3101,2.3101,2.3101,2.3101,2.2713,2.1914,0.0,0.0,0.0,0.0,0.0,0.0,0.0,0.0,0.0,0.0,0.0,0.0,0.0,0.0,0.0,0.0,0.0,0.0,0.0,0.0,0.0,0.0,0.0,0.0,0.0,0.0,0.0,0.0,0.0,0.0,0.0,0.0,0.0,0.0,0.0,0.0,0.0,0.0,3.4923,3.6537,0.0,0.0,0.0,0.0,0.0,0.0,0.0,0.0,3.9649,0.0,0.0,0.0,0.0,0.0,0.0,0.0,0.0,0.0,0.0,0.0,0.0,0.0,0.0,0.0,0.0,0.0,0.0,0.0,0.0,0.0,0.0,0.0,0.0,0.0,0.0,0.0,0.0,0.0,0.0,0.0,0.0,0.0,0.0,0.0,0.0,0.0,0.0,0.0,0.0,0.0,0.0,0.0,0.0,0.0,0.0,0.0,0.0,0.0,0.0,0.0,0.0,0.0,0.0,0.0,0.0,2.2383,2.2129,2.2363,2.3081,2.3101,2.3101,2.3101,2.3101,2.2713,2.1954,0.0,0.0,0.0,0.0,0.0,0.0,0.0,0.0,0.0,0.0,0.0,0.0,0.0,0.0,0.0,0.0,0.0,0.0,0.0,0.0,0.0,0.0,0.0,0.0,0.0,0.0,0.0,0.0,0.0,0.0,0.0,0.0,0.0,0.0,0.0,0.0,0.0,0.0,0.0,3.8182,3.9361,0.0,0.0,0.0,0.0,0.0,0.0,0.0,0.0,4.0367,0.0,0.0,0.0,0.0,0.0,0.0,0.0,0.0,0.0,0.0,0.0,0.0,0.0,0.0,0.0,0.0,0.0,0.0,0.0,0.0,0.0,0.0,0.0,0.0,0.0,0.0,0.0,0.0,0.0,0.0,0.0,0.0,0.0,0.0,0.0,0.0,0.0,0.0,0.0,0.0,0.0,0.0,0.0,0.0,0.0,0.0,0.0,0.0,0.0,0.0,0.0,0.0,0.0,0.0,0.0,2.1523,2.2166,2.2713,2.3081,2.3101,2.3101,2.3081,2.2693,2.2186,0.0,0.0,0.0,0.0,0.0,0.0,0.0,0.0,0.0,0.0,0.0,0.0,0.0,0.0,0.0,0.0,0.0,0.0,0.0,0.0,0.0,0.0,0.0,0.0,0.0,0.0,0.0,0.0,0.0,0.0,0.0,0.0,0.0,0.0,0.0,0.0,0.0,0.0,0.0,0.0,3.8344,3.9631,4.0307,0.0,0.0,0.0,0.0,0.0,0.0,4.0397,4.0516,0.0,0.0,0.0,0.0,0.0,0.0,0.0,0.0,0.0,0.0,0.0,0.0,0.0,0.0,0.0,0.0,0.0,0.0,0.0,0.0,0.0,0.0,0.0,0.0,0.0,0.0,0.0,0.0,0.0,0.0,0.0,0.0,0.0,0.0,0.0,0.0,0.0,0.0,0.0,0.0,0.0,0.0,0.0,0.0,0.0,0.0,0.0,0.0,0.0,0.0,0.0,0.0,0.0,0.0,0.0,2.0781,2.2206,2.3042,2.324,2.3259,2.3179,2.3081,2.248,2.1855,0.0,0.0,0.0,0.0,0.0,0.0,0.0,0.0,0.0,0.0,0.0,0.0,0.0,0.0,0.0,0.0,0.0,0.0,0.0,0.0,0.0,0.0,0.0,0.0,0.0,0.0,0.0,0.0,0.0,0.0,0.0,0.0,0.0,0.0,0.0,0.0,0.0,0.0,0.0,0.0,0.0,4.0157,4.0546,4.0745,0.0,0.0,0.0,0.0,4.0745,4.1025,0.0,0.0,0.0,0.0,0.0,0.0,0.0,0.0,0.0,0.0,0.0,0.0,0.0,0.0,0.0,0.0,0.0,0.0,0.0,0.0,0.0,0.0,0.0,0.0,0.0,0.0,0.0,0.0,0.0,0.0,0.0,0.0,0.0,0.0,0.0,0.0,0.0,0.0,0.0,0.0,0.0,0.0,0.0,0.0,0.0,0.0,0.0,0.0,0.0,0.0,0.0,0.0,0.0,0.0,0.0,0.0,2.1132,2.2088,2.2949,2.3672,2.3711,2.3513,2.3101,2.3003,2.2399,0.0,0.0,0.0,0.0,0.0,0.0,0.0,0.0,0.0,0.0,0.0,0.0,0.0,0.0,0.0,0.0,0.0,0.0,0.0,0.0,0.0,0.0,0.0,0.0,0.0,0.0,0.0,0.0,0.0,0.0,0.0,0.0,0.0,0.0,0.0,0.0,0.0,0.0,0.0,0.0,0.0,4.1852,4.1343,4.1792,4.2331,0.0,0.0,4.2081,4.2171,4.309,0.0,0.0,0.0,0.0,0.0,0.0,0.0,0.0,0.0,0.0,0.0,0.0,0.0,0.0,0.0,0.0,0.0,0.0,0.0,0.0,0.0,0.0,0.0,0.0,0.0,0.0,0.0,0.0,0.0,0.0,0.0,0.0,0.0,0.0,0.0,0.0,0.0,0.0,0.0,0.0,0.0,0.0,0.0,0.0,0.0,0.0,0.0,0.0,0.0,0.0,0.0,0.0,0.0,0.0,0.0,2.0957,2.1621,2.2888,2.3747,2.4121,2.4141,2.3945,2.3516,2.3484,2.2856,0.0,0.0,0.0,0.0,0.0,0.0,0.0,0.0,0.0,0.0,0.0,0.0,0.0,0.0,0.0,0.0,0.0,0.0,0.0,0.0,0.0,0.0,0.0,0.0,0.0,0.0,0.0,0.0,0.0,0.0,0.0,0.0,0.0,0.0,0.0,0.0,0.0,0.0,0.0,0.0,0.0,0.0,4.2462,4.3379,0.0,0.0,0.0,4.303,4.3419,0.0,0.0,0.0,0.0,0.0,0.0,0.0,0.0,0.0,0.0,0.0,0.0,0.0,0.0,0.0,0.0,0.0,0.0,0.0,0.0,0.0,0.0,0.0,0.0,0.0,0.0,0.0,0.0,0.0,0.0,0.0,0.0,0.0,0.0,0.0,0.0,0.0,0.0,0.0,0.0,0.0,0.0,0.0,0.0,0.0,0.0,0.0,0.0,0.0,0.0,0.0,0.0,0.0,0.0,0.0,0.0,0.0,2.2051,2.3711,2.459,2.457,2.459,2.4513,2.4331,2.4248,0.0,0.0,0.0,0.0,0.0,0.0,0.0,0.0,0.0,0.0,0.0,0.0,0.0,0.0,0.0,0.0,0.0,0.0,0.0,0.0,0.0,0.0,0.0,0.0,0.0,0.0,0.0,3.1084,0.0,0.0,0.0,0.0,0.0,0.0,0.0,0.0,0.0,0.0,0.0,0.0,0.0,0.0,4.311,4.3728,4.4825,4.5484,0.0,0.0,4.3967,4.4446,4.4267,4.3609,0.0,0.0,0.0,0.0,0.0,0.0,0.0,0.0,0.0,0.0,0.0,0.0,0.0,0.0,0.0,0.0,0.0,0.0,0.0,0.0,0.0,0.0,0.0,0.0,0.0,0.0,0.0,0.0,0.0,0.0,0.0,0.0,0.0,0.0,0.0,0.0,0.0,0.0,0.0,0.0,0.0,0.0,0.0,0.0,0.0,0.0,0.0,0.0,0.0,0.0,0.0,0.0,0.0,0.0,0.0,2.25,2.4183,2.5067,2.5067,2.5043,2.5295,2.5725,2.5471,2.4787,0.0,0.0,0.0,0.0,0.0,0.0,0.0,0.0,0.0,0.0,0.0,0.0,0.0,0.0,0.0,0.0,0.0,0.0,0.0,0.0,0.0,0.0,0.0,0.0,0.0,0.0,0.0,0.0,0.0,0.0,0.0,0.0,0.0,0.0,0.0,0.0,0.0,0.0,0.0,0.0,0.0,4.4416,4.5095,4.5783,4.6659,0.0,0.0,4.5185,4.5244,4.5702,4.5044,4.1972,0.0,0.0,0.0,0.0,0.0,0.0,0.0,0.0,0.0,0.0,0.0,0.0,0.0,0.0,0.0,0.0,0.0,0.0,0.0,0.0,0.0,0.0,0.0,0.0,0.0,0.0,0.0,0.0,0.0,0.0,0.0,0.0,0.0,0.0,0.0,0.0,0.0,0.0,0.0,0.0,0.0,0.0,0.0,0.0,0.0,0.0,0.0,0.0,0.0,0.0,0.0,0.0,0.0,2.337,2.3815,2.6112,2.7329,2.7308,2.7446,2.7491,2.7429,2.7988,2.7337,0.0,0.0,0.0,0.0,0.0,0.0,0.0,0.0,0.0,0.0,0.0,0.0,0.0,0.0,0.0,0.0,0.0,0.0,0.0,0.0,0.0,0.0,0.0,0.0,0.0,0.0,0.0,0.0,3.3833,3.4319,3.447,0.0,0.0,0.0,0.0,0.0,0.0,0.0,0.0,0.0,0.0,4.6163,4.7194,4.7916,0.0,0.0,4.79,4.713,4.713,4.6659,4.5732,4.4047,4.312,0.0,0.0,0.0,0.0,0.0,0.0,0.0,0.0,0.0,0.0,0.0,0.0,0.0,0.0,0.0,0.0,0.0,0.0,0.0,0.0,0.0,0.0,0.0,0.0,0.0,0.0,0.0,0.0,0.0,0.0,0.0,0.0,0.0,0.0,0.0,0.0,0.0,0.0,0.0,0.0,0.0,0.0,0.0,0.0,0.0,0.0,0.0,0.0,0.0,0.0,0.0,0.0,2.5015,2.5424,2.774,2.8912,2.8935,2.905,2.9125,2.9172,2.9812,2.9295,0.0,0.0,0.0,0.0,0.0,0.0,0.0,0.0,0.0,0.0,0.0,0.0,0.0,0.0,0.0,0.0,0.0,0.0,0.0,0.0,0.0,0.0,0.0,0.0,0.0,0.0,0.0,0.0,3.4973,3.5277,3.5094,0.0,0.0,0.0,0.0,0.0,0.0,0.0,0.0,0.0,0.0,4.7782,4.8857,4.9581,4.9959,4.9855,4.9164,4.8699,4.8677,4.7832,4.686,4.5783,0.0,0.0,0.0,0.0,0.0,0.0,0.0,0.0,0.0,0.0,0.0,0.0,0.0,0.0,0.0,0.0,0.0,0.0,0.0,0.0,0.0,0.0,0.0,0.0,0.0,0.0,0.0,0.0,0.0,0.0,2.6522,0.0,0.0,0.0,0.0,0.0,0.0,0.0,0.0,0.0,0.0,0.0,0.0,0.0,0.0,0.0,0.0,0.0,0.0,0.0,0.0,0.0,0.0,2.6296,2.7264,2.8701,2.9419,2.9419,2.9396,2.992,3.0776,3.057,3.026,2.9884,0.0,0.0,0.0,0.0,0.0,0.0,0.0,0.0,0.0,0.0,0.0,0.0,0.0,0.0,0.0,0.0,0.0,0.0,0.0,0.0,0.0,0.0,0.0,0.0,0.0,0.0,3.5491,3.5891,3.5905,0.0,0.0,0.0,0.0,0.0,0.0,0.0,0.0,0.0,0.0,4.7703,4.92,4.9907,5.0522,5.0947,5.0947,5.017,4.9591,4.9591,4.9352,4.8558,0.0,0.0,0.0,0.0,0.0,0.0,0.0,0.0,0.0,0.0,0.0,0.0,0.0,0.0,0.0,0.0,0.0,0.0,0.0,0.0,0.0,0.0,0.0,0.0,0.0,0.0,0.0,3.2136,3.1446,0.0,0.0,0.0,0.0,0.0,0.0,0.0,0.0,0.0,0.0,0.0,3.4176,3.4904,0.0,0.0,0.0,0.0,0.0,0.0,0.0,0.0,0.0,0.0,0.0,0.0,2.8122,2.8381,3.0332,3.1381,3.1381,3.1536,3.1757,3.2086,3.2179,3.1676,3.0605,0.0,0.0,0.0,0.0,0.0,0.0,0.0,0.0,0.0,0.0,0.0,0.0,0.0,0.0,0.0,0.0,0.0,0.0,0.0,0.0,0.0,0.0,0.0,0.0,0.0,3.6846,0.0,0.0,0.0,0.0,0.0,0.0,0.0,0.0,0.0,0.0,0.0,4.5999,4.8182,4.9647,5.0759,5.143,5.1735,5.1774,0.0,0.0,0.0,0.0,0.0,0.0,0.0,0.0,0.0,0.0,0.0,0.0,0.0,0.0,5.242,4.7818,4.713,4.701,4.6121,0.0,0.0,0.0,0.0,0.0,0.0,0.0,0.0,0.0,0.0,0.0,0.0,0.0,0.0,3.4943,0.0,3.4209,0.0,0.0,0.0,0.0,0.0,0.0,0.0,0.0,3.56,3.616,3.6162,3.6895,3.6971,0.0,3.5766,3.4432,0.0,0.0,0.0,0.0,0.0,0.0,0.0,0.0,2.979,3.0049,3.1758,3.2661,3.2636,3.2766,3.2831,3.2853,3.3364,3.3034,3.1663,3.1055,3.0849,0.0,0.0,0.0,0.0,0.0,0.0,0.0,0.0,0.0,0.0,0.0,0.0,0.0,0.0,0.0,0.0,0.0,0.0,0.0,0.0,0.0,0.0,0.0,3.8276,0.0,0.0,0.0,0.0,0.0,0.0,0.0,0.0,0.0,4.4449,4.6301,4.8375,5.0153,5.1212,5.186,5.2074,0.0,0.0,0.0,0.0,0.0,0.0,0.0,5.0991,5.188,5.1479,5.1342,5.2366,5.4216,5.5239,5.4341,0.0,0.0,5.0242,4.9703,4.9793,4.9172,4.9733,5.0384,5.0594,4.9935,4.9434,0.0,0.0,0.0,0.0,0.0,0.0,0.0,0.0,3.6723,3.6394,0.0,3.5932,0.0,0.0,0.0,0.0,0.0,3.5783,0.0,0.0,3.9228,3.995,3.9074,4.0027,4.0259,3.972,3.8834,3.7593,3.589,3.3081,0.0,0.0,0.0,0.0,0.0,0.0,3.1165,3.2123,3.2721,3.3065,3.3065,3.304,3.3036,3.31,3.4064,3.4131,3.3184,3.4077,3.4233,3.3318,3.2674,0.0,0.0,0.0,0.0,0.0,0.0,0.0,0.0,0.0,0.0,0.0,0.0,0.0,0.0,0.0,0.0,0.0,0.0,0.0,0.0,3.9571,0.0,0.0,0.0,0.0,0.0,0.0,0.0,0.0,0.0,0.0,4.6284,4.853,5.0787,5.1638,0.0,0.0,0.0,0.0,5.2768,5.2745,5.3109,5.359,5.4293,5.4413,5.4279,5.3742,0.0,0.0,5.3443,5.4965,5.5863,5.4521,5.5359,5.5983,5.5179,5.3917,5.3378,5.3892,5.2995,5.2516,5.2959,5.2067,5.1206,4.0278,0.0,0.0,0.0,0.0,3.9437,4.0167,4.1422,4.1123,4.0147,3.8743,3.8792,0.0,0.0,0.0,0.0,0.0,0.0,3.8179,3.9233,4.0733,4.1687,4.213,4.1728,4.1278,4.0698,4.0491,3.9138,3.6854,3.6631,3.4717,3.1251,0.0,0.0,0.0,0.0,3.1893,3.2194,3.2365,3.2466,3.2466,3.2085,3.2214,3.2875,3.3645,3.431,3.4827,3.5703,3.5924,3.5373,3.5304,0.0,0.0,0.0,0.0,0.0,0.0,0.0,0.0,0.0,0.0,0.0,0.0,0.0,0.0,0.0,0.0,0.0,0.0,0.0,4.0854,4.1399,4.1959,0.0,0.0,0.0,0.0,0.0,0.0,0.0,0.0,0.0,5.0728,5.1432,5.2323,0.0,0.0,5.3353,5.3137,5.3691,5.4076,5.3913,5.4144,0.0,0.0,5.4066,5.3808,5.4847,5.5716,5.6196,5.6017,5.6855,5.7154,5.5863,5.5923,5.5983,5.5354,5.491,5.4725,5.482,5.4221,5.3713,5.3803,5.3204,5.2486,4.2148,4.1606,4.0885,4.0761,4.1037,4.1031,4.1692,4.2828,4.2739,4.2032,4.0995,4.0719,3.9242,3.6917,3.7053,0.0,0.0,0.0,4.0659,4.1941,4.2519,4.3134,4.3764,4.3197,4.2719,4.2365,4.2096,4.0958,3.9096,3.911,3.7272,3.3622,0.0,0.0,3.1938,3.234,3.2667,3.2867,3.2667,3.2441,3.2215,3.2052,3.2223,3.2791,3.3989,3.5084,3.6061,3.7215,3.7616,3.7114,3.7242,3.6987,0.0,0.0,0.0,0.0,0.0,0.0,0.0,0.0,0.0,0.0,0.0,4.1719,0.0,0.0,0.0,0.0,4.2712,4.3499,4.4819,4.5027,0.0,0.0,0.0,0.0,0.0,0.0,0.0,5.1282,5.2544,5.3437,5.3837,5.3899,5.396,5.4091,5.4091,5.4091,5.4091,0.0,5.4752,5.488,5.5251,5.5681,5.6036,5.5554,5.542,5.6229,5.6976,5.7363,5.7154,5.7974,5.8347,5.749,5.7188,5.7066,5.6647,5.6078,5.5478,5.5239,5.488,5.4551,5.4281,5.3707,5.3019,4.3184,4.3333,4.2045,4.1507,4.1509,4.1829,4.2266,4.2751,4.2511,4.2697,4.3112,4.2161,4.1157,4.0144,3.998,0.0,4.2396,4.3024,4.3699,4.4429,4.4499,4.4545,4.4545,4.4475,4.4401,4.4344,4.3592,4.281,4.1999,4.0817,3.9161,3.7086,3.5531,3.4507,3.396,3.3608,3.3611,3.4013,3.3536,3.2992,3.2431,3.2742,3.296,3.3077,3.4957,3.6288,3.6927,3.8534,3.9122,3.8529,3.8627,3.8176,3.7023,0.0,0.0,0.0,0.0,0.0,0.0,0.0,0.0,0.0,0.0,0.0,0.0,0.0,0.0,0.0,4.6142,0.0,5.025,4.9721,0.0,0.0,0.0,4.9202,4.9295,5.1435,5.2934,5.3057,0.0,0.0,5.5862,5.5831,5.5592,5.5014,5.486,5.4768,5.4799,5.486,5.5076,5.5715,5.6354,5.697,5.7352,5.7677,5.7633,5.7277,5.7783,5.7719,5.7146,5.833,5.9119,5.8413,5.8483,5.8539,5.867,5.737,5.62,5.5681,5.5315,5.497,5.4341,5.3743,5.3114,4.3489,4.3764,4.3428,4.3271,4.3298,4.3353,4.3713,4.417,4.4126,4.4419,4.489,4.4864,4.4521,4.3925,4.3392,4.3399,4.384,4.4738,4.5245,4.5508,4.6211,4.6572,4.655,4.5808,4.5203,4.4742,4.4502,4.3465,4.1799,4.2096,4.1291,3.9443,3.8976,3.7337,3.4597,3.562,3.5833,3.5123,3.4942,3.4573,3.4035,3.4129,3.451,3.5232,3.6221,3.715,3.8009,3.8907,3.9331,3.917,3.8868,3.8831,3.9168,3.7627,0.0,0.0,0.0,0.0,0.0,0.0,0.0,0.0,0.0,4.6971,4.3283,0.0,4.8377,0.0,4.9267,5.0877,5.2479,5.2474,0.0,0.0,5.4297,5.4282,5.5248,5.4876,5.4901,5.5947,5.5845,5.6139,5.7186,5.6847,5.6693,5.6977,5.6115,5.5468,5.5468,5.5985,5.6354,5.6508,5.6662,5.6847,5.7093,5.696,5.6774,5.6164,5.6976,5.7182,5.5888,5.7243,5.8117,5.7088,5.7178,5.7758,5.862,5.8346,5.8098,5.7778,5.6446,5.497,5.4341,5.4072,5.3623,4.4407,4.448,4.448,4.4683,4.4992,4.434,4.4245,4.4557,4.5192,4.5633,4.5926,4.6282,4.6281,4.5948,4.5583,4.5499,4.5673,4.6211,4.6484,4.6506,4.704,4.7309,4.7287,4.6726,4.6278,4.5946,4.5638,4.4695,4.3327,4.3479,4.2719,4.105,4.1378,4.0126,3.7402,3.7756,3.7569,3.663,3.5816,3.5266,3.4972,3.5124,3.5319,3.5563,3.661,3.7287,3.7584,3.8751,3.9158,3.8677,3.9322,3.9864,4.0109,3.951,3.9929,0.0,0.0,0.0,0.0,0.0,0.0,0.0,0.0,0.0,0.0,0.0,5.1217,5.1488,5.2841,5.4427,5.6203,5.6312,5.6789,5.7957,5.7611,5.736,5.7459,5.6869,5.678,5.7439,5.7011,5.7063,5.8079,5.7925,5.7678,5.7802,5.7124,5.6539,5.6293,5.6539,5.6785,5.6785,5.7032,5.7494,5.8017,5.7641,5.74,5.7731,5.7998,5.7856,5.7126,5.8468,5.9384,5.847,5.8749,5.9356,5.9915,5.9673,5.9405,5.9207,5.8133,5.6506,5.4985,5.4401,5.3862,4.5539,4.5382,4.5523,4.6004,4.6512,4.5393,4.4855,4.4857,4.6085,4.6687,4.6814,4.7238,4.7282,4.7095,4.6943,4.7014,4.7287,4.7309,4.7309,4.7309,4.7309,4.7309,4.7309,4.7309,4.7309,4.7279,4.66,4.6022,4.5424,4.4766,4.3692,4.2377,4.3039,4.2596,4.0979,3.9992,3.9166,3.8455,3.6888,3.6119,3.617,3.6526,3.6385,3.5775,3.705,3.7511,3.6976,3.8607,3.9157,3.8387,4.0182,4.1212,4.0985,4.1606,4.2912,0.0,4.497,0.0,0.0,0.0,0.0,0.0,0.0,0.0,0.0,5.2367,5.3619,5.504,5.6427,5.8051,6.008,6.0143,6.0122,6.0263,6.0088,5.9501,5.8372,5.8512,5.8737,5.8755,5.8387,5.8369,5.9067,5.8918,5.8448,5.8239,5.7777,5.7376,5.7102,5.6875,5.6785,5.6785,5.7371,5.8079,5.8972,5.8922,5.8974,5.9874,5.9674,5.9173,5.8885,6.0204,6.1179,6.0599,6.0913,6.1612,6.1863,6.1282,6.0828,6.0813,6.0052,5.8558,5.6241,5.509,5.425,4.6056,4.6344,4.7264,4.7731,4.7866,4.8039,4.7802,4.7304,4.7587,4.8195,4.8985,4.8917,4.8876,4.8737,4.7673,4.7225,4.7309,4.7309,4.7309,4.7309,4.7309,4.7309,4.7309,4.7309,4.7309,4.7279,4.66,4.6241,4.6091,4.5454,4.4684,4.3894,4.4036,4.3657,4.283,0.0,0.0,0.0,4.0234,4.004,4.0239,4.0348,4.0066,3.9412,3.9677,0.0,3.9161,3.9944,4.0686,4.1201,4.2254,0.0,0.0,0.0,0.0,0.0,0.0,0.0,0.0,0.0,0.0,0.0,5.2363,5.2515,5.2215,5.5006,5.7205,5.81,5.8964,5.9911,6.096,6.1061,6.1301,6.184,6.187,6.1971,6.2253,6.1724,6.1577,6.2158,6.0807,6.0089,6.0565,5.9234,5.8492,5.9343,5.8152,5.7325,5.7801,5.7258,5.6834,5.6847,5.7541,5.7912,5.814,5.9225,5.9724,5.9434,6.0028,5.9971,5.9096,5.967,6.021,5.9731,6.044,6.1678,6.246,6.2922,6.3118,6.3215,6.1957,6.0166,5.7765,5.6678,5.5743,4.727,0.0,4.8157,4.8763,0.0,4.9926,5.0205,5.0021,4.9161,4.9188,4.9858,4.9773,4.9374,4.8768,4.8109,4.7608,4.7309,4.7309,4.7309,4.7309,4.7309,4.7309,4.7309,4.7309,4.7309,4.7279,4.6629,4.63,4.6271,4.5633,4.5125,4.4796,4.4796,4.4616,4.4296,4.4267,4.3509,4.1912,4.1439,4.1261,4.1414,4.1403,4.1111,4.0574,0.0,0.0,0.0,0.0,0.0,0.0,0.0,0.0,0.0,0.0,0.0,4.9364,4.9207,4.968,5.1083,5.162,5.2619,5.4363,5.5312,5.5431,5.46,5.6934,5.8761,5.9471,6.025,6.0994,6.1738,6.1839,6.1975,6.2367,6.2719,6.299,6.2944,6.2778,6.2785,6.2999,6.2198,6.1614,6.1761,6.054,5.9499,5.9436,5.8268,5.7342,5.7487,5.7543,5.7723,5.8552,5.8961,5.9499,6.0123,6.0447,6.1052,6.1119,6.1349,6.1342,6.0909,6.1284,6.1582,6.1313,6.209,6.2987,6.3463,6.4155,6.4646,6.4558,6.3658,6.2353,6.0471,5.8231,5.6097,4.8472,4.7896,4.9056,4.9882,5.0523,5.1624,5.2216,5.2228,0.0,0.0,0.0,5.037,4.9757,4.8759,4.8519,4.8129,4.7619,4.7404,4.7352,4.7374,4.7331,4.7309,4.7309,4.7309,4.7309,4.7279,4.6719,4.648,4.645,4.5933,4.5574,4.5484,4.5484,4.5424,4.5304,4.5274,4.4517,4.296,4.2361,4.2111,4.2149,4.2149,4.1915,4.1459,4.1972,4.2054,4.162,4.2765,4.3297,4.3137,4.5004,4.6494,4.7413,4.8873,5.046,5.2132,5.2536,5.3247,5.4499,5.4837,5.5547,5.69,5.7697,5.7881,5.7408,5.8524,5.9573,6.0419,6.1095,6.1738,6.2347,6.2415,6.2415,6.2415,6.2956,6.3125,6.2849,6.3177,6.356,6.3655,6.3515,6.3126,6.2884,6.1933,6.0994,5.9767,5.8888,5.8117,5.7871,5.8223,5.8807,5.9864,6.0476,6.1452,6.234,6.2538,6.2503,6.3169,6.2986,6.2903,6.3219,6.3315,6.3294,6.3076,6.389,6.4255,6.441,6.4862,6.537,6.5403,6.4806,6.3989,6.2714,5.9791,5.7046,4.8782,4.9624,5.0851,5.1938,5.2964,5.3827,5.3694,5.2802,5.178,5.1349,5.1398,5.1061,5.0796,5.0554,4.9417,4.8841,4.8719,4.7916,4.7559,4.7568,4.7374,4.7309,4.7309,4.7309,4.7309,4.7309,4.7219,4.7138,4.716,4.707,4.6741,4.6211,4.6151,4.5903,4.5334,4.5274,4.5155,4.4885,4.4816,4.4868,4.5071,4.5071,4.4891,4.4434,4.4454,4.4339,4.388,4.4602,4.5292,4.5999,4.75,4.8681,4.9475,5.094,5.1976,5.2352,5.3551,5.4363,5.46,5.5784,5.6867,5.7697,5.8423,5.9047,5.9573,5.981,6.0554,6.1893,6.213,6.2279,6.24,6.2415,6.2415,6.2415,6.2516,6.299,6.4038,6.4356,6.4873,6.5931,6.549,6.4904,6.4566,6.3004,6.1974,6.1967,6.0525,5.9754,6.0507,6.0068,5.9329,5.9723,6.1266,6.2391,6.3027,6.4027,6.4243,6.3902,6.421,6.4162,6.3653,6.3546,6.3426,6.3327,6.3957,6.4387,6.442,6.4962,6.5326,6.5348,6.4677,6.3635,6.2532,6.1177,5.9802,4.9643,5.0505,5.1349,5.2549,5.3981,5.4405,5.4189,5.3489,5.2838,5.207,5.1289,5.1076,5.0788,5.0385,4.9435,4.9009,4.8979,4.8183,4.7816,4.7816,4.7709,4.7666,4.7666,4.7697,4.7602,4.7452,4.7452,4.7417,4.7309,4.7309,4.716,4.6839,4.686,4.6723,4.6551,4.6551,4.6605,4.6752,4.5964,4.5582,4.5705,4.5808,4.5789,4.5716,4.5686,4.5816,4.6096,4.6815,4.7575,4.834,4.9878,5.0862,5.1223,5.2336,5.3127,5.3518,5.4211,5.4956,5.575,5.6799,5.7509,5.7881,5.8592,5.9317,6.0047,6.052,6.1061,6.1738,6.2164,6.2415,6.2415,6.2415,6.2415,6.2415,6.3057,6.3835,6.4546,6.5392,6.6068,6.6635,6.6418,6.5898,6.536,6.4012,6.2976,6.29,6.1583,6.115,6.1906,6.2046,6.2032,6.2289,6.3429,6.4243,6.4397,6.488,6.5055,6.4539,6.4647,6.459,6.413,6.4166,6.4255,6.4023,6.4432,6.4697,6.452,6.4929,6.5326,6.5315,6.4771,6.3973,6.3664,6.2959,6.1199,5.0802,5.1533,5.232,5.357,5.5021,5.4825,5.4601,5.4348,5.3835,5.2925,5.188,5.1523,5.1088,5.0562,4.9922,4.9617,4.9504,4.8852,4.8526,4.8526,4.8484,4.8371,4.825,4.8219,4.8031,4.7739,4.7688,4.7632,4.7482,4.746,4.7482,4.7482,4.746,4.7516,4.7688,4.7688,4.7794,4.7925,4.6879,4.6303,4.6303,4.6437,4.662,4.6803,4.6823,4.7251,4.8077,4.8714,4.9385,5.0177,5.1531,5.2307,5.2343,5.3075,5.3822,5.4516,5.4786,5.548,5.69,5.7577,5.7967,5.8118,5.866,5.9336,6.0047,6.0858,6.1366,6.1569,6.2096,6.2415,6.2415,6.2415,6.2415,6.2502,6.3396,6.414,6.4647,6.5628,6.6453,6.669,6.6791,6.6461,6.5755,6.5047,6.4264,6.3374,6.2747,6.2507,6.2759,6.388,6.4613,6.4899,6.5418,6.585,6.5933,6.5771,6.556,6.528,6.5077,6.4915,6.4752,6.4962,6.4929,6.4487,6.4564,6.4664,6.4465,6.4763,6.5138,6.5271,6.4972,6.4763,6.506,6.3975,6.2025,5.2246,5.3416,5.4742,5.6083,5.6904,5.5768,5.535,5.5435,5.4844,5.4506,5.406,5.3069,5.2485,5.2385,5.1686,5.1348,5.1296,5.0476,5.0053,5.0001,4.9887,4.9496,4.897,4.8918,4.8563,4.8086,4.8004,4.8065,4.8022,4.7931,4.7922,4.7922,4.7922,4.7943,4.7964,4.7964,4.7986,4.8007,4.8033,4.8076,4.8076,4.8097,4.8171,4.8378,4.8378,4.882,4.9504,4.9754,5.0165,5.0957,5.1824,5.2325,5.2429,5.3092,5.3856,5.46,5.5243,5.6258,5.7629,5.7848,5.8186,5.8829,5.8945,5.9351,6.008,6.0858,6.1603,6.211,6.2367,6.2415,6.2415,6.2434,6.2468,6.2434,6.2739,6.3111,6.4343,6.4715,6.529,6.669,6.6757,6.6749,6.65,6.5939,6.5265,6.4556,6.4393,6.4447,6.4925,6.5266,6.5493,6.5535,6.6091,6.6567,6.6513,6.6521,6.6119,6.5938,6.5788,6.5447,6.5116,6.4763,6.4454,6.4255,6.399,6.3957,6.4188,6.4465,6.473,6.5238,6.5271,6.5271,6.5238,6.4333,6.2386,5.372,5.5465,5.585,5.6567,5.7245,5.6764,5.6236,5.5684,5.5407,5.486,5.4091,5.3506,5.3291,5.3229,5.2206,5.1713,5.163,5.0866,5.0537,5.0537,5.045,5.0284,5.0039,5.0008,4.976,4.9386,4.9334,4.9269,4.9131,4.8797,4.8402,4.8037,4.8007,4.807,4.8175,4.8175,4.8239,4.8364,4.8448,4.8459,4.8459,4.8489,4.8531,4.8583,4.8583,4.8749,4.9219,5.0033,5.0767,5.1145,5.2292,5.3208,5.3644,5.3972,5.4668,5.5784,5.6596,5.7239,5.7866,5.79,5.822,5.8945,5.9385,5.9979,6.0757,6.1501,6.213,6.2313,6.2415,6.2415,6.2415,6.2787,6.2888,6.2705,6.3517,6.4275,6.3937,6.5155,6.6068,6.6203,6.6542,6.6791,6.6779,6.6542,6.6237,6.5933,6.5899,6.6,6.6305,6.6339,6.6331,6.6281,6.6508,6.6365,6.6129,6.5918,6.5761,6.5536,6.5373,6.5234,6.4906,6.463,6.4288,6.389,6.3758,6.3691,6.3691,6.4531,6.5094,6.5392,6.5337,6.5171,6.4332,6.4365,6.3682,5.5709,5.7273,5.7182,5.745,5.8026,5.7842,5.723,5.633,5.6269,5.5622,5.4607,5.4337,5.4268,5.4029,5.2667,5.199,5.1929,5.1467,5.1251,5.1251,5.1251,5.1159,5.1005,5.0974,5.0764,5.0481,5.0397,5.031,5.0149,4.9731,4.9212,4.8785,4.8724,4.8809,4.8906,4.8804,4.8745,4.886,4.8727,4.8583,4.8583,4.8583,4.8583,4.8583,4.8583,4.8811,4.9309,5.048,5.1331,5.1787,5.3071,5.4025,5.4583,5.4769,5.548,5.6697,5.7494,5.79,5.79,5.8103,5.8524,5.9216,5.9844,6.0452,6.1197,6.1806,6.2076,6.2096,6.2265,6.2415,6.2482,6.3057,6.3207,6.2888,6.4377,6.4918,6.441,6.5662,6.6339,6.6102,6.6542,6.6791,6.6791,6.6757,6.6724,6.669,6.6724,6.6791,6.6791,6.6757,6.6736,6.6728,6.6592,6.6326,6.58,6.5737,6.5475,6.5304,6.5275,6.5212,6.4707,6.4608,6.4354,6.4089,6.4023,6.3824,6.3559,6.4299,6.5127,6.5326,6.5304,6.5094,6.4465,6.4895,6.5061,5.8682,5.9007,5.9172,5.9353,5.9624,5.8983,5.83,5.7555,5.7617,5.7247,5.6416,5.5831,5.5561,5.5345,5.3529,5.2645,5.2698,5.2614,5.2606,5.2553,5.2553,5.2267,5.1682,5.1652,5.1344,5.0931,5.0931,5.0839,5.0746,5.0654,5.0614,5.0531,5.0417,5.05,5.0399,4.9854,4.962,4.9589,4.9004,4.8614,4.8614,4.8614,4.8666,4.8728,4.8656,4.9432,5.0774,5.1083,5.182,5.3331,5.4126,5.4617,5.4702,5.531,5.6071,5.6799,5.7527,5.79,5.8035,5.8558,5.9216,5.9911,6.0148,6.0486,6.1298,6.1501,6.1569,6.1434,6.211,6.2482,6.255,6.3193,6.3545,6.3565,6.4208,6.4986,6.5425,6.5649,6.6068,6.6474,6.669,6.6791,6.6791,6.6791,6.6791,6.6791,6.6791,6.6791,6.6791,6.6791,6.6728,6.6613,6.6528,6.6473,6.6418,6.6088,6.5906,6.5755,6.5611,6.5603,6.526,6.4929,6.4553,6.4056,6.3393,6.3095,6.3261,6.3691,6.4365,6.4763,6.516,6.4962,6.4332,6.5006,6.5171,6.0245,6.0839,6.0888,6.0531,5.9778,5.9532,5.8818,5.7832,5.7802,5.7155,5.617,5.5807,5.5468,5.5014,5.4306,5.3968,5.3968,5.3968,5.3753,5.3383,5.3322,5.3199,5.2953,5.2575,5.2483,5.2614,5.2637,5.2368,5.1959,5.1559,5.1097,5.0728,5.0697,5.0697,5.0636,5.0451,5.0328,5.0266,4.9651,4.9312,4.9312,4.9312,4.9553,5.0099,5.0139,5.0882,5.2488,5.3002,5.3574,5.4133,5.4879,5.5547,5.6021,5.6697,5.7205,5.7494,5.7746,5.8118,5.8558,5.8844,5.9554,6.0723,6.0858,6.1163,6.1825,6.2009,6.2009,6.211,6.2685,6.3091,6.3207,6.3768,6.4208,6.4377,6.5236,6.5696,6.5358,6.5797,6.6339,6.6237,6.6453,6.6791,6.6791,6.6791,6.6791,6.6791,6.6791,6.6791,6.6791,6.6791,6.6749,6.672,6.6592,6.6507,6.6507,6.628,6.6052,6.5965,6.5878,6.568,6.5349,6.4884,6.4465,6.442,6.3493,6.3227,6.3725,6.4089,6.4531,6.4465,6.4829,6.4564,6.41,6.4498,6.4697,6.178,6.2069,6.1875,6.1286,6.0455,6.0209,5.947,5.851,5.8448,5.7771,5.6792,5.6453,5.6115,5.5715,5.5499,5.5376,5.5291,5.4922,5.446,5.406,5.4029,5.4029,5.3906,5.3322,5.3353,5.3906,5.4029,5.3783,5.3322,5.2667,5.2113,5.1713,5.1467,5.1344,5.1313,5.1128,5.1005,5.0882,5.038,5.0041,5.002,5.002,5.0694,5.1848,5.2081,5.2543,5.364,5.4222,5.463,5.4935,5.562,5.6393,5.7103,5.7611,5.8035,5.8186,5.8035,5.8321,5.9201,5.9351,5.9945,6.1163,6.1535,6.1907,6.2347,6.2415,6.2415,6.2516,6.2821,6.326,6.3815,6.4309,6.4681,6.5019,6.6068,6.6385,6.5527,6.6183,6.6474,6.6305,6.6542,6.6779,6.6791,6.6791,6.6791,6.6791,6.6791,6.6791,6.6791,6.6791,6.6791,6.6791,6.6665,6.6635,6.6571,6.6311,6.603,6.5922,6.5867,6.567,6.5415,6.4884,6.463,6.4553,6.4387,6.4155,6.4222,6.4586,6.4553,6.4387,6.4155,6.389,6.3758,6.3758,6.3957,6.3356,6.2675,6.2117,6.1779,6.1471,6.0917,6.0363,5.9742,5.9655,5.9131,5.8387,5.7956,5.7525,5.7494,5.6816,5.6693,5.6416,5.5438,5.486,5.4706,5.4706,5.4706,5.4676,5.4029,5.406,5.4676,5.4676,5.4676,5.4583,5.3937,5.3568,5.3476,5.2883,5.2544,5.2614,5.199,5.1713,5.1559,5.1036,5.074,5.0719,5.0827,5.1905,5.391,5.4206,5.4372,5.463,5.4671,5.5153,5.576,5.6425,5.7137,5.7697,5.79,5.822,5.8675,5.8321,5.8693,5.9877,6.0114,6.0486,6.1332,6.1975,6.2313,6.2381,6.2415,6.2415,6.2415,6.255,6.3024,6.4241,6.4647,6.4986,6.5649,6.6406,6.669,6.669,6.6757,6.6791,6.6724,6.6791,6.6791,6.6791,6.6791,6.6791,6.6791,6.6791,6.6791,6.6791,6.6791,6.6791,6.6791,6.6707,6.6656,6.6537,6.6397,6.6095,6.5867,6.578,6.5647,6.5492,6.5127,6.5094,6.4995,6.4796,6.4531,6.3923,6.4188,6.4023,6.3824,6.3559,6.3194,6.2996,6.2929,6.3194,6.3872,6.2829,6.2583,6.1933,6.1132,6.0886,6.0424,5.9834,5.9778,5.9434,5.8756,5.8079,5.7802,5.7648,5.7093,5.6785,5.6755,5.6324,5.5869,5.5438,5.5407,5.5407,5.5284,5.4706,5.476,5.5222,5.4922,5.4952,5.5199,5.4706,5.4183,5.3722,5.3506,5.3137,5.276,5.246,5.239,5.2306,5.1744,5.1679,5.2218,5.2271,5.3241,5.4984,5.5638,5.6169,5.6789,5.6844,5.6954,5.7171,5.7442,5.7645,5.7866,5.79,5.822,5.8844,5.881,5.9336,6.0655,6.0926,6.1231,6.1907,6.2299,6.24,6.2415,6.2415,6.2415,6.2482,6.2854,6.3579,6.4444,6.5087,6.5628,6.6373,6.6656,6.6791,6.6791,6.6791,6.6791,6.6791,6.6791,6.6791,6.6791,6.6791,6.6791,6.6791,6.6791,6.6791,6.6791,6.6859,6.6791,6.6791,6.6741,6.6668,6.6495,6.6323,6.6042,6.5802,6.5692,6.5603,6.547,6.5403,6.5403,6.5359,6.5127,6.473,6.4122,6.3725,6.3658,6.3194,6.2797,6.2432,6.2001,6.2167,6.2598,6.4395,6.3564,6.2983,6.2364,6.1502,6.104,6.0578,6.0178,6.0147,5.9932,5.9495,5.8849,5.8541,5.8387,5.7832,5.7401,5.7186,5.7155,5.6785,5.62,5.6108,5.6108,5.6077,5.5738,5.5468,5.5653,5.5561,5.5684,5.6046,5.5407,5.4853,5.446,5.3968,5.3506,5.3045,5.2821,5.2729,5.2659,5.2622,5.2821,5.3323,5.367,5.4531,5.5812,5.6382,5.7034,5.7808,5.79,5.79,5.7967,5.8152,5.8423,5.866,5.8761,5.9066,5.9641,5.9656,6.008,6.1434,6.1434,6.1603,6.2245,6.2651,6.2651,6.255,6.2603,6.2787,6.2888,6.3207,6.3903,6.485,6.5392,6.6,6.6724,6.6791,6.6791,6.6791,6.6791,6.6791,6.6791,6.6791,6.6791,6.6791,6.6791,6.6791,6.6791,6.6791,6.6791,6.6859,6.7062,6.7028,6.7028,6.71,6.6926,6.6541,6.6271,6.5933,6.5758,6.5603,6.5514,6.5425,6.5403,6.5403,6.5403,6.526,6.4895,6.4321,6.3857,6.3559,6.2896,6.2366,6.2366,6.23,6.2134,6.2399,6.4857,6.4611,6.3379,6.2645,6.2364,6.1286,6.0763,6.0763,6.0763,6.0701,6.0547,5.9901,5.9655,5.9562,5.8879,5.8294,5.7956,5.7832,5.7555,5.7093,5.697,5.6939,5.684,5.6631,5.6293,5.6016,5.6385,5.6662,5.6631,5.6077,5.5738,5.5438,5.4514,5.3783,5.366,5.3129,5.2897,5.3135,5.3608,5.3892,5.4232,5.5017,5.5901,5.6757,5.692,5.7277,5.7941,5.7967,5.79,5.7967,5.8524,5.9148,5.981,6.0047,6.0283,6.0994,6.0588,6.1129,6.1941,6.2009,6.1873,6.2516,6.2956,6.3173,6.255,6.2854,6.3226,6.3342,6.3477,6.4106,6.5243,6.5683,6.6034,6.6622,6.6791,6.6791,6.6791,6.6791,6.6791,6.6791,6.6791,6.6791,6.6791,6.6791,6.6791,6.6791,6.6791,6.6791,6.6893,6.7062,6.732,6.7311,6.7167,6.696,6.6519,6.6259,6.5999,6.5846,6.5791,6.5902,6.5724,6.5668,6.5668,6.5602,6.5326,6.4962,6.4454,6.3857,6.336,6.283,6.2631,6.2697,6.2465,6.2101,6.2001,6.4303,6.3349,6.2979,6.2214,6.1379,6.0917,6.0794,6.0794,6.0794,6.0794,6.064,6.0086,5.9809,5.9716,5.9157,5.8695,5.8572,5.8541,5.8479,5.8294,5.8264,5.7956,5.7494,5.7001,5.6693,5.657,5.6693,5.6785,5.681,5.657,5.62,5.5708,5.5315,5.486,5.4429,5.3783,5.3822,5.4245,5.4057,5.4706,5.5794,5.6579,5.7487,5.8283,5.8305,5.8418,5.8641,5.8186,5.79,5.7967,5.8626,5.9081,5.9419,5.9911,6.0588,6.1197,6.1704,6.2144,6.2888,6.297,6.3024,6.3125,6.2956,6.2584,6.2448,6.2584,6.2956,6.3308,6.3545,6.414,6.5358,6.5751,6.6068,6.6643,6.6791,6.6791,6.6791,6.6791,6.6791,6.6791,6.6757,6.6724,6.6656,6.6724,6.6724,6.6724,6.6757,6.6791,6.6893,6.7028,6.7286,6.6986,6.68,6.6693,6.6498,6.6259,6.6097,6.5979,6.6146,6.6566,6.6388,6.6297,6.6264,6.6231,6.5492,6.5028,6.4255,6.3493,6.3095,6.3062,6.2532,6.2378,6.1848,6.145,6.155,6.4426,6.3656,6.3352,6.2614,6.1656,6.1348,6.1071,6.0824,6.0794,6.0794,6.0701,6.0393,6.0209,6.0147,5.9834,5.947,5.9224,5.9218,5.9064,5.8787,5.8756,5.8541,5.811,5.7525,5.7217,5.7155,5.6939,5.6785,5.6785,5.6785,5.6539,5.62,5.5862,5.5499,5.5106,5.446,5.4344,5.4764,5.481,5.5442,5.6419,5.7245,5.8069,5.8811,5.9013,5.9115,5.9284,5.8761,5.8355,5.8524,5.9047,5.9588,6.0013,6.0655,6.1298,6.1772,6.2448,6.2956,6.3024,6.3294,6.3342,6.3125,6.2821,6.2922,6.2888,6.2854,6.3139,6.3869,6.3917,6.4546,6.5425,6.5967,6.6339,6.6724,6.6791,6.6791,6.6791,6.6791,6.6622,6.6474,6.6339,6.6203,6.6,6.617,6.6305,6.6406,6.6643,6.6724,6.6825,6.7049,6.7163,6.702,6.6926,6.6899,6.6625,6.6318,6.6356,6.6257,6.6744,6.7142,6.7173,6.6993,6.6662,6.643,6.5724,6.4995,6.4321,6.3857,6.3935,6.3603,6.2775,6.2543,6.2477,6.1715,6.1715,6.4857,6.4734,6.406,6.3383,6.2583,6.2029,6.1379,6.0855,6.0794,6.0794,6.0763,6.0794,6.0701,6.0794,6.0578,6.045,5.9901,5.9901,5.9588,5.9341,5.9187,5.9157,5.9064,5.8264,5.7956,5.7832,5.7278,5.7063,5.7032,5.697,5.6847,5.6601,5.6108,5.5892,5.5684,5.5161,5.4876,5.5247,5.5803,5.6221,5.687,5.7747,5.8758,5.9119,5.9505,5.9622,5.9776,5.9471,5.9115,5.9115,5.9844,6.0486,6.1231,6.1941,6.2299,6.2482,6.3024,6.3362,6.2821,6.3328,6.3362,6.2922,6.3226,6.3477,6.3443,6.3511,6.3903,6.4647,6.4715,6.5121,6.5764,6.644,6.669,6.6791,6.6791,6.6791,6.6791,6.6791,6.6542,6.5967,6.5886,6.5493,6.5256,6.5324,6.5865,6.6406,6.6609,6.6724,6.6859,6.7015,6.7252,6.7366,6.7297,6.725,6.6819,6.6355,6.6557,6.6689,6.7395,6.7857,6.7956,6.7721,6.7158,6.6562,6.5624,6.5094,6.473,6.4564,6.4498,6.4299,6.3504,6.4034,6.4498,6.3194,6.2631,6.458,6.3998,6.3875,6.3106,6.2117,6.184,6.144,6.0855,6.0824,6.0886,6.0794,6.0794,6.0794,6.0794,6.0794,6.0701,6.0547,6.0517,6.0486,6.0424,6.0363,6.0363,6.0086,5.9187,5.8633,5.8541,5.8448,5.8079,5.7678,5.7463,5.7278,5.6785,5.6631,5.6539,5.6416,5.5885,5.5868,5.6427,5.6878,5.7127,5.7682,5.9172,6.0045,5.9994,6.0419,6.0486,6.0148,5.9945,5.9877,6.0047,6.0588,6.1163,6.14,6.2009,6.2367,6.2685,6.3599,6.4005,6.3565,6.3768,6.4005,6.3294,6.324,6.3511,6.3545,6.3971,6.458,6.5256,6.548,6.5662,6.6373,6.6677,6.6791,6.6791,6.6791,6.6791,6.6791,6.6791,6.6656,6.6542,6.644,6.6453,6.6271,6.617,6.644,6.6542,6.6643,6.6757,6.6893,6.7015,6.7252,6.7455,6.7128,6.7014,6.692,6.6533,6.6568,6.6942,6.7714,6.8142,6.8251,6.8251,6.7589,6.6585,6.5425,6.5094,6.5094,6.4387,6.4133,6.4133,6.4266,6.4365,6.4332,6.3658,6.3128,6.4672,6.4334,6.4334,6.3718,6.2829,6.2706,6.2337,6.1814,6.1722,6.1563,6.1317,6.1286,6.1101,6.0824,6.0794,6.0794,6.0794,6.0794,6.0794,6.0763,6.0763,6.0763,6.0732,6.0116,5.9619,5.9285,5.891,5.8448,5.7956,5.7771,5.7432,5.6847,5.6785,5.6755,5.6785,5.6385,5.647,5.6871,5.7512,5.7861,5.8359,5.9631,6.0819,6.068,6.1095,6.1163,6.1231,6.0825,6.0892,6.1163,6.1535,6.1637,6.1467,6.1975,6.2347,6.2618,6.3768,6.3971,6.3497,6.3869,6.4106,6.3091,6.299,6.3226,6.3274,6.3632,6.3869,6.4546,6.4986,6.5561,6.6622,6.6791,6.6791,6.6791,6.6791,6.6791,6.6791,6.6791,6.6622,6.6406,6.617,6.5967,6.5967,6.6339,6.6339,6.617,6.6677,6.6791,6.6791,6.6927,6.7218,6.7256,6.6816,6.6678,6.6807,6.6712,6.6601,6.7063,6.7757,6.8009,6.8052,6.8052,6.7943,6.6883,6.5922,6.5657,6.5525,6.4697,6.4365,6.5028,6.5194,6.4597,6.42,6.4188,6.3493,6.4888,6.4888,6.4888,6.4487,6.3845,6.3752,6.3322,6.2798,6.2798,6.2368,6.1994,6.1871,6.144,6.104,6.0824,6.0794,6.0794,6.0794,6.0794,6.0794,6.0794,6.0794,6.0732,6.0609,6.0363,5.9927,5.9526,5.8879,5.8387,5.7986,5.7832,5.7186,5.6816,5.6939,5.6964,5.6816,5.6741,5.692,5.7675,5.8051,5.8334,5.9254,6.0268,6.0984,6.1462,6.1772,6.1975,6.1772,6.1704,6.2347,6.2415,6.2042,6.1806,6.1975,6.2415,6.2448,6.3768,6.3802,6.3125,6.3632,6.4005,6.2584,6.2584,6.2888,6.326,6.3328,6.3531,6.3903,6.458,6.5459,6.6588,6.6791,6.6791,6.6791,6.6791,6.6791,6.6791,6.6791,6.6542,6.6203,6.6237,6.6136,6.5899,6.6,6.5899,6.5933,6.6474,6.6825,6.6825,6.6994,6.7354,6.7459,6.7141,6.6556,6.6584,6.65,6.6423,6.7175,6.7847,6.8042,6.8152,6.8572,6.8506,6.7556,6.6761,6.6397,6.5889,6.5227,6.5293,6.6099,6.5867,6.5061,6.4829,6.4862,6.4023,6.4888,6.4888,6.4888,6.4487,6.3875,6.3814,6.3475,6.286,6.2891,6.2737,6.2583,6.206,6.184,6.1502,6.1009,6.0824,6.0824,6.0794,6.0794,6.0794,6.0794,6.0794,6.0794,6.0794,6.0701,6.0671,6.0363,5.9932,5.9316,5.8916,5.851,5.8202,5.7371,5.7093,5.7278,5.7124,5.6785,5.6961,5.7739,5.8041,5.7959,5.8906,6.0038,6.0948,6.1548,6.204,6.2274,6.226,6.2299,6.24,6.2415,6.2313,6.2212,6.2333,6.24,6.2685,6.3666,6.3835,6.2874,6.3666,6.37,6.2956,6.2854,6.3173,6.3477,6.3835,6.3869,6.4343,6.4952,6.5797,6.6656,6.6791,6.6791,6.6791,6.6791,6.6791,6.6791,6.6791,6.6757,6.6508,6.6508,6.6508,6.6271,6.617,6.6271,6.6339,6.6555,6.6927,6.7028,6.732,6.7692,6.7708,6.7634,6.6947,6.6361,6.6211,6.6202,6.7143,6.7849,6.8341,6.8648,6.9334,6.9136,6.8019,6.7158,6.6585,6.6088,6.5602,6.5502,6.5801,6.5602,6.5403,6.526,6.5094,6.4829,6.4888,6.4888,6.4888,6.4703,6.4368,6.4395,6.421,6.3933,6.3903,6.3687,6.3291,6.2922,6.2398,6.1845,6.1502,6.1163,6.0855,6.0794,6.0794,6.0794,6.0794,6.0794,6.0794,6.0794,6.0794,6.0763,6.0763,6.0486,5.9839,5.947,5.9157,5.8602,5.7771,5.7494,5.7555,5.7124,5.6847,5.7088,5.7911,5.83,5.776,5.8927,5.9816,6.0343,6.1131,6.1615,6.1756,6.2243,6.2381,6.24,6.2415,6.2415,6.2415,6.2415,6.2415,6.2671,6.3429,6.3632,6.2753,6.3396,6.3429,6.2671,6.2787,6.2922,6.299,6.3226,6.3835,6.4478,6.4816,6.5595,6.6677,6.6757,6.6791,6.6791,6.6791,6.6791,6.6791,6.6791,6.6825,6.6825,6.669,6.6622,6.6724,6.6656,6.6757,6.6791,6.6791,6.696,6.7184,6.7658,6.8064,6.8033,6.7947,6.737,6.6728,6.6488,6.6501,6.7344,6.7928,6.842,6.8904,6.9467,6.9169,6.8307,6.7546,6.7181,6.643,6.6065,6.5801,6.5502,6.5436,6.5403,6.5403,6.5293,6.4995,6.4888,6.4888,6.4888,6.4888,6.4888,6.4888,6.4888,6.4888,6.4857,6.4491,6.406,6.3783,6.3075,6.2179,6.1656,6.1286,6.0794,6.0794,6.0794,6.0794,6.0794,6.0794,6.0794,6.0917,6.0978,6.0794,6.104,6.064,6.0147,5.9809,5.9532,5.9218,5.851,5.7986,5.7894,5.7432,5.7093,5.736,5.7916,5.8389,5.8268,5.8796,5.93,5.9455,6.0365,6.1049,6.1173,6.1951,6.2341,6.2415,6.2415,6.2468,6.255,6.2482,6.255,6.2854,6.3294,6.3024,6.2821,6.3071,6.326,6.2502,6.2415,6.2415,6.2448,6.2685,6.3024,6.4072,6.4613,6.5155,6.6271,6.669,6.6791,6.6791,6.6791,6.6791,6.6791,6.6825,6.6981,6.6948,6.6757,6.6724,6.6757,6.6791,6.6791,6.6791,6.6791,6.6893,6.7163,6.7996,6.8402,6.8393,6.8261,6.776,6.7307,6.7045,6.7246,6.7889,6.8227,6.853,6.9003,6.9467,6.9036,6.8771,6.8771,6.8341,6.7446,6.643,6.5999,6.5668,6.5502,6.5403,6.5403,6.5326,6.5094,6.4888,6.4888,6.4888,6.4888,6.4888,6.4888,6.4888,6.4888,6.4888,6.4888,6.4641,6.4091,6.3414,6.2548,6.1379,6.0948,6.0794,6.0794,6.0794,6.0794,6.0794,6.0794,6.0886,6.1414,6.1255,6.1071,6.1409,6.1255,6.0701,6.0147,6.0116,6.0086,5.928,5.8664,5.8633,5.7894,5.7709,5.7611,5.7356,5.7174,5.7225,5.7965,5.8326,5.8886,5.9914,6.0945,6.109,6.187,6.2361,6.2415,6.2415,6.2719,6.3125,6.2719,6.3226,6.37,6.3835,6.3193,6.2719,6.299,6.3125,6.2536,6.2415,6.2415,6.2415,6.2448,6.2753,6.3511,6.4208,6.4952,6.5865,6.6474,6.669,6.6791,6.6791,6.6791,6.6791,6.6791,6.6927,6.7049,6.6914,6.6757,6.669,6.6757,6.6791,6.6791,6.6825,6.696,6.74,6.8335,6.8977,6.9091,6.8745,6.8243,6.7833,6.7591,6.7803,6.8411,6.8493,6.8639,6.9169,6.9599,6.9666,6.95,6.9533,6.9003,6.7711,6.6761,6.6231,6.5767,6.5469,6.5403,6.5403,6.5293,6.516,6.4888,6.4888,6.4888,6.4888,6.4888,6.4888,6.4888,6.4888,6.4888,6.4888,6.4857,6.458,6.3841,6.2702,6.1409,6.0794,6.0794,6.0794,6.0794,6.0794,6.0794,6.0794,6.0948,6.144,6.1563,6.1502,6.1625,6.1656,6.1194,6.0763,6.0578,6.0547,5.9901,5.9347,5.9187,5.8294,5.7894,5.7586,5.7241,5.7056,5.7276,5.7459,5.7707,5.8211,5.9575,6.0397,6.1111,6.189,6.2361,6.2415,6.2415,6.2753,6.3125,6.2922,6.2888,6.37,6.326,6.2922,6.299,6.2956,6.2685,6.255,6.2415,6.2415,6.2415,6.2434,6.2685,6.3443,6.4174,6.4918,6.5649,6.6373,6.6677,6.6791,6.6791,6.6791,6.6791,6.6791,6.6859,6.6981,6.7083,6.6981,6.669,6.6305,6.6609,6.7151,6.7286,6.7455,6.8132,6.9147,6.9654,6.9925,6.9421,6.8828,6.8427,6.8104,6.8281,6.8688,6.8626,6.8884,6.9434,6.9765,6.9732,6.9765,6.9699,6.8937,6.7811,6.7247,6.6728,6.6065,6.5403,6.5403,6.5403,6.537,6.526,6.4721,6.4777,6.486,6.4888,6.4888,6.4888,6.4888,6.4888,6.4888,6.4888,6.4795,6.4487,6.3687,6.2702,6.1502,6.0794,6.0794,6.0794,6.0794,6.0794,6.0794,6.0794,6.1071,6.1532,6.1994,6.184,6.2333,6.2148,6.1686,6.1317,6.0978,6.0794,6.0332,5.9932,5.9526,5.8726,5.8017,5.7432,5.7272,5.7272,5.7364,5.7241,5.7588,5.8283,5.9229,6.0218,6.0999,6.1911,6.2395,6.2415,6.2415,6.2753,6.326,6.3125,6.3328,6.3869,6.3531,6.3226,6.326,6.3125,6.255,6.2415,6.2415,6.2415,6.2415,6.2434,6.2685,6.3409,6.4174,6.4918,6.5628,6.6373,6.669,6.6791,6.6791,6.6791,6.6791,6.6791,6.6927,6.7184,6.7286,6.7354,6.688,6.6,6.6237,6.7252,6.7658,6.7929,6.8774,6.9823,7.0195,7.0466,7.0332,6.9749,6.9446,6.9154,6.9194,6.8987,6.8948,6.9097,6.9637,6.9656,6.9467,6.9566,6.9789,6.9003,6.7943,6.7622,6.7258,6.643,6.5734,6.5469,6.5403,6.537,6.5392,6.4188,6.4437,6.4777,6.4888,6.4888,6.4888,6.4888,6.4888,6.4888,6.4888,6.4734,6.3687,6.3045,6.2487,6.1532,6.0794,6.0794,6.0794,6.0794,6.0794,6.0794,6.0794,6.1163,6.1809,6.2394,6.2091,6.2706,6.2706,6.206,6.1748,6.1317,6.0855,6.0671,6.0301,5.9778,5.9064,5.8048,5.7494,5.7309,5.7241,5.7272,5.7314,5.7834,5.8479,5.9646,6.0696,6.1032,6.1931,6.2415,6.2415,6.2415,6.2753,6.3274,6.3308,6.3835,6.441,6.3883,6.3646,6.3768,6.3125,6.2516,6.2415,6.2415,6.2415,6.2415,6.2415,6.2787,6.3409,6.4174,6.4884,6.5628,6.6305,6.6724,6.6791,6.6791,6.6791,6.6791,6.6791,6.6981,6.732,6.7455,6.7455,6.7523,6.6711,6.6779,6.776,6.8402,6.8673,6.935,7.0251,7.0635,7.0906,7.1064,7.0884,7.0703,7.0442,7.0001,6.9672,6.9533,6.9593,6.9808,6.9628,6.9528,6.9614,6.9803,6.8927,6.8251,6.8019,6.7556,6.6695,6.6065,6.5767,6.5425,6.5227,6.5326,6.427,6.441,6.4749,6.4888,6.4888,6.4888,6.4888,6.4888,6.4888,6.4888,6.4795,6.3475,6.2798,6.2425,6.1471,6.0794,6.0794,6.0794,6.0794,6.0794,6.0794,6.0794,6.1286,6.1871,6.246,6.224,6.3045,6.3383,6.2522,6.2056,6.1748,6.1379,6.1009,6.0732,6.0178,5.9372,5.8325,5.7617,5.7247,5.7025,5.697,5.7036,5.7769,5.9117,5.9427,6.0735,6.1669,6.2164,6.2341,6.2415,6.2415,6.2821,6.3308,6.3443,6.4038,6.4783,6.3951,6.3815,6.3781,6.3057,6.2448,6.2415,6.2415,6.2415,6.2415,6.2434,6.2787,6.3429,6.4208,6.4986,6.5628,6.6339,6.6791,6.6791,6.6791,6.6791,6.6791,6.6791,6.6825,6.7151,6.7354,6.7489,6.759,6.759,6.7861,6.8301,6.891,6.9485,7.0094,7.0534,7.0906,7.1086,7.1177,7.1176,7.0984,7.0802,7.0608,7.0358,7.0109,7.006,7.0019,7.0016,6.9982,7.0011,6.9884,6.9372,6.8918,6.8539,6.7811,6.6695,6.6231,6.5999,6.5624,6.5227,6.526,6.4075,6.4188,6.4499,6.4721,6.4888,6.4888,6.4888,6.4888,6.4888,6.4734,6.4487,6.3322,6.2671,6.224,6.1379,6.0794,6.0794,6.0794,6.0794,6.0794,6.0794,6.0794,6.1194,6.1748,6.2337,6.2333,6.2829,6.3168,6.3075,6.224,6.1871,6.1563,6.1163,6.0824,6.0517,5.9742,5.8695,5.7863,5.7426,5.6964,5.6878,5.7105,5.7856,5.935,5.9834,6.0809,6.187,6.2361,6.2361,6.2415,6.2448,6.2651,6.3057,6.3409,6.3781,6.3883,6.3849,6.3579,6.3545,6.2956,6.2448,6.2415,6.2415,6.2415,6.2434,6.2603,6.3173,6.3835,6.4546,6.5222,6.592,6.6542,6.6791,6.6791,6.6791,6.6791,6.6791,6.6791,6.6791,6.6893,6.7062,6.7252,6.7624,6.7861,6.8707,6.9011,6.9417,6.9992,7.0567,7.0939,7.1109,7.1199,7.1188,7.1131,7.1041,7.0961,7.086,7.0565,7.0339,7.0304,7.0255,7.023,7.026,7.027,7.0086,6.9855,6.9485,6.9031,6.789,6.6595,6.6297,6.6099,6.6154,6.579,6.5459,6.3338,6.3567,6.3908,6.4359,6.4832,6.4888,6.4888,6.4888,6.4888,6.4549,6.3906,6.3075,6.2429,6.1871,6.1132,6.0824,6.0794,6.0794,6.0794,6.0794,6.0794,6.0794,6.104,6.1563,6.206,6.2614,6.2922,6.3229,6.3568,6.2548,6.2025,6.1783,6.144,6.0886,6.0763,6.0142,5.9126,5.8048,5.7894,5.7463,5.7155,5.7426,5.8342,5.938,5.9986,6.0898,6.2065,6.2415,6.2415,6.2415,6.2415,6.2482,6.2584,6.3207,6.3545,6.3579,6.3579,6.3815,6.4309,6.3125,6.2584,6.2415,6.2415,6.2415,6.255,6.299,6.3612,6.4241,6.5053,6.5865,6.6406,6.6757,6.6791,6.6791,6.6791,6.6791,6.6791,6.6791,6.6791,6.6791,6.6791,6.6927,6.7434,6.8064,6.9214,6.9789,7.006,7.05,7.1007,7.1154,7.1255,7.1267,7.1244,7.1222,7.1176,7.1244,7.1109,7.0816,7.0635,7.0623,7.0431,7.0283,7.0314,7.0459,7.0296,7.0076,6.9759,6.94,6.841,6.7512,6.6529,6.6231,6.633,6.6198,6.5701,6.3424,6.3538,6.3851,6.4106,6.4359,6.4721,6.4888,6.4888,6.4857,6.4487,6.3752,6.3075,6.2429,6.1779,6.1163,6.0794,6.0794,6.0794,6.0794,6.0794,6.0794,6.0794,6.0978,6.1348,6.1717,6.1809,6.221,6.2794,6.3075,6.2487,6.2798,6.2768,6.1845,6.1255,6.0732,6.0178,5.9465,5.9101,5.8726,5.8171,5.7586,5.7795,5.8451,5.9606,5.9943,6.0884,6.2257,6.2415,6.2415,6.2415,6.2415,6.2415,6.2516,6.3057,6.3443,6.3477,6.3477,6.3579,6.3802,6.326,6.2922,6.2651,6.2415,6.2415,6.2482,6.3091,6.3781,6.458,6.5358,6.6068,6.6588,6.6757,6.6791,6.6791,6.6791,6.6791,6.6791,6.6791,6.6791,6.6791,6.6791,6.7468,6.8064,6.8199,6.9147,7.0161,7.0466,7.0737,7.1176,7.1222,7.1289,7.1289,7.1267,7.1289,7.1289,7.1289,7.1289,7.1075,7.1053,7.1086,7.0838,7.0534,7.0589,7.0779,7.0538,7.0286,6.9956,6.965,6.9329,6.8606,6.7283,6.6332,6.6198,6.5999,6.5569,6.3367,6.3365,6.3709,6.37,6.3603,6.402,6.427,6.435,6.4217,6.3903,6.3352,6.2737,6.2086,6.1471,6.104,6.0794,6.0794,6.0794,6.0794,6.0794,6.0794,6.0794,6.0978,6.1225,6.1409,6.1348,6.1656,6.224,6.2798,6.2579,6.2764,6.2829,6.2368,6.1656,6.1071,6.0609,5.9993,5.9686,5.9224,5.8818,5.848,5.8618,5.9144,5.9878,6.0468,6.118,6.2051,6.2415,6.2415,6.2415,6.2415,6.2415,6.2584,6.2787,6.3159,6.3125,6.3666,6.3646,6.3612,6.3883,6.3632,6.3362,6.2787,6.255,6.2821,6.3545,6.4038,6.4715,6.5459,6.6102,6.6588,6.6724,6.6791,6.6791,6.6791,6.6791,6.6791,6.6791,6.6791,6.6791,6.6893,6.7726,6.8436,6.8673,6.8977,6.9958,7.0838,7.1075,7.1255,7.1255,7.1289,7.1289,7.1289,7.1289,7.1289,7.1289,7.1289,7.1289,7.1289,7.1289,7.1233,7.094,7.1019,7.1007,7.0768,7.0528,7.0186,6.9833,6.9463,6.8675,6.75,6.6711,6.621,6.5989,6.5779,6.3078,6.3107,6.3335,6.3058,6.26,6.2759,6.3064,6.3309,6.2998,6.286,6.2706,6.2117,6.1563,6.0948,6.0794,6.0794,6.0794,6.0794,6.0794,6.0794,6.0794,6.0794,6.0794,6.0886,6.1132,6.1286,6.1471,6.1748,6.2552,6.246,6.2517,6.2548,6.2148,6.1686,6.1317,6.0917,6.0393,6.0055,6.0175,5.9761,5.9439,5.9985,6.0488,6.1071,6.1577,6.2041,6.2542,6.2637,6.2502,6.2468,6.2415,6.2415,6.2415,6.2415,6.2415,6.2821,6.3869,6.3835,6.3883,6.4241,6.4512,6.4241,6.3328,6.3159,6.3362,6.3917,6.4275,6.485,6.5561,6.6102,6.6588,6.6677,6.6745,6.6779,6.6757,6.6757,6.6791,6.6791,6.6791,6.6791,6.6791,6.7299,6.7963,6.8335,6.8876,6.9891,7.0737,7.1041,7.1188,7.1289,7.1289,7.1289,7.1289,7.1289,7.1289,7.1289,7.1289,7.1289,7.1289,7.1289,7.1289,7.1267,7.1222,7.1131,7.0984,7.0791,7.0484,7.0001,6.9476,6.865,6.8092,6.7135,6.6645,6.6599,6.6443,6.2838,6.2419,6.2446,6.2113,6.1541,6.1308,6.175,6.2609,6.2564,6.2365,6.2086,6.1902,6.1379,6.0824,6.0794,6.0794,6.0794,6.0794,6.0794,6.0794,6.0794,6.0794,6.0794,6.0794,6.0978,6.0978,6.104,6.1225,6.1968,6.2122,6.2179,6.2086,6.1963,6.1625,6.1255,6.0917,6.0671,6.064,6.0924,6.0752,6.0816,6.14,6.1879,6.2288,6.2691,6.3066,6.3161,6.3193,6.299,6.2536,6.2468,6.2415,6.2415,6.2415,6.2516,6.3159,6.3666,6.3869,6.4208,6.4478,6.485,6.5121,6.4377,6.3802,6.3849,6.414,6.4444,6.4884,6.5574,6.617,6.617,6.6136,6.617,6.617,6.6339,6.6711,6.6745,6.6757,6.6757,6.6791,6.6791,6.7151,6.7726,6.8199,6.8808,6.9823,7.0534,7.0804,7.1142,7.1188,7.1289,7.1289,7.1289,7.1289,7.1289,7.1289,7.1289,7.1289,7.1289,7.1289,7.1289,7.1289,7.1289,7.1222,7.1075,7.0961,7.0825,7.0353,6.9972,6.9824,6.9298,6.8115,6.7157,6.7179,6.6954,6.2061,6.1732,6.1702,6.1313,6.0683,6.0188,6.0482,6.122,6.1519,6.1606,6.1783,6.1502,6.1194,6.0855,6.0794,6.0794,6.0794,6.0794,6.0794,6.0794,6.0794,6.0794,6.0794,6.0794,6.0824,6.0794,6.0824,6.1009,6.1532,6.2086,6.224,6.2706,6.2214,6.1594,6.1286,6.1009,6.0794,6.0939,6.1184,6.1346,6.1821,6.2468,6.3004,6.3265,6.3647,6.4086,6.3917,6.3917,6.3531,6.2956,6.2854,6.2651,6.255,6.2434,6.2753,6.3362,6.3903,6.441,6.4884,6.5019,6.5459,6.5628,6.5189,6.4681,6.4613,6.4884,6.4613,6.4613,6.5459,6.6068,6.573,6.5459,6.5425,6.5358,6.5967,6.6609,6.6677,6.6677,6.6745,6.6791,6.696,6.7252,6.7658,6.8098,6.8605,6.935,6.9891,7.0195,7.0669,7.1109,7.1222,7.1289,7.1289,7.1289,7.1289,7.1289,7.1289,7.1289,7.1289,7.1289,7.1289,7.1255,7.1255,7.121,7.1176,7.1075,7.1007,7.0961,7.0658,7.0466,7.0141,6.9211,6.8305,6.8015,6.7646,6.1076,6.1014,6.0956,6.0565,5.9967,5.9425,5.9348,5.9556,6.0236,6.0845,6.1397,6.1019,6.0829,6.0768,6.0794,6.0794,6.0794,6.0794,6.0794,6.0794,6.0794,6.0794,6.0794,6.0794,6.0794,6.0794,6.0824,6.0886,6.0978,6.144,6.224,6.3445,6.2245,6.1502,6.1348,6.1009,6.0794,6.0871,6.1026,6.1158,6.1859,6.2715,6.3692,6.3641,6.4537,6.5425,6.485,6.4512,6.4275,6.3768,6.3274,6.2902,6.2618,6.2415,6.2854,6.3362,6.3937,6.4512,6.4986,6.5222,6.5764,6.5831,6.5493,6.5324,6.5425,6.5412,6.5019,6.4783,6.5493,6.5595,6.5358,6.573,6.5865,6.5764,6.6068,6.6474,6.6576,6.6643,6.6757,6.6859,6.7151,6.7421,6.7793,6.8267,6.9045,6.9316,6.9755,7.0128,7.0364,7.0973,7.1109,7.1222,7.1289,7.1289,7.1289,7.1289,7.1289,7.1289,7.1289,7.1075,7.0939,7.1041,7.1188,7.1199,7.1222,7.1267,7.1222,7.112,7.0996,7.0715,7.0378,7.0061,6.9546,6.9088,6.8249,6.0805,6.0296,5.9787,5.9458,5.9338,5.9159,5.9261,5.9529,5.9933,6.0341,6.0639,6.06,6.0612,6.0742,6.0794,6.0794,6.0794,6.0794,6.0794,6.0794,6.0794,6.0794,6.0794,6.0794,6.0794,6.0794,6.0794,6.0824,6.0978,6.1132,6.1163,6.1532,6.1132,6.1132,6.1132,6.0794,6.0794,6.0794,6.0995,6.1652,6.2753,6.4007,6.5094,6.5445,6.6323,6.6102,6.5493,6.4884,6.4309,6.3632,6.2922,6.2584,6.2415,6.2415,6.2821,6.3396,6.3815,6.4343,6.4749,6.5087,6.5493,6.5797,6.573,6.6034,6.6102,6.5886,6.5615,6.5358,6.5256,6.5222,6.5121,6.5696,6.6115,6.6068,6.6136,6.6271,6.6474,6.6622,6.6791,6.7083,6.7354,6.7692,6.8064,6.8605,6.9383,7.0026,7.0635,7.0939,7.077,7.1041,7.1007,7.1142,7.1255,7.1289,7.1222,7.1222,7.1222,7.1222,7.1222,7.0939,7.0601,7.05,7.0534,7.1052,7.1289,7.1154,7.112,7.1267,7.1098,7.0906,7.0838,7.0601,7.0534,7.0198,6.9133,5.9997,5.9608,5.9279,5.9099,5.9099,5.9099,5.918,5.9342,5.9667,5.9959,6.025,6.0429,6.0612,6.069,6.0742,6.0794,6.0794,6.0794,6.0794,6.0794,6.0794,6.0794,6.0794,6.0794,6.0794,6.0794,6.0824,6.0886,6.1071,6.0948,6.0917,6.104,6.1009,6.0794,6.0794,6.0794,6.0794,6.082,6.1124,6.2022,6.3252,6.417,6.4799,6.5426,6.6112,6.6209,6.617,6.5493,6.4749,6.4038,6.3362,6.3057,6.3091,6.3328,6.3599,6.3903,6.4106,6.4174,6.4512,6.4816,6.5121,6.5527,6.6034,6.6406,6.6406,6.6136,6.5392,6.5222,6.6,6.6068,6.4478,6.4444,6.4749,6.4783,6.5527,6.6102,6.644,6.6724,6.7083,6.7489,6.7861,6.8301,6.8605,6.8876,6.9553,6.9992,7.0703,7.0567,7.0601,7.0973,7.0939,7.0973,7.1086,7.0973,7.0703,7.0872,7.1086,7.1109,7.1041,7.0804,7.0398,6.9958,6.9857,7.0297,7.0635,7.0737,7.077,7.1052,7.1255,7.112,7.1154,7.1188,7.1177,7.0996,6.9984,5.9159,5.9099,5.9099,5.9099,5.9099,5.9009,5.8949,5.9003,5.9155,5.9425,5.9724,6.022,6.0442,6.0612,6.0612,6.0716,6.0794,6.0794,6.0794,6.0794,6.0794,6.0794,6.0794,6.0794,6.0794,6.0794,6.0794,6.1101,6.1409,6.1101,6.1009,6.144,6.1225,6.0794,6.0794,6.0794,6.0794,6.0975,6.1303,6.1822,6.2583,6.3324,6.4077,6.4834,6.5658,6.6686,6.6576,6.6068,6.5324,6.4478,6.3632,6.3193,6.3294,6.3599,6.3768,6.3971,6.4275,6.4309,6.4478,6.4749,6.5222,6.573,6.6271,6.6406,6.6305,6.6034,6.529,6.5189,6.5946,6.5831,6.4241,6.3734,6.4005,6.4458,6.5459,6.6157,6.6508,6.6893,6.7387,6.7827,6.8267,6.8741,6.9113,6.935,6.962,7.0026,7.006,6.9722,6.9722,7.0398,7.077,7.077,7.0872,7.0635,7.0331,7.0331,7.0601,7.0601,7.05,7.0398,7.0195,6.9688,6.9383,6.9383,6.9688,7.0161,7.0567,7.0883,7.1052,7.1255,7.1289,7.1289,7.1222,7.0996,7.0579,5.9099,5.9099,5.9099,5.9099,5.9009,5.853,5.8294,5.8228,5.8068,5.8125,5.8633,5.9175,5.9749,6.069,6.0508,6.0498,6.0562,6.0619,6.0763,6.0794,6.0742,6.0768,6.0768,6.0716,6.0794,6.0794,6.0794,6.0886,6.1163,6.0978,6.0855,6.1009,6.0978,6.0794,6.0794,6.0794,6.082,6.1,6.1078,6.143,6.2085,6.3148,6.4743,6.5548,6.6148,6.6643,6.6609,6.6068,6.5358,6.4444,6.3497,6.2956,6.3091,6.3497,6.3632,6.3666,6.4005,6.4038,6.4106,6.414,6.4478,6.5256,6.5493,6.5155,6.529,6.5696,6.4918,6.412,6.4627,6.4918,6.4072,6.4701,6.5053,6.5797,6.6677,6.6711,6.688,6.7252,6.7624,6.803,6.8402,6.9011,6.962,6.9755,6.9755,7.0094,7.0297,6.9992,6.9755,7.0161,7.0534,7.0364,7.0331,7.0534,7.0331,6.9789,6.9857,6.9891,6.9857,6.9688,6.9519,6.935,6.9113,6.8741,6.9282,6.9958,7.0364,7.0567,7.1019,7.1222,7.1255,7.1255,7.1222,7.1109,7.0703]}]]